[[{"header":{"parameterUnit":"m.s-1","parameterCategory":1,"la1":30.6,"la2":29.2853,"lo1":-89.7004,"lo2":-87.6739,"dy":0.0162,"dx":0.0183,"nx":112,"ny":82,"refTime":"2024-06-09T00:00:00:Z","depth":0,"parameterNumber":2,"parameterNumberName":"U-component_of_WINDS"},"data":[0.0,0.0,0.0,0.0,0.0,0.0,0.0,0.0,0.0,0.0,0.0,0.0,0.0,0.0,0.0,0.0,0.0,0.0,0.0,0.0,0.0,0.0,0.0,0.0,0.0,0.0,0.0,0.0,0.0,0.0,0.0,0.0,0.0,0.0,0.0,0.0,0.0,0.0,0.0,0.0,0.0,0.0,0.0,0.0,0.0,0.0,0.0,0.0,0.0,0.0,0.0,0.0,0.0,0.0,0.0,0.0,0.0,0.0,0.0,0.0,0.0,0.0,0.0,0.0,0.0,0.0,0.0,0.0,0.0,0.0,0.0,0.0,0.0,0.0,0.0,0.0,0.0,0.0,0.0,0.0,0.0,0.0,0.0,0.0,0.0,0.0,0.0,0.0,0.0,0.0,-3.2891,-3.5465,-3.6526,-3.7046,-3.7044,-3.5429,-3.4113,-3.3437,0.0,0.0,0.0,0.0,0.0,0.0,0.0,0.0,0.0,0.0,0.0,0.0,0.0,0.0,0.0,0.0,0.0,0.0,0.0,0.0,0.0,0.0,0.0,0.0,0.0,0.0,0.0,0.0,0.0,0.0,0.0,0.0,0.0,0.0,0.0,0.0,0.0,0.0,0.0,0.0,0.0,0.0,0.0,0.0,0.0,0.0,0.0,0.0,0.0,0.0,0.0,0.0,0.0,0.0,0.0,0.0,0.0,0.0,0.0,0.0,0.0,0.0,0.0,0.0,0.0,0.0,0.0,0.0,0.0,0.0,0.0,0.0,0.0,0.0,0.0,0.0,0.0,0.0,0.0,0.0,0.0,0.0,0.0,0.0,0.0,0.0,0.0,0.0,0.0,0.0,0.0,0.0,0.0,0.0,0.0,0.0,0.0,0.0,0.0,0.0,0.0,0.0,0.0,0.0,-3.2993,-3.5662,-3.6739,-3.7251,-3.7259,-3.5005,-3.3529,-3.3415,0.0,0.0,0.0,0.0,0.0,0.0,0.0,0.0,0.0,0.0,0.0,0.0,0.0,0.0,0.0,0.0,0.0,0.0,0.0,0.0,0.0,0.0,0.0,0.0,0.0,0.0,0.0,0.0,0.0,0.0,0.0,0.0,0.0,0.0,0.0,0.0,0.0,0.0,0.0,0.0,0.0,0.0,0.0,0.0,0.0,0.0,0.0,0.0,0.0,0.0,0.0,0.0,0.0,0.0,0.0,0.0,0.0,0.0,0.0,0.0,0.0,0.0,0.0,0.0,0.0,0.0,0.0,0.0,0.0,0.0,0.0,0.0,0.0,0.0,0.0,0.0,0.0,0.0,0.0,0.0,0.0,0.0,0.0,0.0,0.0,0.0,0.0,0.0,0.0,0.0,0.0,0.0,0.0,0.0,0.0,0.0,0.0,0.0,0.0,0.0,0.0,0.0,0.0,-3.2407,-3.4124,-3.5815,-3.6363,-3.6601,-3.6608,-3.4621,-3.3394,-3.3397,-2.9297,0.0,0.0,0.0,0.0,0.0,0.0,0.0,0.0,0.0,0.0,0.0,0.0,0.0,0.0,0.0,0.0,0.0,0.0,0.0,0.0,0.0,0.0,0.0,0.0,0.0,0.0,0.0,0.0,0.0,0.0,0.0,0.0,0.0,0.0,0.0,0.0,0.0,0.0,0.0,0.0,0.0,0.0,0.0,0.0,0.0,0.0,0.0,0.0,0.0,0.0,0.0,0.0,0.0,0.0,0.0,0.0,0.0,0.0,0.0,0.0,0.0,0.0,0.0,0.0,0.0,0.0,0.0,0.0,0.0,0.0,0.0,0.0,0.0,0.0,0.0,0.0,0.0,0.0,0.0,0.0,0.0,0.0,0.0,0.0,0.0,0.0,0.0,0.0,0.0,0.0,0.0,0.0,0.0,0.0,0.0,0.0,0.0,0.0,0.0,0.0,0.0,0.0,-3.3983,-3.4803,-3.5875,-3.5992,-3.5995,-3.6001,-3.4406,-3.3394,-3.3396,-2.875,0.0,0.0,0.0,0.0,0.0,0.0,0.0,0.0,0.0,0.0,0.0,0.0,0.0,0.0,0.0,0.0,0.0,0.0,0.0,0.0,0.0,0.0,0.0,0.0,0.0,0.0,0.0,0.0,0.0,0.0,0.0,0.0,0.0,0.0,0.0,0.0,0.0,0.0,0.0,0.0,0.0,0.0,0.0,0.0,0.0,0.0,0.0,0.0,0.0,0.0,0.0,0.0,0.0,0.0,0.0,0.0,0.0,0.0,0.0,0.0,0.0,0.0,0.0,0.0,0.0,0.0,0.0,0.0,0.0,0.0,0.0,0.0,0.0,0.0,0.0,0.0,0.0,0.0,0.0,0.0,0.0,0.0,0.0,0.0,0.0,0.0,0.0,0.0,0.0,0.0,0.0,0.0,0.0,0.0,0.0,0.0,0.0,0.0,0.0,0.0,0.0,0.0,-3.3455,-3.4138,-3.5817,-3.5992,-3.5992,-3.5994,-3.4403,-3.3393,-3.3393,-2.9315,0.0,0.0,0.0,0.0,0.0,0.0,0.0,0.0,0.0,0.0,0.0,0.0,0.0,0.0,0.0,0.0,0.0,0.0,0.0,0.0,0.0,0.0,0.0,0.0,0.0,0.0,0.0,0.0,0.0,0.0,0.0,0.0,0.0,0.0,0.0,0.0,0.0,0.0,0.0,0.0,0.0,0.0,0.0,0.0,0.0,0.0,0.0,0.0,0.0,0.0,0.0,0.0,0.0,0.0,0.0,0.0,0.0,0.0,0.0,0.0,0.0,0.0,0.0,0.0,0.0,0.0,0.0,0.0,0.0,0.0,0.0,0.0,0.0,0.0,0.0,0.0,0.0,0.0,0.0,0.0,0.0,0.0,0.0,0.0,0.0,0.0,0.0,0.0,0.0,0.0,0.0,0.0,0.0,0.0,0.0,0.0,0.0,0.0,0.0,0.0,0.0,0.0,-3.3064,-3.3865,-3.5057,-3.568,-3.5778,-3.5232,-3.4088,-3.2941,-3.1909,0.0,0.0,0.0,0.0,0.0,0.0,0.0,0.0,0.0,0.0,0.0,0.0,0.0,0.0,0.0,0.0,0.0,0.0,0.0,0.0,0.0,0.0,0.0,0.0,0.0,0.0,0.0,0.0,0.0,0.0,0.0,0.0,0.0,0.0,0.0,0.0,0.0,0.0,0.0,0.0,0.0,0.0,0.0,0.0,0.0,0.0,0.0,0.0,0.0,0.0,0.0,0.0,0.0,0.0,0.0,0.0,0.0,0.0,0.0,0.0,0.0,0.0,0.0,0.0,0.0,0.0,0.0,0.0,0.0,0.0,0.0,0.0,0.0,0.0,0.0,0.0,0.0,0.0,0.0,0.0,0.0,0.0,0.0,0.0,0.0,0.0,0.0,0.0,0.0,0.0,0.0,0.0,0.0,0.0,0.0,0.0,0.0,0.0,0.0,0.0,0.0,0.0,-3.0994,-3.2285,-3.3319,-3.4198,-3.4821,-3.4938,-3.4334,-3.3247,-3.2002,-3.0579,0.0,0.0,0.0,0.0,0.0,0.0,0.0,0.0,0.0,0.0,0.0,0.0,0.0,0.0,0.0,0.0,0.0,0.0,0.0,0.0,0.0,0.0,0.0,0.0,0.0,0.0,0.0,0.0,0.0,0.0,0.0,0.0,0.0,0.0,0.0,0.0,0.0,0.0,0.0,0.0,0.0,0.0,0.0,0.0,0.0,0.0,0.0,0.0,0.0,0.0,0.0,0.0,0.0,0.0,0.0,0.0,0.0,0.0,0.0,0.0,0.0,0.0,0.0,0.0,0.0,0.0,0.0,0.0,0.0,0.0,0.0,0.0,0.0,0.0,0.0,0.0,0.0,0.0,0.0,0.0,0.0,0.0,0.0,0.0,0.0,0.0,0.0,0.0,0.0,0.0,0.0,0.0,0.0,0.0,0.0,0.0,0.0,0.0,0.0,0.0,0.0,0.0,-2.9355,-3.1056,-3.2422,-3.3299,-3.3396,-3.3396,-3.3396,-3.1861,-3.0517,0.0,0.0,0.0,0.0,0.0,0.0,0.0,0.0,0.0,0.0,0.0,0.0,0.0,0.0,0.0,0.0,0.0,0.0,0.0,0.0,0.0,0.0,0.0,0.0,0.0,0.0,0.0,0.0,0.0,0.0,0.0,0.0,0.0,0.0,0.0,0.0,0.0,0.0,0.0,0.0,0.0,0.0,0.0,0.0,0.0,0.0,0.0,0.0,0.0,0.0,0.0,0.0,0.0,0.0,0.0,0.0,0.0,0.0,0.0,0.0,0.0,0.0,0.0,0.0,0.0,0.0,0.0,0.0,0.0,0.0,0.0,0.0,0.0,0.0,0.0,0.0,0.0,0.0,0.0,0.0,0.0,0.0,0.0,0.0,0.0,0.0,0.0,0.0,0.0,0.0,0.0,0.0,0.0,0.0,0.0,0.0,0.0,0.0,0.0,0.0,0.0,0.0,0.0,-2.8457,-3.0157,-3.1524,-3.2383,-3.3025,-3.3143,-3.2539,-3.1466,-2.9947,-2.7901,0.0,0.0,0.0,0.0,0.0,0.0,0.0,0.0,0.0,0.0,0.0,0.0,0.0,0.0,0.0,0.0,0.0,0.0,0.0,0.0,0.0,0.0,0.0,0.0,0.0,0.0,0.0,0.0,0.0,0.0,0.0,0.0,0.0,0.0,0.0,0.0,0.0,0.0,0.0,0.0,0.0,0.0,0.0,0.0,0.0,0.0,0.0,0.0,0.0,0.0,0.0,0.0,0.0,0.0,0.0,0.0,0.0,0.0,0.0,0.0,0.0,0.0,0.0,0.0,0.0,0.0,0.0,0.0,0.0,0.0,0.0,0.0,0.0,0.0,0.0,0.0,0.0,0.0,0.0,0.0,0.0,0.0,0.0,0.0,0.0,0.0,0.0,0.0,0.0,0.0,0.0,0.0,0.0,0.0,0.0,0.0,0.0,0.0,0.0,0.0,0.0,0.0,-2.7088,-2.9044,-3.0645,-3.1485,-3.2051,-3.2147,-3.1621,-3.0489,-2.9007,-2.7117,0.0,0.0,0.0,0.0,0.0,0.0,0.0,0.0,0.0,0.0,0.0,0.0,0.0,0.0,0.0,0.0,0.0,0.0,0.0,0.0,0.0,0.0,0.0,0.0,0.0,0.0,0.0,0.0,0.0,0.0,0.0,0.0,0.0,0.0,0.0,0.0,0.0,0.0,0.0,0.0,0.0,0.0,0.0,0.0,0.0,0.0,0.0,0.0,0.0,0.0,0.0,0.0,0.0,0.0,0.0,0.0,0.0,0.0,0.0,0.0,0.0,0.0,0.0,0.0,0.0,0.0,0.0,0.0,0.0,0.0,0.0,0.0,0.0,0.0,0.0,0.0,0.0,0.0,0.0,0.0,0.0,0.0,0.0,0.0,0.0,0.0,0.0,0.0,0.0,0.0,0.0,0.0,0.0,0.0,0.0,0.0,0.0,0.0,0.0,0.0,0.0,0.0,-2.5681,-2.7969,-2.9826,-3.0703,-3.08,-3.08,-3.08,-2.9258,-2.7932,-2.7055,0.0,0.0,0.0,0.0,0.0,0.0,0.0,0.0,0.0,0.0,0.0,0.0,0.0,0.0,0.0,0.0,0.0,0.0,0.0,0.0,0.0,0.0,0.0,0.0,0.0,0.0,0.0,0.0,0.0,0.0,0.0,0.0,0.0,0.0,0.0,0.0,0.0,0.0,0.0,0.0,0.0,0.0,0.0,0.0,0.0,0.0,0.0,0.0,0.0,0.0,0.0,0.0,0.0,0.0,0.0,0.0,0.0,0.0,0.0,0.0,-2.8401,0.0,0.0,0.0,0.0,0.0,0.0,0.0,0.0,0.0,0.0,0.0,0.0,0.0,0.0,0.0,0.0,0.0,0.0,0.0,0.0,0.0,0.0,0.0,0.0,0.0,0.0,0.0,0.0,0.0,0.0,0.0,0.0,0.0,0.0,0.0,0.0,0.0,0.0,0.0,0.0,0.0,-2.6427,-2.7812,-2.9157,-3.0644,-3.08,-3.08,-3.08,-2.9258,-2.7932,-2.7055,-2.4557,0.0,0.0,0.0,0.0,0.0,0.0,0.0,0.0,0.0,0.0,0.0,0.0,0.0,0.0,0.0,0.0,0.0,0.0,0.0,0.0,0.0,0.0,0.0,0.0,0.0,0.0,0.0,0.0,0.0,0.0,0.0,0.0,0.0,0.0,0.0,0.0,0.0,0.0,0.0,0.0,0.0,0.0,0.0,0.0,0.0,0.0,0.0,0.0,0.0,0.0,0.0,0.0,0.0,0.0,0.0,0.0,0.0,0.0,0.0,0.0,-2.8946,0.0,0.0,0.0,0.0,0.0,0.0,0.0,0.0,0.0,0.0,0.0,0.0,0.0,0.0,0.0,0.0,0.0,0.0,0.0,0.0,0.0,0.0,0.0,0.0,0.0,0.0,0.0,0.0,0.0,0.0,0.0,0.0,0.0,0.0,0.0,0.0,0.0,0.0,0.0,0.0,-2.665,-2.7762,-2.8936,-3.0621,-3.0796,-3.0798,-3.08,-2.9258,-2.8108,-2.766,-2.518,0.0,0.0,0.0,0.0,0.0,0.0,0.0,0.0,0.0,0.0,0.0,0.0,0.0,0.0,0.0,0.0,0.0,0.0,0.0,0.0,0.0,0.0,0.0,0.0,0.0,0.0,0.0,0.0,0.0,0.0,0.0,0.0,0.0,0.0,0.0,0.0,0.0,0.0,0.0,0.0,0.0,0.0,0.0,0.0,0.0,0.0,0.0,0.0,0.0,0.0,0.0,0.0,0.0,-3.3393,-3.3375,-3.323,-3.3103,-3.3031,-3.2977,-3.218,-3.1189,-3.0062,-2.944,0.0,0.0,0.0,0.0,0.0,0.0,0.0,0.0,0.0,0.0,0.0,0.0,0.0,0.0,0.0,0.0,0.0,0.0,0.0,0.0,0.0,0.0,0.0,0.0,-2.9331,-2.8803,-2.6576,0.0,0.0,0.0,0.0,0.0,0.0,0.0,0.0,0.0,0.0,0.0,-2.6906,-2.7984,-2.9102,-3.0633,-3.0791,-3.0792,-3.0796,-2.9256,-2.83,-2.8301,-2.584,-2.4396,0.0,0.0,0.0,0.0,0.0,0.0,0.0,0.0,0.0,0.0,0.0,0.0,0.0,0.0,0.0,0.0,0.0,0.0,0.0,0.0,0.0,0.0,0.0,0.0,0.0,0.0,0.0,0.0,0.0,0.0,0.0,0.0,-2.2394,-2.3342,0.0,0.0,0.0,0.0,0.0,0.0,0.0,0.0,0.0,0.0,0.0,0.0,0.0,-3.2973,-3.3973,-3.6146,-3.7303,-3.743,-3.8119,-3.8083,-3.7393,-3.6687,-3.6379,-3.6325,-3.553,0.0,-3.0934,-3.0767,0.0,0.0,0.0,0.0,0.0,0.0,0.0,0.0,0.0,0.0,0.0,0.0,0.0,0.0,0.0,0.0,0.0,0.0,0.0,0.0,0.0,0.0,-3.0739,-3.0861,-3.1429,-3.1638,0.0,-2.8734,-2.6809,-2.5252,-2.499,0.0,0.0,0.0,0.0,0.0,0.0,0.0,-2.7888,-2.8838,-2.9716,-3.0702,-3.0801,-3.0801,-3.0801,-2.926,-2.8306,-2.8292,-2.5853,-2.4393,-2.4397,-2.3461,0.0,0.0,0.0,0.0,0.0,0.0,0.0,0.0,0.0,0.0,0.0,0.0,0.0,0.0,0.0,0.0,0.0,0.0,0.0,0.0,0.0,0.0,0.0,0.0,0.0,0.0,0.0,0.0,0.0,-2.2568,-2.4329,-2.5315,-2.6258,-2.6538,0.0,0.0,0.0,0.0,0.0,0.0,0.0,0.0,0.0,-3.1339,-3.3633,-3.5507,-3.6824,-3.8367,-3.923,-3.9496,-3.9858,-3.984,-3.9478,-3.9134,-3.8735,-3.8336,-3.7975,-3.6524,-3.4271,-3.2472,-3.1084,-3.001,0.0,0.0,0.0,0.0,-2.9274,-2.9248,-2.9792,-2.9671,-2.9137,-2.8346,0.0,0.0,0.0,0.0,0.0,0.0,0.0,0.0,0.0,0.0,-3.2008,-3.2501,-3.288,-3.3032,-3.2691,-3.1029,-2.9148,0.0,-2.736,-2.6766,-2.4613,0.0,0.0,0.0,0.0,-2.6326,-2.803,-2.8981,-2.9821,-3.071,-3.0808,-3.0597,-3.0117,-2.8984,-2.8086,-2.7603,-2.6006,-2.5079,-2.5063,-2.4161,-2.3509,0.0,0.0,0.0,0.0,0.0,0.0,0.0,0.0,0.0,0.0,0.0,0.0,0.0,0.0,0.0,0.0,0.0,0.0,0.0,0.0,0.0,0.0,0.0,0.0,0.0,0.0,0.0,0.0,-2.439,-2.5753,-2.662,-2.8039,-2.868,0.0,0.0,0.0,0.0,0.0,0.0,-3.0498,-3.1791,-3.3029,-3.4144,-3.6225,-3.7874,-3.9024,-3.9824,-4.0412,-4.0774,-4.0774,-4.0774,-4.0756,-4.054,-4.0093,-3.9499,-3.9283,-3.8487,-3.7085,-3.4326,-3.2708,-3.1851,-3.0223,-2.9606,-2.966,-3.0201,-3.0043,-2.9686,-3.0894,-3.0926,-3.0328,-2.9717,-2.898,-2.8069,-2.6638,0.0,0.0,0.0,0.0,-2.9863,-3.1114,-3.2034,-3.2864,-3.3799,-3.4017,-3.3941,-3.3733,-3.2753,-3.1358,0.0,-2.9147,-2.8413,-2.628,0.0,0.0,0.0,0.0,-2.7101,-2.8347,-2.9275,-3.0083,-3.0737,-3.0795,-3.0449,-2.9562,-2.8743,-2.7901,-2.6998,-2.6072,-2.5578,-2.5549,-2.4836,-2.4334,-2.4107,0.0,0.0,0.0,0.0,0.0,0.0,0.0,0.0,0.0,0.0,0.0,0.0,0.0,0.0,0.0,0.0,0.0,0.0,0.0,0.0,0.0,0.0,0.0,0.0,0.0,0.0,0.0,0.0,0.0,-2.6525,-2.831,0.0,0.0,0.0,0.0,-3.0777,-3.0864,-3.1995,-3.4647,-3.5604,-3.6551,-3.7615,-3.9234,-4.0135,-4.0214,-4.1012,-4.1442,-4.1464,-4.1464,-4.1464,-4.1429,-4.0643,-4.0117,-3.9736,-3.8966,-3.8456,-3.8009,-3.6327,-3.515,-3.4262,-3.2651,-3.2017,-3.2031,-3.2071,-3.2053,-3.2035,-3.2107,-3.2107,-3.2071,-3.2035,-3.1473,-3.0672,-2.9802,-2.918,0.0,0.0,-3.0155,-3.0776,-3.2678,-3.3202,-3.3518,-3.4595,-3.4832,-3.4624,-3.3866,-3.3731,-3.3008,0.0,-2.9346,-2.8562,-2.7723,0.0,-2.7615,-2.77,-2.8563,-2.9237,-2.9334,-3.0167,-3.0743,-3.0801,-3.0801,-3.0451,-2.9576,-2.8699,-2.7812,-2.6862,-2.5996,-2.5487,-2.5405,-2.536,-2.4943,-2.4115,-2.3195,0.0,0.0,0.0,0.0,0.0,0.0,0.0,0.0,0.0,0.0,0.0,0.0,0.0,0.0,0.0,0.0,0.0,0.0,0.0,0.0,0.0,0.0,0.0,0.0,0.0,0.0,0.0,0.0,-3.0094,-3.1964,0.0,-3.2822,-3.2827,-3.3332,-3.4454,-3.4544,-3.5228,-3.6826,-3.7614,-3.8218,-3.8596,-3.9613,-4.0335,-4.062,-4.0903,-4.1208,-4.1503,-4.1503,-4.1503,-4.1503,-4.12,-4.0721,-4.0108,-3.9823,-3.9078,-3.8031,-3.7462,-3.6791,-3.6037,-3.495,-3.4519,-3.4519,-3.4519,-3.4519,-3.4519,-3.4519,-3.419,-3.3574,-3.2542,-3.1668,-3.0962,-3.0672,-3.0417,-3.0428,-3.1228,-3.1625,-3.209,-3.3309,-3.3751,-3.4024,-3.4582,-3.471,-3.4665,-3.45,-3.4091,-3.3508,-3.2555,-3.1386,-3.0256,-2.9385,-2.8817,-2.8334,-2.7952,-2.865,-2.9227,-2.9263,-3.0052,-3.0614,-3.0614,-3.0614,-3.0036,-2.8643,-2.8251,-2.7449,-2.5993,-2.5573,-2.5354,-2.5333,-2.5293,-2.5125,-2.4807,-2.3952,-2.2686,0.0,0.0,0.0,0.0,0.0,0.0,0.0,0.0,0.0,0.0,0.0,0.0,0.0,0.0,0.0,0.0,0.0,0.0,0.0,0.0,0.0,0.0,0.0,0.0,0.0,-2.835,-3.0219,-3.1777,-3.4227,-3.559,-3.5121,-3.5538,-3.6193,-3.709,-3.7123,-3.7532,-3.8452,-3.8966,-3.9236,-3.9236,-3.9708,-4.0104,-4.0434,-4.0483,-4.0635,-4.0891,-4.0961,-4.1001,-4.0955,-4.1001,-4.0676,-4.0075,-4.0075,-3.9289,-3.8003,-3.8003,-3.7559,-3.6843,-3.6208,-3.6069,-3.62,-3.62,-3.6021,-3.5804,-3.5804,-3.5261,-3.441,-3.3357,-3.2469,-3.1799,-3.1799,-3.1799,-3.1908,-3.2451,-3.2734,-3.3021,-3.3633,-3.3934,-3.4136,-3.4386,-3.4528,-3.4645,-3.4771,-3.4425,-3.4093,-3.4093,-3.2638,-3.1214,-3.0612,-2.9825,-2.9129,-2.8716,-2.9113,-2.9503,-2.9559,-3.01,-3.0472,-3.0496,-3.0501,-2.9824,-2.8146,-2.7991,-2.7243,-2.5485,-2.5327,-2.5293,-2.5276,-2.5231,-2.5191,-2.5191,-2.4339,-2.3078,-2.1388,0.0,0.0,0.0,0.0,0.0,0.0,0.0,0.0,0.0,0.0,0.0,0.0,0.0,0.0,0.0,0.0,0.0,0.0,0.0,0.0,0.0,0.0,0.0,-2.6707,-2.9915,-3.2026,-3.1309,-3.4706,-3.6564,-3.514,-3.6324,-3.7517,-3.8369,-3.8444,-3.8796,-3.9653,-3.9703,-3.9703,-3.9703,-3.9703,-3.9703,-3.9703,-3.9824,-3.9824,-3.9703,-3.9944,-4.0011,-3.9901,-4.0037,-3.9895,-3.9606,-3.9606,-3.8997,-3.7977,-3.7977,-3.7463,-3.6639,-3.6396,-3.6591,-3.698,-3.6998,-3.6494,-3.5826,-3.5824,-3.5299,-3.463,-3.4609,-3.4081,-3.3429,-3.3411,-3.3393,-3.3393,-3.3393,-3.3393,-3.3466,-3.3726,-3.3793,-3.3873,-3.4124,-3.4393,-3.4572,-3.4602,-3.4761,-3.4879,-3.4908,-3.2918,-3.1259,-3.1328,-3.0595,-3.0011,-3.0087,-3.0155,0.0,-3.029,-3.0342,-3.0429,-3.0487,-3.0487,-2.9815,-2.8137,-2.7982,-2.7228,-2.5404,-2.5298,-2.5257,-2.5191,-2.5205,-2.5205,-2.521,-2.4339,-2.3097,-2.1483,0.0,0.0,0.0,0.0,0.0,0.0,0.0,0.0,0.0,0.0,0.0,0.0,0.0,0.0,0.0,0.0,0.0,0.0,0.0,0.0,0.0,-2.7159,-2.931,-2.9403,-3.0719,-3.2284,-3.4025,-3.5959,-3.7232,-3.7346,-3.8157,-3.8837,-3.9168,-3.9201,-3.9347,-3.9687,-3.9703,-3.9703,-3.9703,-3.9703,-3.9703,-3.9703,-3.9729,-3.9729,-3.9703,-3.9781,-3.9781,-3.9755,-3.9807,-3.9766,-3.9674,-3.9674,-3.8903,-3.7657,-3.7657,-3.7041,-3.6155,-3.6462,-3.6608,-3.6647,-3.6741,-3.6636,-3.6426,-3.6168,-3.5934,-3.5628,-3.486,-3.4461,-3.4172,-3.3574,-3.3393,-3.3393,-3.3393,-3.3393,-3.3408,-3.3495,-3.3506,-3.3577,-3.386,-3.3972,-3.4124,-3.4517,-3.4636,-3.473,-3.486,-3.3373,-3.2084,-3.2101,-3.0888,-2.9956,-3.0011,-3.0049,0.0,-3.0145,-3.0161,-3.0195,-3.0221,-3.0202,-2.9545,-2.7921,-2.7737,-2.6979,-2.5268,-2.5149,-2.5144,-2.5133,-2.5133,-2.512,-2.5125,-2.4322,-2.3665,0.0,0.0,0.0,0.0,0.0,0.0,0.0,0.0,0.0,0.0,0.0,0.0,0.0,0.0,0.0,0.0,0.0,0.0,0.0,0.0,0.0,0.0,-2.9028,-3.1307,-3.196,-3.2632,-3.3658,-3.5213,-3.6737,-3.7841,-3.8246,-3.8898,-3.9325,-3.9405,-3.9422,-3.9458,-3.952,-3.952,-3.952,-3.952,-3.952,-3.952,-3.952,-3.959,-3.959,-3.952,-3.9651,-3.9677,-3.9616,-3.9677,-3.9703,-3.9703,-3.9703,-3.905,-3.7936,-3.7643,-3.6925,0.0,0.0,0.0,0.0,0.0,-3.6629,-3.6579,-3.6396,-3.6231,-3.6007,-3.5396,-3.5092,-3.4842,-3.4029,-3.3776,-3.3722,-3.3442,-3.3352,-3.3367,-3.3378,-3.3393,-3.3437,-3.3605,-3.3712,-3.3881,-3.4197,-3.4351,-3.4487,-3.474,-3.3334,0.0,-3.226,-3.0944,-2.9913,-2.998,-2.9972,-2.998,-3.0087,-3.008,-3.0061,-3.0098,-3.0106,-2.958,-2.8278,-2.7826,0.0,0.0,0.0,-2.5101,-2.5101,-2.5031,0.0,0.0,0.0,0.0,0.0,0.0,0.0,0.0,-2.2898,-2.325,0.0,0.0,0.0,0.0,0.0,0.0,0.0,0.0,0.0,0.0,0.0,0.0,0.0,0.0,0.0,0.0,-3.1028,-3.2775,-3.3976,-3.4848,-3.537,-3.5416,-3.6988,-3.808,-3.808,-3.8745,-3.9175,-3.9175,-3.9272,-3.9299,-3.9299,0.0,0.0,0.0,0.0,-3.9299,-3.9299,-3.9422,-3.9422,-3.9299,-3.9547,-3.9573,-3.9475,-3.9616,-3.9651,-3.9651,-3.9651,-3.925,-3.8488,-3.7778,-3.6901,-3.6028,-3.5864,-3.6002,-3.6347,-3.6326,-3.6326,-3.6347,-3.6391,0.0,0.0,-3.5928,-3.5759,-3.5389,-3.4443,-3.4223,-3.4159,-3.3417,-3.3247,-3.3292,-3.3349,-3.3364,-3.3364,-3.3364,-3.3563,-3.3753,-3.3793,-3.3985,-3.4233,-3.4506,-3.3094,-3.1905,-3.2148,-3.0884,-2.9855,-2.9916,-2.9864,-2.9891,-2.9999,-2.9948,-2.994,-3.0007,0.0,0.0,-2.8833,-2.807,-2.7253,-2.6324,-2.5487,-2.5024,-2.5024,-2.4851,-2.4768,-2.4768,-2.4586,-2.4505,-2.4505,-2.4505,-2.4639,-2.4875,-2.3491,-2.3736,0.0,0.0,0.0,0.0,0.0,0.0,0.0,0.0,0.0,0.0,0.0,0.0,0.0,0.0,0.0,-3.0324,-3.2126,-3.3507,-3.3756,-3.4487,-3.5121,-3.5441,-3.6229,-3.6784,-3.6784,-3.7822,-3.849,-3.849,-3.8996,-3.9299,-3.9299,-3.9299,-3.9299,-3.9299,-3.9299,-3.9299,-3.9299,-3.9325,-3.9325,-3.9299,0.0,0.0,-3.9325,-3.9379,-3.9379,-3.9379,-3.9379,-3.8954,-3.8223,-3.7476,-3.6373,-3.5146,-3.5098,-3.5218,-3.5356,-3.5247,-3.527,-3.5407,-3.5742,-3.5814,-3.5702,-3.5511,-3.5638,-3.558,-3.3845,-3.379,0.0,-3.3033,-3.293,-3.315,-3.3147,-3.3165,-3.3165,-3.3165,-3.3271,-3.3452,-3.3671,-3.3788,-3.3959,-3.4221,-3.3403,-3.2681,-3.2727,-3.0895,-2.9425,-2.9435,-2.9425,-2.9435,-2.9455,-2.9445,-2.9436,-2.9438,-2.9447,-2.9204,-2.8606,-2.8227,-2.7451,-2.614,-2.5089,-2.4543,-2.4543,-2.4551,-2.4569,-2.4569,-2.4524,-2.4505,-2.4505,-2.4505,-2.485,-2.551,-2.4721,-2.5019,0.0,0.0,0.0,0.0,0.0,0.0,0.0,0.0,0.0,0.0,0.0,-2.6455,-2.7797,0.0,-3.1279,-3.2011,-3.3287,-3.42,-3.42,-3.4596,-3.5001,-3.5326,-3.5894,-3.6321,-3.6399,-3.756,-3.8306,-3.8306,-3.8925,-3.9299,-3.9299,-3.9299,-3.9299,-3.9299,-3.9299,-3.9299,-3.9299,-3.9299,-3.9299,-3.9299,-3.9299,-3.9299,-3.9299,-3.9299,-3.9299,-3.9299,-3.9299,-3.91,-3.8659,-3.7566,-3.6241,-3.4899,-3.4899,-3.4947,-3.4994,-3.4923,-3.4947,-3.5041,-3.5224,-3.5442,-3.5642,-3.5493,-3.5748,-3.5771,-3.4081,-3.3819,-3.3917,-3.2806,-3.262,-3.2798,-3.3039,-3.3101,-3.3101,-3.3101,-3.315,-3.3244,-3.3371,-3.3444,-3.3555,-3.3881,-3.3167,-3.2546,-3.2724,-3.1305,-3.0079,-2.9938,-2.9553,-2.9304,-2.9304,-2.9304,-2.9304,-2.9306,-2.9287,-2.9199,-2.8914,-2.8007,-2.6991,-2.5867,-2.4923,-2.4398,-2.4398,-2.4347,-2.4302,-2.4302,-2.4192,-2.4155,-2.4155,-2.4551,-2.5032,-2.556,-2.5659,-2.6336,0.0,0.0,0.0,0.0,0.0,0.0,0.0,-2.1819,-2.3032,-2.4852,-2.657,-2.8284,-2.9978,-3.1596,-3.2919,-3.359,-3.4228,-3.4631,-3.4631,-3.475,-3.4868,-3.5082,-3.5606,-3.6006,-3.6149,-3.7205,-3.7966,-3.8108,-3.8717,-3.9148,-3.9299,-3.9299,-3.9299,-3.9299,-3.9299,-3.9299,-3.9299,-3.9299,-3.9299,-3.9299,-3.9299,-3.9299,-3.9299,-3.9299,-3.9299,-3.9299,-3.9299,-3.9133,-3.8785,-3.7582,-3.6241,-3.4899,-3.4899,-3.4899,-3.4899,-3.4899,-3.4899,-3.4899,-3.4899,-3.5148,-3.5476,-3.5476,-3.5647,-3.5599,-3.4182,-3.3765,-3.3548,-3.2458,-3.2196,-3.2368,-3.2832,-3.2928,-3.2959,-3.3039,-3.307,-3.307,-3.307,-3.3086,-3.3193,-3.353,-3.2897,-3.2372,-3.2657,-3.1851,-3.1015,-3.0443,-2.9802,-2.9351,-2.9185,-2.9166,-2.9166,-2.9166,-2.9166,-2.9166,-2.9166,-2.7828,-2.6625,-2.5771,-2.4959,-2.445,-2.4284,-2.4126,-2.403,-2.403,-2.4034,-2.4031,-2.4031,-2.4846,-2.5419,-2.5795,-2.6465,-2.7369,-1.7738,-1.8339,-1.9231,-2.0675,-2.1234,-2.2187,0.0,-2.5922,-2.6576,-2.8247,-2.9774,-3.1058,-3.1878,-3.2763,-3.3605,-3.4196,-3.437,-3.4414,-3.4414,-3.4448,-3.4515,-3.4731,-3.4949,-3.5133,-3.5311,-3.6006,-3.6723,-3.7458,-3.8067,-3.8689,-3.9272,-3.9299,-3.9299,-3.9299,-3.9299,-3.9299,-3.9299,-3.9299,-3.9299,-3.9299,-3.9299,-3.9299,-3.9299,-3.9299,-3.9299,-3.9299,-3.9299,-3.8569,-3.7334,-3.7168,-3.6241,-3.4899,-3.4899,-3.4899,-3.4899,-3.4899,-3.4899,-3.4899,-3.4899,-3.4947,-3.4977,-3.4977,-3.4851,-3.4477,-3.3222,-3.2923,-3.2762,-3.1577,-3.1509,-3.186,-3.2266,-3.2386,-3.2471,-3.2834,-3.2963,-3.3011,-3.3011,-3.3057,-3.3117,-3.3162,-3.3075,-3.3006,-3.3033,-3.2406,-3.1423,-3.0072,-2.9802,-2.9493,-2.876,-2.8687,-2.8687,-2.8687,-2.8687,-2.8687,-2.8687,-2.8064,-2.7248,-2.6193,-2.5376,-2.4613,-2.3896,-2.3847,-2.3837,-2.3837,-2.4512,-2.4864,-2.4864,-2.5679,-2.6451,-2.7193,-2.7325,-2.7698,-1.923,-1.9525,-1.9851,-2.1235,-2.2137,-2.3114,-2.4801,-2.572,-2.676,-2.8662,-3.0102,-3.1426,-3.2618,-3.3459,-3.4109,-3.437,-3.4414,-3.4414,-3.4414,-3.4414,-3.4414,-3.4515,-3.4582,-3.4702,-3.5016,-3.5623,-3.6165,-3.6492,-3.71,-3.7557,-3.7835,-3.7835,-3.7835,-3.7835,-3.7835,-3.7835,-3.7835,-3.7835,-3.7908,-3.8026,-3.8026,-3.8226,-3.8595,-3.8595,-3.8575,-3.852,-3.8169,-3.7665,-3.7069,-3.6655,-3.6108,-3.5495,-3.5065,-3.4899,-3.4899,-3.4899,-3.4899,-3.4899,-3.4899,-3.4899,-3.4899,-3.4899,-3.4526,-3.3913,-3.2979,-3.2448,-3.1985,-3.1303,-3.122,-3.149,-3.2127,-3.2127,-3.2056,-3.2454,-3.2386,-3.23,-3.2538,-3.2605,-3.2719,-3.2995,-3.3042,-3.3057,-3.3086,-3.2487,-3.1636,-3.0558,-2.9976,-2.9386,-2.8593,-2.8471,-2.8497,-2.8549,-2.8574,-2.86,-2.86,-2.7973,-2.7179,-2.6258,-2.5443,-2.4646,-2.3831,-2.3806,-2.4013,-2.4483,-2.4827,-2.5226,-2.5697,-2.65,-2.7061,-2.7405,-2.7912,-2.8281,-2.0334,-2.0605,-2.0722,-2.1895,-2.3058,-2.4116,-2.4746,-2.5519,-2.659,-2.8255,-2.9497,-3.0744,-3.2254,-3.3196,-3.3897,-3.4269,-3.4346,-3.4414,-3.4414,-3.4414,-3.4414,-3.4414,-3.4414,-3.4515,-3.4735,-3.5267,-3.5672,-3.5881,-3.6322,-3.663,-3.6797,-3.6797,-3.6797,-3.6797,-3.6797,-3.6797,-3.6797,-3.6797,-3.6873,-3.7025,-3.7025,-3.7265,-3.7751,-3.7559,-3.7464,-3.7405,-3.6944,-3.6528,-3.6153,-3.58,-3.5522,-3.5276,-3.4562,-3.4488,-3.4763,-3.4602,-3.4699,-3.4899,-3.4899,-3.4899,-3.4899,-3.4899,-3.4253,-3.3415,-3.2868,-3.205,-3.1248,-3.1012,-3.0925,-3.1103,-3.1804,-3.175,-3.164,-3.2038,-3.1913,-3.1769,-3.2074,-3.2127,-3.2283,-3.2721,-3.282,-3.285,-3.3008,-3.2348,-3.1515,-3.0698,-2.984,-2.9069,-2.8474,-2.8411,-2.8419,-2.8471,-2.851,-2.8549,-2.8574,-2.7938,-2.7271,-2.6572,-2.5829,-2.5086,-2.4392,-2.4271,-2.4477,-2.5069,-2.5296,-2.5709,-2.6284,-2.7092,-2.7469,-2.7505,-2.8079,-2.8388,-2.0397,-2.1059,-2.1794,-2.2907,-2.4108,-2.5333,-2.6402,-2.666,-2.6832,-2.7434,-2.8192,-2.9188,-3.0521,-3.1542,-3.2613,-3.391,-3.4264,-3.4414,-3.4414,-3.4414,-3.4414,-3.4414,-3.4414,-3.4414,-3.4414,-3.4616,-3.5067,-3.5849,-3.5913,-3.6166,-3.6783,-3.6797,-3.6797,-3.6797,-3.6797,-3.6797,-3.6797,-3.6797,-3.6797,-3.6797,-3.6797,-3.6813,-3.6812,-3.6216,-3.5962,-3.5958,-3.5876,-3.5093,-3.3924,-3.4494,-3.4332,-3.3614,-3.3008,-3.3469,-3.4431,-3.3869,-3.4185,-3.4899,-3.4899,-3.4899,-3.4899,-3.4899,-3.3905,-3.2735,-3.2718,-3.1686,-3.0522,-3.0526,-3.0526,-3.0613,-3.1024,-3.1142,-3.122,-3.1621,-3.1714,-3.1695,-3.1714,-3.1714,-3.1841,-3.2249,-3.2318,-3.2437,-3.2852,-3.1983,-3.0961,-3.0154,-2.9129,-2.8425,-2.8389,-2.8411,-2.8411,-2.8393,-2.8393,-2.8432,-2.851,-2.8188,-2.7803,-2.7381,-2.6788,-2.6231,-2.5763,-2.5434,-2.5273,-2.5291,-2.6055,-2.6472,-2.649,-2.7294,-2.7695,-2.7695,-2.7713,-2.773,-2.1224,-2.1906,-2.2615,-2.377,-2.4367,-2.4895,-2.5609,-2.6045,-2.6372,-2.67,-2.7674,-2.8664,-2.9288,-3.0788,-3.2117,-3.2561,-3.3431,-3.4054,-3.4054,-3.4054,-3.4088,-3.4196,-3.4196,-3.423,-3.438,-3.4448,-3.4601,-3.4887,-3.4905,-3.499,-3.5204,-3.5204,-3.5204,-3.5204,-3.5204,-3.5204,-3.5204,-3.5204,-3.527,-3.5415,-3.5411,-3.5431,-3.5385,-3.4697,-3.4387,-3.434,-3.3932,-3.3744,-3.3779,-3.3489,-3.3507,-3.3664,-3.2966,-3.2955,-3.3287,-3.3087,-3.3427,-3.4086,-3.4505,-3.4618,-3.4618,-3.4618,-3.3672,-3.251,-3.2545,-3.1561,-3.0443,-3.0485,-3.0506,-3.0593,-3.1004,-3.0905,-3.0801,-3.122,-3.1103,-3.0965,-3.1242,-3.13,-3.1414,-3.1823,-3.1913,-3.1932,-3.2074,-3.0976,-2.964,-2.8339,-2.7827,-2.7601,-2.7585,-2.7639,-2.7666,-2.7666,-2.771,-2.7739,-2.7768,-2.7681,-2.7332,-2.6641,-2.6405,-2.5987,-2.5302,-2.5153,-2.5341,-2.5892,-2.6167,-2.6595,-2.7157,-2.7392,-2.7515,-2.7574,-2.7574,-2.784,-2.1417,-2.223,-2.3072,-2.3939,-2.4427,-2.4833,-2.5192,-2.5576,-2.5805,-2.5719,-2.6401,-2.7107,-2.7551,-2.8805,-3.0161,-3.1309,-3.2274,-3.3149,-3.3791,-3.3896,-3.3917,-3.4005,-3.404,-3.4108,-3.4278,-3.4312,-3.4312,-3.438,-3.4414,-3.4414,-3.4414,-3.4414,-3.4414,-3.4414,-3.4414,-3.4414,-3.4414,-3.4414,-3.4448,-3.4582,-3.4371,-3.4269,-3.4224,-3.3291,-3.2848,-3.2846,-3.2446,-3.2428,-3.2625,-3.2379,-3.2555,-3.2893,-3.2211,-3.221,-3.2583,-3.2348,-3.2648,-3.3277,-3.3935,-3.4333,-3.4423,-3.3991,-3.3063,-3.2078,-3.1854,-3.0957,-3.0092,-3.0338,-3.0401,-3.0447,-3.072,-3.0593,-3.0447,-3.072,-3.0576,-3.0447,-3.072,-3.0821,-3.0965,-3.1357,-3.1471,-3.1528,-3.1694,-3.0365,-2.8716,-2.7096,-2.6842,-2.694,-2.7165,-2.7227,-2.7257,-2.7257,-2.7303,-2.7334,-2.7348,-2.7239,-2.7034,-2.6636,-2.6423,-2.6122,-2.5697,-2.5592,-2.5771,-2.6299,-2.6316,-2.6586,-2.7129,-2.71,-2.7099,-2.7129,-2.7129,-2.756,-2.1084,-2.2145,-2.3354,-2.351,-2.4339,-2.5135,-2.5217,-2.5228,-2.5084,-2.4556,-2.4448,-2.4709,-2.5465,-2.5833,-2.7058,-3.0173,-3.092,-3.1778,-3.3608,-3.3862,-3.3862,-3.3896,-3.3896,-3.3951,-3.4094,-3.4094,-3.4162,-3.4346,0.0,-3.4414,-3.4414,-3.4414,-3.4414,-3.4414,-3.4414,-3.4414,-3.4414,-3.4414,-3.4414,-3.4399,-3.3732,-3.346,-3.3402,-3.2063,-3.1437,-3.1469,-3.1442,-3.1146,-3.0628,-3.1234,-3.1451,-3.1408,-3.0836,-3.1306,-3.2259,-3.1652,-3.1823,-3.2465,-3.3235,-3.3885,-3.4194,-3.3021,-3.2135,-3.1406,-3.0663,-2.9959,-2.9489,-3.0,-3.0167,-3.0189,-3.0167,-3.0167,-3.0189,-3.0189,-3.0189,-3.0189,-3.0189,-3.0295,-3.0506,-3.0882,-3.1004,-3.1164,-3.1531,-3.0078,-2.8273,-2.6522,-2.6219,-2.6434,-2.7069,-2.7149,-2.7149,-2.7149,-2.7149,-2.7164,-2.7241,-2.6955,-2.6939,-2.7301,-2.6792,-2.6606,-2.6856,-2.6607,-2.6485,-2.6485,-2.6485,-2.6485,-2.6485,-2.6485,-2.6485,-2.6485,-2.6485,-2.6869,-2.2443,-2.3548,-2.4656,-2.4519,-2.4944,-2.5203,-2.4484,-2.4457,-2.4418,-2.3859,-2.3886,-2.402,-2.4241,-2.5448,-2.6964,-2.8775,-3.0309,-3.1771,-3.3234,-3.3466,-3.3501,-3.364,-3.3675,-3.3744,-3.3917,-3.3951,-3.3985,-3.402,-3.4244,-3.4414,-3.4414,-3.4414,-3.4414,-3.4414,-3.4414,-3.4414,-3.4414,-3.4414,-3.4414,-3.4399,-3.3282,-3.2759,-3.2716,-3.1409,-3.0814,-3.083,-3.082,-3.0747,-3.0598,-3.0777,-3.0836,-3.0807,-3.0657,-3.0807,-3.1029,-3.0896,-3.1204,-3.1766,-3.1962,-3.2434,-3.2801,-3.1992,-3.1239,-3.0513,-2.9935,-2.9564,-2.9296,-2.9143,-2.9633,-3.0103,-2.9705,-2.9897,-3.0189,-3.0189,-3.0189,-3.0189,-3.0189,-3.0248,-3.0274,-3.0384,-3.0489,-3.0447,-2.9996,-2.9148,-2.8175,-2.7168,-2.6551,-2.6257,-2.6434,-2.6451,-2.6451,-2.6451,-2.6451,-2.6452,-2.6486,-2.6416,-2.6399,-2.6503,-2.6364,-2.631,-2.6382,-2.6311,-2.6291,-2.6291,-2.6291,-2.631,-2.6347,-2.631,-2.631,-2.6347,-2.6347,-2.7031,-2.2879,-2.3803,-2.4707,-2.4376,-2.4669,-2.4822,-2.3896,-2.3929,-2.3879,-2.2897,-2.3016,-2.3254,-2.3014,-2.4249,-2.574,-2.7069,-2.9051,-3.091,-3.222,-3.2919,-3.3361,-3.3466,-3.3466,-3.3536,-3.3744,-3.3793,-3.3793,-3.3896,-3.4088,-3.4191,-3.4191,-3.4191,-3.4191,-3.4191,-3.4191,-3.4191,-3.4191,-3.4191,-3.4191,-3.4176,-3.2893,-3.2288,-3.2245,-3.0962,-3.0371,-3.0371,0.0,-3.0371,-3.0371,-3.0447,-3.0477,-3.0477,-3.0568,-3.0598,-3.0598,-3.0598,-3.0807,-3.1072,-3.0762,-3.0889,-3.111,-3.0733,-3.0129,-2.9444,-2.8808,-2.8572,-2.8496,-2.8519,-2.8943,-2.9287,-2.8996,-2.9134,-2.9371,-2.9371,-2.9371,-2.9371,-2.9371,-2.9416,-2.9461,-2.9528,-2.9595,-2.9317,-2.8286,-2.7833,-2.726,-2.6277,-2.5775,-2.5532,-2.5495,-2.5899,-2.6202,-2.6202,-2.6202,-2.6202,-2.6202,-2.6202,-2.6202,-2.6202,-2.6008,-2.5901,-2.5901,-2.5717,-2.5624,-2.5624,-2.5624,-2.5645,-2.5703,-2.5645,-2.5645,-2.5703,-2.5703,-2.645,-2.3006,-2.3569,-2.4202,-2.385,-2.4106,-2.4199,-2.3323,-2.338,-2.3262,-2.1851,-2.2048,-2.2345,-2.1965,-2.2862,-2.4098,-2.5481,-2.7507,-2.9491,-3.1083,-3.2283,-3.3108,-3.3276,-3.329,-3.3361,-3.3536,-3.357,-3.364,-3.3827,-3.3827,-3.3862,-3.3896,-3.3896,-3.3896,-3.3896,-3.3896,-3.3896,-3.3896,-3.3896,-3.3854,-3.3754,-3.2554,-3.1972,-3.1843,-3.064,-3.008,-3.008,-3.008,-3.008,-3.0111,-3.0249,-3.0266,-3.0296,-3.0462,-3.0522,-3.0522,-3.0522,-3.0522,-3.0421,-2.9798,-2.9479,-2.9421,-2.9351,-2.8943,-2.8345,-2.7622,-2.7439,-2.759,-2.7987,-2.8207,-2.8264,-2.8216,-2.8255,-2.8288,-2.8288,-2.8288,-2.8288,-2.8288,-2.8376,-2.8511,-2.8614,-2.8662,-2.8241,-2.6954,-2.6642,-2.618,-2.4915,-2.471,-2.4668,-2.4603,-2.5419,-2.6007,-2.6007,-2.5989,-2.5989,-2.6007,-2.6007,-2.6007,-2.6007,-2.5647,-2.5427,-2.5427,-2.5098,-2.4902,-2.4902,-2.4902,-2.4902,-2.4902,-2.4902,-2.495,-2.5025,-2.5025,-2.5803,-2.3887,-2.4349,-2.4671,-2.4213,-2.4168,-2.3893,-2.2453,-2.1985,-2.1661,-2.1027,-2.1038,-2.1356,-2.1803,-2.2424,-2.3498,-2.5385,-2.6426,-2.7997,-3.0891,-3.1498,-3.2053,-3.3185,-3.329,-3.3326,-3.3361,-3.3361,-3.3361,-3.3396,-3.3396,-3.3536,-3.3896,-3.3896,-3.3896,-3.3896,-3.3896,-3.3896,-3.3896,-3.3896,-3.3625,-3.3068,-3.2325,-3.1743,-3.1214,-3.0454,-3.008,-3.008,-3.008,0.0,-3.008,-3.0142,-3.0142,-3.0142,-3.0172,-3.0172,-3.0172,-3.0172,-3.0172,-3.0117,-2.9486,-2.8913,-2.8412,-2.8113,-2.7946,-2.7727,-2.7112,-2.7188,-2.7439,-2.7126,-2.7655,-2.8207,-2.775,-2.7987,-2.8288,-2.8288,-2.8288,-2.8288,-2.8288,-2.8328,-2.8336,-2.836,-2.8448,-2.8271,-2.748,-2.6925,-2.632,-2.5545,-2.4967,-2.4608,-2.4603,-2.4808,-2.4965,-2.4965,-2.4922,-2.4902,-2.4965,-2.4965,-2.4965,-2.4965,-2.4985,-2.4985,-2.4985,-2.4942,-2.4902,-2.4902,-2.4902,-2.4902,-2.4902,-2.4902,-2.5183,-2.5715,-2.5715,-2.6493,-2.3824,-2.4214,-2.4487,-2.4258,-2.4005,-2.3408,-2.1881,-2.1394,-2.1097,-2.0345,-2.0512,-2.096,-2.1538,-2.2386,-2.3251,-2.3916,-2.536,-2.7043,-2.8846,-2.9795,-3.0703,-3.192,-3.2064,-3.2223,-3.2618,-3.2668,-3.2668,-3.2668,-3.2668,-3.2931,-3.357,-3.3605,-3.3605,-3.3605,-3.3605,-3.3449,-3.3123,-3.3123,-3.2812,-3.2174,-3.1523,-3.1069,-3.0772,-3.0148,-2.9834,-2.9834,-2.9834,-2.962,-2.931,-2.9761,-2.9744,-2.9449,-2.9913,-3.008,-3.008,-3.008,-2.9911,-2.951,-2.8528,-2.8009,-2.7611,-2.6762,-2.6714,-2.693,-2.6628,-2.6736,-2.6941,-2.6709,-2.7074,-2.7469,-2.7203,-2.7316,-2.7519,-2.7519,-2.7519,-2.7519,-2.7519,-2.7519,-2.7519,-2.7519,-2.7285,-2.687,-2.6195,-2.5589,-2.4972,-2.4287,-2.3984,-2.3788,-2.3724,-2.3794,-2.4069,-2.4588,-2.4623,-2.4608,-2.4648,-2.4648,-2.4648,-2.4648,-2.4466,-2.4379,-2.4379,-2.4194,-2.4069,-2.4069,-2.4147,-2.4168,-2.4168,-2.4214,-2.4568,-2.5222,-2.5222,-2.5966,-2.3436,-2.3818,-2.42,-2.42,-2.3741,-2.2903,-2.1512,-2.1029,-2.0626,-1.973,-1.9945,-2.0517,-2.1121,-2.2072,-2.2686,-2.253,-2.4274,-2.597,-2.6953,-2.8196,-2.9457,-3.0677,-3.0857,-3.1082,-3.1673,-3.1696,-3.1746,-3.1783,-3.1819,-3.2137,-3.2753,-3.2945,-3.298,-3.2789,-3.2855,-3.2549,-3.1924,-3.1799,-3.1425,-3.0815,-3.0316,-2.9979,-2.9841,-2.9356,-2.9149,-2.9149,-2.9149,-2.8835,-2.8344,-2.903,-2.9012,-2.8597,-2.9293,-2.9557,-2.9557,-2.9557,-2.9248,-2.8668,-2.7407,-2.6989,-2.6778,-2.5506,-2.5632,-2.6313,-2.6313,-2.6379,-2.6457,-2.6457,-2.6566,-2.67,-2.67,-2.67,-2.67,-2.6712,-2.6738,-2.6738,-2.6779,-2.6806,-2.6806,-2.6806,-2.6268,-2.5589,-2.4926,-2.4312,-2.3673,-2.2989,-2.2992,-2.3015,-2.2925,-2.2992,-2.3363,-2.4152,-2.4235,-2.4256,-2.4277,-2.4277,-2.4277,-2.4277,-2.3964,-2.3773,-2.3773,-2.3458,-2.3297,-2.3297,-2.3385,-2.3466,-2.3466,-2.365,-2.4075,-2.4723,-2.4871,-2.558,-2.2885,-2.3582,-2.42,-2.42,-2.3465,-2.25,-2.1443,-2.05,-1.9666,-1.908,-1.9028,-1.942,-2.0552,-2.0868,-2.1261,-2.2321,-2.3055,-2.433,-2.6748,-2.7587,-2.862,-3.039,-3.0645,-3.0594,-3.0468,-3.0455,-3.0544,-3.0707,-3.0895,-3.1044,-3.1119,-3.1819,-3.1869,-3.1156,-3.1343,-3.1105,-3.0336,-2.9843,-2.9288,-2.8686,-2.8633,-2.8296,-2.7762,-2.7743,-2.7683,-2.7683,-2.7683,-2.7637,0.0,-2.767,-2.767,-2.765,-2.7716,-2.7749,-2.7749,-2.7749,-2.771,-2.7499,-2.634,-2.595,-2.5757,-2.4534,-2.5119,-2.6313,-2.6313,-2.6313,-2.634,-2.634,-2.634,-2.634,-2.634,-2.634,-2.6394,-2.6498,-2.6537,-2.6578,-2.6753,-2.6806,-2.6806,-2.6806,-2.6268,-2.5589,-2.4926,-2.4312,-2.3673,-2.2989,-2.2925,-2.2925,-2.2888,-2.2925,-2.2955,-2.3045,-2.3068,-2.3112,-2.3238,-2.3238,-2.3238,-2.3238,-2.3297,-2.3363,-2.3363,-2.3319,-2.3297,-2.3297,-2.3319,-2.3319,-2.3319,-2.3873,-2.4492,-2.5141,-2.5776,-2.644,-2.2049,-2.263,-2.3113,-2.3113,-2.2212,-2.1133,-2.0396,-1.9624,-1.907,-1.9129,-1.9267,-1.9707,-2.0811,-2.0985,-2.1155,-2.1635,-2.1952,-2.2697,-2.4403,-2.5154,-2.613,-2.7825,-2.8317,-2.879,-2.9499,-2.9563,-2.9614,-2.9691,-2.9316,-2.9094,-2.9094,-3.0557,-3.1059,-3.0422,-3.0513,-3.0099,-2.9083,-2.8847,-2.8454,-2.7857,-2.7857,-2.7727,-2.7517,-2.7517,-2.7517,-2.7517,-2.7517,-2.725,0.0,-2.7317,-2.725,-2.6879,-2.7317,-2.7517,-2.7517,-2.7517,-2.7249,-2.6733,-2.5576,-2.5213,-2.5014,-2.3838,-2.4137,-2.4922,-2.4922,-2.4992,-2.509,-2.509,-2.5161,-2.5217,-2.5217,-2.5495,-2.5769,-2.5824,-2.6109,-2.6406,-2.6474,-2.65,-2.65,-2.65,-2.5651,-2.4883,-2.4669,-2.379,-2.3031,-2.2747,-2.2729,-2.2743,-2.2826,-2.2546,-2.2394,-2.2463,-2.2729,-2.2925,-2.2992,-2.2992,-2.2992,-2.2992,-2.3023,-2.3068,-2.3068,-2.3068,-2.3068,-2.3068,-2.3135,-2.3031,-2.2694,-2.3332,-2.4051,-2.4795,-2.5326,-2.5975,-2.0801,-2.1437,-2.1977,-2.1829,-2.0953,-2.0023,-1.9545,-1.8816,-1.8346,-1.8688,-1.8989,-1.9478,-2.0463,-2.0814,-2.1017,-2.1167,-2.1412,-2.1927,-2.3072,-2.3886,-2.4894,-2.6288,-2.678,-2.7388,-2.8454,-2.8581,-2.8609,-2.8609,-2.8179,-2.7893,-2.7893,-2.9077,-2.9593,-2.9223,-2.9162,-2.861,-2.7583,-2.7405,-2.716,-2.6799,-2.6799,-2.6799,-2.6833,-2.6833,-2.6833,-2.6833,-2.6833,-2.6539,0.0,-2.6641,-2.6539,-2.6139,-2.6641,-2.6833,-2.6833,-2.6833,-2.6442,-2.5757,-2.4836,-2.4412,-2.4106,-2.3167,-2.313,-2.3475,-2.3475,-2.3813,-2.4221,-2.4221,-2.4295,-2.4355,-2.4355,-2.4682,-2.4993,-2.5063,-2.5398,-2.5715,-2.5756,-2.5783,-2.5783,-2.5783,-2.4873,-2.4093,-2.3984,-2.308,-2.2311,-2.2161,-2.2147,-2.2147,-2.2245,-2.1949,-2.1732,-2.1827,-2.2147,-2.2379,-2.2449,-2.2449,-2.2449,-2.2449,-2.2426,-2.2402,-2.2402,-2.2402,-2.2402,-2.2402,-2.2518,-2.2411,-2.2035,-2.2874,-2.3564,-2.4126,-2.4833,-2.5426,-1.8942,-2.0012,-2.0977,-2.0446,-1.9908,-1.9435,-1.9081,-1.8191,-1.7441,-1.7492,-1.7777,-1.8291,-1.916,-1.9907,-2.0584,-2.1109,-2.1583,-2.2338,-2.3607,-2.4667,-2.5666,-2.6662,-2.679,-2.6908,-2.7174,-2.7412,-2.7522,-2.7522,-2.7748,0.0,-2.7893,-2.7415,-2.7148,-2.7148,-2.6943,-2.6432,-2.5639,-2.5096,-2.4933,-2.5111,-2.5111,-2.5182,-2.5312,-2.5312,-2.5312,-2.5312,-2.5312,-2.5312,0.0,-2.5312,-2.5312,-2.5312,-2.5312,-2.5312,-2.5312,-2.5312,-2.4975,-2.4446,-2.3974,-2.3457,-2.2927,-2.2397,-2.2228,-2.2216,-2.2216,-2.3053,-2.3992,-2.3992,-2.3992,-2.4021,-2.4021,-2.4021,-2.405,-2.425,-2.4321,-2.4366,-2.4498,-2.4526,-2.4526,-2.4526,-2.3962,-2.3335,-2.2804,-2.2219,-2.1633,-2.1111,-2.1017,-2.1017,-2.1017,-2.1017,-2.1017,-2.1017,-2.1017,-2.114,-2.1393,-2.1417,-2.1417,-2.1417,-2.1296,-2.1224,-2.1224,-2.1224,-2.1224,-2.1224,-2.1345,-2.1417,-2.1417,-2.2615,-2.3199,-2.324,-2.4449,-2.5007,-1.7517,-1.7939,-1.8265,-1.81,-1.7726,-1.735,-1.7238,-1.6911,-1.6836,-1.7507,-1.7715,-1.8059,-1.8921,-1.9284,-1.9597,-2.0023,-2.0718,-2.1575,-2.2579,-2.3777,-2.4932,-2.5908,-2.6645,-2.7099,-2.7167,-2.726,-2.7301,-2.7301,-2.7394,-2.7285,-2.6966,-2.6417,-2.6283,-2.6541,-2.6181,-2.567,-2.5048,-2.4872,-2.4825,-2.4897,-2.4897,-2.4921,-2.4957,-2.4957,-2.4957,-2.4957,-2.4957,-2.4957,-2.4957,-2.4957,-2.4957,-2.4957,-2.4957,-2.4957,-2.4957,-2.4957,-2.485,-2.4637,-2.4139,-2.3572,-2.3051,-2.2497,-2.1861,-2.1391,-2.1862,-2.2347,-2.2763,-2.2763,-2.2763,-2.2763,-2.2763,-2.3083,-2.3416,-2.3475,-2.38,-2.4121,-2.4137,-2.4166,-2.4166,-2.4166,-2.3661,-2.3161,-2.2988,-2.2463,-2.1887,-2.1354,-2.1262,-2.1168,-2.0898,-2.0547,-2.0333,-2.0434,-2.0131,-2.0232,-2.1066,-2.114,-2.114,-2.114,-2.1091,-2.1066,-2.1066,-2.1066,-2.1066,-2.1066,-2.1454,-2.1491,-2.1121,-2.1888,-2.2521,-2.3083,-2.3963,-2.4379,-1.606,-1.6351,-1.6508,-1.6263,-1.6001,-1.5839,-1.5916,-1.574,-1.5831,-1.679,-1.7071,-1.7411,-1.8338,-1.8744,-1.9026,-1.9304,-1.9978,-2.0771,-2.183,-2.3156,-2.4506,-2.5826,-2.6726,-2.711,-2.6955,-2.7116,-2.719,-2.719,-2.719,-2.7013,-2.6536,-2.598,-2.5727,-2.5786,-2.5333,-2.4925,-2.4574,-2.4574,-2.461,-2.4682,-2.4682,-2.4718,-2.479,-2.479,-2.479,-2.479,-2.4442,-2.4514,0.0,-2.4442,-2.4311,-2.4311,-2.4311,-2.4311,-2.4251,-2.3792,-2.3728,-2.3687,-2.2891,-2.2241,-2.1742,-2.1425,-2.0892,-2.0452,-2.0869,-2.1557,-2.2197,-2.2197,-2.2197,-2.2197,-2.2197,-2.2469,-2.275,-2.275,-2.304,-2.331,-2.331,-2.331,-2.331,-2.331,-2.3022,-2.2698,-2.2488,-2.2139,-2.1662,-2.0898,-2.0814,-2.0638,-2.0169,-1.9824,-1.9643,-1.9734,-1.9448,-1.9526,-2.0194,-2.0346,-2.0409,-2.0409,-2.0359,-2.0334,-2.0334,-2.0334,-2.0411,-2.0617,-2.0991,-2.1129,-2.1008,-2.1551,-2.2168,-2.2903,-2.3357,-2.3573,0.0,-1.5165,-1.5487,-1.4953,-1.4817,-1.49,-1.508,-1.4702,0.0,-1.5528,-1.5951,-1.6442,-1.7407,-1.8162,-1.8687,-1.8859,-1.924,-1.9993,-2.1315,-2.277,-2.4332,-2.6103,-2.6678,-2.6792,-2.6394,-2.6741,-2.6974,-2.7015,-2.7015,-2.6775,-2.6268,-2.58,-2.5249,-2.469,-2.4271,-2.408,-2.42,-2.42,-2.4309,-2.449,-2.4418,-2.4502,-2.4682,-2.461,-2.461,0.0,-2.3731,-2.3852,0.0,-2.3731,-2.3379,-2.3379,-2.3379,-2.3379,-2.3239,-2.2077,-2.186,-2.1931,-2.073,-1.9977,-1.9518,-1.9442,-1.9432,-1.9475,-1.9432,-2.0634,-2.203,-2.203,-2.203,-2.203,-2.203,-2.203,-2.203,-2.203,-2.2061,-2.2061,-2.2018,-2.2061,-2.2092,-2.2092,-2.2092,-2.1937,-2.1416,-2.1392,-2.1044,-1.9905,-1.9769,-1.9593,-1.8973,-1.8878,-1.8854,-1.8854,-1.8854,-1.8854,-1.8854,-1.9172,-1.9368,-1.9368,-1.9249,-1.9182,-1.9182,-1.9206,-1.9488,-1.9985,-2.0168,-2.0533,-2.1035,-2.1575,-2.2119,-2.2628,-2.2665,-2.2678,-1.3765,0.0,-1.3991,-1.3868,-1.4061,-1.4285,0.0,-1.432,-1.4444,-1.5011,-1.5266,-1.5674,-1.6468,-1.6786,-1.7092,-1.7752,-1.8445,-1.9263,-2.0297,-2.2129,-2.367,-2.4546,-2.465,-2.4713,-2.4935,-2.4883,-2.4904,-2.5137,-2.5137,-2.4765,-2.3926,-2.3777,-2.3342,-2.2551,-2.2424,-2.2942,-2.42,-2.42,-2.4225,-2.4273,-2.3641,-2.3372,-2.3409,-2.2793,-2.2521,-2.2483,-2.2285,-2.2322,-2.2483,-2.2274,-2.2199,-2.2199,-2.2199,-2.2199,-2.2146,-2.1544,-2.1386,-2.1337,-2.0688,-2.0121,-1.9591,-1.8778,-1.89,-1.9266,-1.8867,-1.9387,-2.0128,-2.0128,-2.0128,-2.0128,-2.0128,-2.0128,-2.0128,-2.0128,-2.0558,-2.0826,-2.0257,-2.059,-2.0985,-2.0985,-2.0985,-2.0951,-2.0805,-2.135,-2.119,-1.9441,-1.9499,-1.9304,-1.8083,-1.7667,-1.7407,-1.7246,-1.7246,-1.7246,-1.7246,-1.8363,-1.9093,-1.9093,-1.9052,-1.9052,-1.9052,-1.9438,-1.9715,-1.9836,-2.0684,-2.1167,-2.13,-2.194,-2.2122,-2.1884,-2.2433,-2.242,-1.3571,-1.3776,-1.405,-1.405,-1.4204,-1.4367,-1.4367,-1.4147,-1.4055,-1.4443,-1.4626,-1.4959,-1.5763,-1.6087,-1.6431,-1.7103,-1.7895,-1.8926,-2.041,-2.1894,-2.3109,-2.3861,-2.3889,-2.3889,0.0,-2.4135,-2.4086,-2.4051,-2.4167,-2.3815,-2.2853,-2.2811,-2.253,-2.1825,-2.1794,-2.222,-2.3091,-2.3091,-2.3091,-2.3091,-2.2644,-2.2456,-2.2419,-2.1993,-2.1794,-2.1794,-2.1385,-2.1423,-2.1766,-2.1385,-2.1193,-2.1193,-2.1193,-2.11,-2.082,-2.0064,-1.9886,-1.9935,-1.9118,-1.8671,-1.8385,-1.7783,-1.7876,-1.8138,-1.7833,-1.8027,-1.8479,-1.9267,-1.9498,-1.9498,-1.9498,-1.9498,-1.9498,-1.9498,-1.9803,-1.9998,-1.9607,-1.9792,-2.0096,-2.0096,-2.0096,-2.0096,-2.0096,-2.0494,-2.0359,-1.9072,-1.8908,-1.8618,-1.7627,-1.7138,-1.681,-1.6715,-1.6715,-1.68,-1.6995,-1.7784,-1.8207,-1.81,-1.835,-1.8504,-1.8504,-1.8942,-1.9321,-1.958,-2.0362,-2.0795,-2.0795,-2.1166,-2.1186,-2.0919,-2.1323,-2.1282,-1.367,-1.4213,-1.4812,-1.4641,-1.4675,-1.4752,-1.4701,-1.417,-1.3785,-1.4119,-1.423,-1.456,-1.5462,-1.5904,-1.6332,-1.6915,-1.7579,-1.8685,-2.0601,-2.1489,-2.2247,-2.3219,-2.3274,0.0,-2.3282,-2.3421,-2.3328,-2.2994,-2.3172,-2.291,-2.2057,-2.2016,-2.1803,-2.1357,-2.1336,-2.1336,-2.1336,-2.1652,-2.1794,-2.1794,-2.168,-2.1603,-2.1603,-2.1451,-2.1413,-2.1375,0.0,0.0,-2.1375,-2.0546,-2.0217,-2.0207,-2.014,-1.9927,-1.9475,-1.8425,-1.8225,-1.8344,-1.7281,-1.6908,-1.6908,-1.6908,-1.6908,-1.6908,-1.6908,-1.6908,-1.7201,-1.868,-1.9102,-1.9102,-1.9102,-1.9102,-1.9102,-1.9102,-1.9201,-1.9234,-1.9135,-1.9201,-1.9267,-1.9267,-1.9267,-1.9267,-1.9267,-1.9366,-1.9239,-1.856,-1.8197,-1.7806,-1.7249,-1.6738,-1.6397,-1.6441,-1.6452,-1.6638,-1.7095,-1.7177,-1.707,-1.6848,-1.7495,-1.7947,-1.8023,-1.8345,-1.8777,-1.9326,-1.9792,-1.9998,-1.9998,-1.9998,-2.0031,-2.0063,-2.0063,-1.9998,-1.3944,-1.4804,-1.5394,-1.4427,-1.4667,-1.5052,-1.4752,-1.459,-1.4521,-1.4614,-1.4829,-1.5274,-1.6028,-1.6289,-1.6601,-1.7299,-1.7506,-1.802,-1.9338,-1.9623,-2.0076,-2.1078,0.0,-2.0864,-2.0983,-2.0825,-2.0654,-2.0452,-2.0501,-2.0309,-1.9811,-1.9784,-1.9602,-1.917,-1.9161,-1.9161,-1.9161,-2.0924,-2.1794,-2.1804,-2.1039,-2.0692,-2.0692,-1.9991,-1.9687,-1.9687,0.0,-1.9569,-1.9659,-1.9167,-1.899,-1.8962,-1.8619,-1.8443,-1.8304,-1.7779,-1.7622,-1.7619,-1.7081,-1.6908,-1.6908,-1.6908,-1.6908,-1.6908,-1.6908,-1.6908,-1.6968,-1.7235,-1.7304,-1.7304,-1.7304,-1.7304,-1.7304,-1.7304,-1.7765,-1.807,-1.7432,-1.7799,-1.823,-1.823,-1.823,-1.823,-1.823,-1.8834,-1.8903,-1.761,-1.7437,-1.712,-1.6306,-1.5516,-1.5104,-1.5322,-1.536,-1.5519,-1.5933,-1.6065,-1.61,-1.6065,-1.7257,-1.8171,-1.8553,-1.8638,-1.8924,-1.9457,-1.9531,-1.9607,-1.9607,-1.9607,-1.9672,-1.9868,-1.9868,-1.9617,-1.3733,-1.447,-1.5112,-1.4786,-1.542,-1.6096,-1.5925,-1.5583,-1.5283,-1.5283,-1.542,-1.5694,-1.6242,-1.6516,-1.6901,-1.7655,-1.7775,-1.8031,-1.8751,-1.9042,-1.9385,0.0,0.0,-1.9935,-1.9817,-1.9774,-1.9651,-1.9393,-1.9492,-1.9407,-1.8984,-1.8966,-1.8878,-1.8709,-1.87,-1.87,-1.87,-1.9657,-2.0118,-2.0118,-1.9736,-1.9548,-1.9499,-1.9161,-1.8845,-1.8668,0.0,-1.8551,-1.8353,-1.8172,-1.81,-1.8082,-1.7902,-1.7657,-1.736,-1.666,-1.6404,-1.6422,-1.6325,-1.6298,-1.6298,-1.6298,-1.6298,-1.6219,-1.5789,-1.5648,-1.5648,-1.5648,-1.6254,-1.6908,-1.6908,-1.6621,-1.6403,-1.6795,-1.6846,-1.6837,-1.6899,-1.7176,-1.7407,-1.7407,-1.7407,-1.7407,-1.7407,-1.774,-1.7774,-1.7141,-1.6888,-1.6598,-1.6201,-1.5632,-1.514,-1.4879,-1.5192,-1.5419,-1.5422,-1.5482,-1.5788,-1.6356,-1.6986,-1.7561,-1.8022,-1.8042,-1.8165,-1.8398,-1.8408,-1.8408,-1.8408,-1.8408,-1.8476,-1.8566,-1.8566,-1.8442,-1.3622,-1.4153,-1.4769,-1.5129,-1.5874,-1.6584,-1.6858,-1.6345,-1.5848,-1.6028,-1.6062,-1.6173,-1.6579,-1.6927,-1.7333,-1.7906,-1.8,-1.8128,-1.8537,-1.8887,-1.9067,-1.9204,-1.9427,-1.9461,-1.9076,-1.9195,-1.9123,-1.8709,-1.888,-1.8839,-1.8549,-1.8531,-1.8531,-1.8531,-1.8531,-1.8531,-1.8531,-1.8531,-1.858,-1.87,-1.87,-1.8647,-1.8559,-1.8559,-1.8337,-1.8003,-1.8003,-1.7843,-1.7568,-1.7283,-1.7164,-1.7156,-1.6874,-1.653,-1.6139,-1.5413,-1.5136,-1.5171,-1.5321,-1.5392,-1.5392,-1.5392,-1.5392,-1.5251,-1.4637,-1.4458,-1.4458,-1.4458,-1.5313,-1.6254,-1.6324,-1.5939,-1.5648,-1.6228,-1.5939,-1.5648,-1.6184,-1.6289,-1.6289,-1.6219,-1.6219,-1.6254,-1.6289,-1.6253,-1.6227,-1.635,-1.5968,-1.5693,-1.5748,-1.5402,-1.4985,-1.4512,-1.4959,-1.5256,-1.506,-1.5059,-1.5403,-1.622,-1.6287,-1.6467,-1.6811,-1.6821,-1.6821,-1.6821,-1.7003,-1.7116,-1.7116,-1.7289,-1.7289,-1.7151,-1.7323,-1.7254,-1.3956,-1.4358,-1.4769,-1.5129,-1.5274,-1.5617,-1.6679,-1.6345,-1.6002,-1.6696,-1.6841,-1.6953,-1.7359,-1.7697,-1.7931,-1.7991,-1.8,-1.8128,-1.8537,0.0,-1.8759,-1.917,-1.9239,-1.9059,-1.8665,-1.8672,-1.8518,-1.8108,-1.8074,-1.8066,-1.804,-1.804,-1.804,-1.804,-1.804,-1.804,-1.804,-1.804,-1.8282,-1.87,-1.87,-1.8497,-1.8133,-1.8133,-1.7967,-1.7658,-1.7658,-1.7603,-1.7512,-1.6405,-1.5921,-1.5814,-1.4683,-1.4245,-1.4186,-1.4127,-1.4119,-1.4119,-1.4112,-1.4119,-1.4119,-1.4119,-1.4119,-1.4112,-1.4047,-1.4047,-1.4047,-1.4047,-1.4112,-1.4299,-1.4673,-1.4716,-1.4708,-1.4744,-1.4708,-1.4637,-1.4522,-1.4486,-1.445,-1.4219,-1.4219,-1.4263,-1.445,-1.4288,-1.4263,-1.4696,-1.4209,-1.387,-1.4122,-1.3809,-1.368,-1.4021,-1.4095,-1.4266,-1.4609,-1.4633,-1.4676,-1.474,-1.4748,-1.4756,-1.4816,-1.4816,-1.4816,-1.4816,-1.5542,-1.5903,-1.5903,-1.6621,-1.6656,-1.6114,-1.6855,-1.6559,-1.3691,-1.4016,-1.4461,-1.506,-1.5052,-1.524,-1.661,-1.6876,-1.6987,-1.747,-1.7572,-1.7586,-1.7523,-1.7783,-1.7923,-1.7723,-1.7837,-1.8042,-1.8228,-1.8442,-1.8554,-1.8477,-1.8665,-1.8656,-1.828,-1.8245,-1.8145,-1.8008,-1.8,-1.8,-1.8,-1.8,-1.8,-1.8,-1.8,-1.7749,-1.7196,-1.7513,-1.7482,-1.7077,-1.768,-1.7887,-1.7692,-1.697,-1.643,-1.6067,-1.5573,-1.5221,-1.5006,-1.4571,-1.4371,-1.4319,-1.3863,-1.3702,-1.3629,-1.3273,-1.3127,-1.3164,-1.3259,-1.3332,-1.3332,-1.3332,-1.3332,-1.3222,-1.2718,-1.2572,-1.2572,-1.2572,-1.2572,-1.2821,-1.3947,-1.3875,-1.3658,-1.4119,-1.3875,-1.3658,-1.4047,-1.4119,-1.4083,-1.4011,-1.4004,-1.4004,-1.4083,-1.4012,-1.4009,-1.4212,-1.4018,-1.3902,-1.399,-1.3855,-1.3648,-1.3357,-1.3308,-1.3388,-1.3542,-1.3557,-1.3332,-1.2828,-1.3918,-1.4601,-1.4601,-1.4601,-1.4601,-1.4601,-1.4895,-1.5037,-1.5037,-1.5321,-1.5357,-1.5144,-1.5428,-1.5313,-1.3691,-1.3887,-1.4247,-1.4889,-1.4949,-1.5215,-1.6602,-1.7115,-1.7441,-1.7897,-1.7906,-1.7817,-1.7672,-1.7766,-1.7809,-1.7672,-1.7869,-1.791,-1.7619,-1.8041,-1.8191,-1.7652,-1.7836,-1.7887,-1.7603,-1.7335,-1.7172,-1.7172,-1.7308,-1.7461,-1.757,-1.7393,-1.7326,-1.7443,-1.7126,-1.6661,-1.6043,-1.6419,-1.6258,-1.5622,-1.6146,-1.6522,-1.6753,-1.5679,-1.5,-1.4644,-1.4089,-1.3704,-1.3499,-1.3244,-1.2989,-1.2725,-1.2725,-1.2725,-1.2689,-1.2298,-1.212,-1.215,-1.2285,-1.2315,-1.2315,-1.2315,-1.2315,-1.2241,-1.1663,-1.1521,-1.1521,-1.1521,-1.1521,-1.1737,-1.2814,-1.2785,-1.2645,-1.3142,-1.2894,-1.2645,-1.307,-1.3179,-1.3179,-1.3099,-1.307,-1.3099,-1.3179,-1.31,-1.31,-1.3237,-1.3208,-1.3143,-1.3143,-1.323,-1.3077,-1.2572,-1.2505,-1.2505,-1.2505,-1.2505,-1.2285,-1.1744,-1.2938,-1.3665,-1.3665,-1.3665,-1.3665,-1.3665,-1.3911,-1.4063,-1.4063,-1.4307,-1.4271,-1.4063,-1.4307,-1.4163,-1.4093,-1.4093,-1.4196,-1.4581,-1.4924,-1.5497,-1.6624,-1.6889,-1.7103,-1.7854,-1.7701,-1.7595,-1.7931,-1.7684,-1.7595,-1.7931,-1.7951,-1.7659,-1.678,-1.7408,-1.7659,-1.678,-1.6698,-1.6698,-1.6698,-1.5925,-1.5394,-1.5394,-1.5825,-1.6253,-1.6675,-1.6062,-1.5886,-1.6285,-1.517,-1.4608,-1.4569,-1.46,-1.46,-1.4562,-1.4168,-1.4396,-1.5149,-1.4358,-1.3807,-1.3499,-1.3499,-1.3499,-1.3426,-1.2629,-1.1818,-1.1111,-1.1111,-1.1111,-1.1111,-1.1111,-1.1111,-1.1111,-1.1111,-1.1111,-1.1111,-1.1111,-1.1111,-1.1111,-1.1111,-1.1074,-1.1074,-1.1074,-1.1074,-1.1074,-1.1074,-1.1372,-1.1669,-1.1669,-1.1669,-1.1632,-1.1446,-1.1409,-1.1335,-1.1149,-1.1111,-1.1149,-1.1372,-1.1186,-1.1172,-1.1625,-1.1471,-1.1299,-1.1299,-1.1535,-1.1706,-1.1706,-1.1706,-1.1706,-1.1706,-1.1706,-1.1706,-1.1706,-1.1706,-1.1706,-1.1706,-1.1706,-1.1706,-1.1706,-1.2469,-1.2901,-1.2901,-1.3614,-1.3614,-1.2901,-1.365,-1.315,-1.3682,-1.3688,-1.3712,-1.3818,-1.4069,-1.4425,-1.502,-1.6452,-1.7631,-1.754,-1.6588,-1.5678,-1.556,-1.5539,-1.5468,-1.5279,-1.5506,-1.5579,-1.5323,-1.5621,-1.5786,-1.5538,-1.567,-1.5801,-1.5801,-1.556,-1.5394,-1.5394,-1.5364,-1.5375,-1.5514,-1.5153,-1.4963,-1.5101,-1.4777,-1.4304,-1.3692,-1.4009,-1.3856,-1.3275,-1.2941,-1.3354,-1.4313,-1.3266,-1.2748,-1.2629,-1.207,-1.1805,-1.1774,-1.1552,-1.1335,-1.1111,-1.1111,-1.1111,-1.1111,-1.1111,-1.1111,-1.1111,-1.1111,-1.1111,-1.1111,-1.1111,-1.1111,-1.1111,-1.1111,-1.07,-1.0255,-1.0255,-0.9836,-0.9415,-0.9415,-0.949,-0.9717,-1.0288,-1.0438,-1.0406,-1.0368,-1.0775,-1.1186,-1.1111,-1.1111,-1.1111,-1.1186,-1.1119,-1.1132,-1.1248,-1.1193,-1.1175,-1.1175,-1.1249,-1.1298,-1.1298,-1.1298,-1.1298,-1.1298,-1.1298,-1.1298,-1.1298,-1.1298,-1.1409,-1.1706,-1.1706,-1.1706,-1.1706,-1.1922,-1.207,-1.207,-1.2285,-1.2285,-1.207,-1.2285,-1.2137,-1.3154,-1.3113,-1.316,-1.3446,-1.3601,-1.3931,-1.4604,-1.588,-1.6877,-1.668,-1.5662,-1.4746,-1.4615,-1.4518,-1.4447,-1.4344,-1.4531,-1.458,-1.4245,-1.458,-1.4747,-1.4413,-1.4503,-1.4539,-1.4462,-1.4124,-1.3869,-1.3796,-1.3822,-1.3929,-1.4088,-1.3772,-1.3596,-1.3677,-1.3373,-1.2927,-1.2293,-1.2683,-1.2589,-1.2068,-1.1901,-1.2162,-1.2808,-1.2155,-1.1818,-1.1781,-1.1298,-1.1111,-1.1111,-1.1111,-1.1111,-1.1111,-1.1111,-1.1111,-1.1074,-1.0738,-1.0812,-1.1037,-1.0738,-1.0625,-1.0625,-1.0625,-1.04,-1.0132,-1.0132,-0.9798,-0.9425,-0.9425,-0.9084,-0.8703,-0.8703,-0.8475,-0.8437,-0.9236,-0.9425,-0.9425,-0.9425,-0.9798,-1.0132,-1.0132,-1.0132,-1.0132,-1.0132,-1.0132,-1.0132,-1.0132,-1.0043,-1.0016,-1.0121,-1.0043,-1.0016,-1.0121,-1.0132,-1.0132,-1.0132,-1.0132,-1.0132,-1.0132,-1.0132,-1.0244,-1.0507,-1.1105,-1.1446,-1.1446,-1.1446,-1.1446,-1.1446,-1.1446,-1.1446,-1.1446,-1.1446,-1.1446,-1.2491,-1.2359,-1.2495,-1.3123,-1.3275,-1.3588,-1.4711,-1.5007,-1.5123,-1.5387,-1.4788,-1.4252,-1.4405,-1.4111,-1.3954,-1.4323,-1.4385,-1.4085,-1.3317,-1.3882,-1.4114,-1.3286,-1.3243,-1.3136,-1.2858,-1.2146,-1.1565,-1.1301,-1.1739,-1.215,-1.2515,-1.2106,-1.1933,-1.2139,-1.142,-1.0962,-1.0775,-1.0962,-1.1037,-1.1037,-1.1037,-1.1037,-1.1037,-1.1074,-1.1074,-1.1074,-1.1074,-1.1074,-1.1074,-1.1074,-1.1074,-1.0999,-1.0999,-1.0962,-1.0775,-1.0067,-1.025,-1.0775,-1.003,-0.9809,-0.9809,-0.9809,-0.9311,-0.8703,-0.8703,-0.8623,-0.8546,-0.8589,-0.8508,-0.8432,-0.847,-0.794,-0.7557,-0.8322,-0.8551,-0.8589,-0.8589,-0.8661,-0.8703,-0.8703,-0.8703,-0.8703,-0.8703,-0.8703,-0.8703,-0.8703,-0.8496,-0.8435,-0.8675,-0.8487,-0.8403,-0.8642,-0.8665,-0.8661,-0.8661,-0.8661,-0.8661,-0.8661,-0.8661,-0.8661,-0.8661,-1.0094,-1.0881,-1.0881,-1.0881,-1.0881,-1.0844,-1.0844,-1.0844,-1.0844,-1.0844,-1.0844,-1.1656,-1.1424,-1.1233,-1.153,-1.169,-1.1881,-1.238,-1.2476,-1.2829,-1.4007,-1.3061,-1.204,-1.2321,-1.2106,-1.1915,-1.2015,-1.1891,-1.1786,-1.174,-1.1891,-1.1968,-1.1759,-1.1932,-1.1958,-1.1705,-1.1485,-1.1341,-1.1284,-1.1207,-1.1202,-1.1294,-1.0989,-1.0836,-1.0895,-1.0729,-1.0625,-1.055,-1.0625,-1.0625,0.0,-1.0625,-1.0625,-1.0625,-1.0962,-1.0999,-1.085,-1.1037,-1.0999,-1.0887,-1.1037,-1.0738,-1.0143,-1.0143,-0.976,-0.9193,-0.9003,-0.9079,-0.9193,-0.9008,-0.897,-0.897,-0.897,-0.8851,-0.8703,-0.8703,-0.8161,-0.7548,-0.771,-0.7173,-0.6556,-0.6756,-0.6683,-0.6606,-0.6756,-0.7292,-0.7748,-0.7748,-0.8246,-0.8703,-0.8703,-0.8703,-0.8703,-0.8703,-0.8703,-0.8703,-0.8703,-0.8661,-0.8647,-0.8694,-0.85,-0.8406,-0.8456,-0.8309,-0.8237,-0.8237,-0.8237,-0.8237,-0.8237,-0.8237,-0.8237,-0.8237,-0.8846,-0.9231,-0.9231,-0.9231,-0.915,-0.8988,-0.8988,-0.8912,-0.8765,-0.8765,-0.8836,-1.0483,-1.0381,-1.0418,-1.0788,-1.0914,-1.1004,-1.1133,-1.1106,-1.1295,-1.2163,-1.1685,-1.1176,-1.1187,-1.1048,-1.0967,-1.0967,-1.0902,-1.0859,-1.0946,-1.0979,-1.098,-1.098,-1.1103,-1.1096,-1.0851,-1.0829,-1.0779,-1.0656,-1.049,-1.0418,-1.0418,-1.0366,-1.0331,-1.0218,-1.04,-1.0443,-1.0368,-1.0443,-1.0513,-1.0513,-1.0513,-1.0288,-0.9943,-1.0132,-1.0169,-1.0056,-0.9787,-0.9593,-0.9523,-0.9636,-0.941,-0.9036,-0.9036,-0.8775,-0.8351,-0.7974,-0.8089,-0.8351,-0.7974,-0.7821,-0.7821,-0.7821,-0.7553,-0.7211,-0.7211,-0.6865,-0.644,-0.656,-0.6173,-0.5789,-0.5909,-0.5951,-0.5951,-0.5951,-0.637,-0.6749,-0.6749,-0.698,-0.7211,-0.7211,-0.7211,-0.7211,-0.7211,-0.7211,-0.7211,-0.7211,-0.7211,-0.7211,-0.7211,-0.713,-0.7049,-0.7049,-0.6976,-0.6899,-0.6899,-0.6899,-0.6899,-0.6899,-0.6899,-0.6899,-0.6899,-0.7092,-0.7591,-0.8389,-0.8432,-0.8351,-0.8271,-0.8271,-0.8194,-0.808,-0.808,-0.8156,-0.9298,-0.9446,-0.9811,-1.0362,-1.052,-1.0533,-1.0533,-1.0433,-1.0336,-1.0442,-1.0702,-1.0816,-1.0624,-1.0597,-1.0597,-1.0597,-1.056,-1.0549,-1.0592,-1.056,-1.0533,-1.0533,-1.0533,-1.0442,-1.025,-1.0229,-1.0143,-0.9933,-0.9884,-0.9884,-0.9884,-1.0067,-1.0067,-0.9922,-1.0218,-1.0331,-1.0143,-1.018,-1.025,-1.04,-1.025,-0.9755,-0.8993,-0.8836,-0.8879,-0.8988,-0.8385,-0.808,-0.8042,-0.808,-0.8003,-0.7889,-0.7889,-0.7812,-0.7587,-0.6938,-0.7092,-0.7587,-0.6899,-0.6672,-0.6672,-0.6672,-0.6173,-0.5598,-0.5598,-0.5559,-0.5559,-0.5598,-0.5482,-0.5362,-0.5398,-0.5282,-0.5165,-0.5165,-0.5279,-0.547,-0.5786,-0.5712,-0.5598,-0.5598,-0.5598,-0.5598,-0.5598,-0.5598,-0.5598,-0.5598,-0.5598,-0.5598,-0.5598,-0.5559,-0.5559,-0.5559,-0.5521,-0.5482,-0.5482,-0.5482,-0.5482,-0.5482,-0.5482,-0.5482,-0.5482,-0.5482,-0.6135,-0.7548,-0.7625,-0.7659,-0.7621,-0.7621,-0.7583,-0.7544,-0.7544,-0.7583,-0.8393,-0.8815,-0.9401,-0.9879,-1.0159,-1.0342,-1.0342,-1.0315,-1.0245,-1.0056,-1.0213,-1.0439,-1.0565,-1.0597,-1.0597,-1.0597,-1.0431,-1.0406,-1.0565,-1.0466,-1.0342,-1.0342,-1.0342,-1.0245,-0.9997,-0.997,-0.996,-0.9884,-0.9884,-0.9884,-0.9884,-0.9916,-0.9922,-0.9922,-0.9954,-0.996,-0.996,-0.9268,-0.9273,-0.996,-0.9268,-0.8504,-0.7732,-0.6969,-0.7119,-0.799,-0.808,-0.7999,-0.7842,-0.8042,-0.7702,-0.7053,-0.7053,-0.6595,-0.5906,-0.5828,-0.5828,-0.5906,-0.5828,-0.5792,-0.5792,-0.5792,-0.5676,-0.5598,-0.5598,-0.5479,-0.5359,-0.5559,-0.4968,-0.4341,-0.453,-0.3982,-0.3437,-0.3437,-0.3322,-0.3677,-0.5282,-0.5637,-0.5598,-0.5598,-0.5598,-0.5598,-0.5598,-0.5598,-0.5598,-0.5598,-0.5598,-0.5598,-0.5598,-0.544,-0.5321,-0.5321,-0.5168,-0.5096,-0.5096,-0.5096,-0.5096,-0.5096,-0.5096,-0.5096,-0.5096,-0.5096,-0.5171,-0.5401,-0.575,-0.5864,-0.5667,-0.5667,-0.5589,-0.5401,-0.5401,-0.5515,-0.8311,-0.877,-0.9287,-0.9642,-0.9906,-1.0083,-1.0083,-1.0083,-1.0051,-0.9943,-1.0008,-1.0116,-1.0174,-1.0195,-1.0195,-1.0195,-1.0148,-1.0121,-1.0184,-1.0148,-1.0083,-1.0083,-1.0083,-1.004,-0.9895,-0.9884,-0.9884,-0.9884,-0.9884,-0.9884,-0.9884,-0.9884,-0.969,-0.9236,-0.9236,-0.9003,-0.8575,-0.8194,-0.8194,-0.8537,-0.8194,-0.7583,-0.6777,-0.6395,-0.6468,-0.6888,-0.6511,-0.6321,-0.624,-0.6321,-0.617,-0.5825,-0.5825,-0.5595,-0.5251,-0.5251,-0.5251,-0.5251,-0.5251,-0.5251,-0.5251,-0.5251,-0.5251,-0.5171,-0.4735,-0.4535,-0.4377,-0.3988,-0.3558,-0.3207,-0.3322,-0.3047,-0.2774,-0.2774,-0.2698,-0.2856,-0.3677,-0.3871,-0.3871,-0.3871,-0.3871,-0.3871,-0.3871,-0.3871,-0.3871,-0.3871,-0.4263,-0.4419,-0.391,-0.4618,-0.4971,-0.4496,-0.4776,-0.5018,-0.5018,-0.5018,-0.5018,-0.5018,-0.5018,-0.5018,-0.5018,-0.5018,-0.4779,-0.4343,-0.4935,-0.521,-0.5132,-0.5132,-0.5093,-0.5018,-0.5018,-0.5054,-0.8274,-0.8673,-0.9012,-0.9354,-0.962,-0.9836,-0.9836,-0.9879,-0.9884,-0.9884,-0.9884,-0.9884,-0.9884,-0.9884,-0.9884,-0.9884,-0.9884,-0.9884,-0.9884,-0.9884,-0.9884,-0.9884,-0.9884,-0.9884,-0.9884,-0.9884,-0.9884,-0.9884,-0.9884,-0.9803,-0.9614,-0.9576,-0.9231,-0.8432,-0.8389,-0.8118,-0.7502,-0.7502,-0.7272,-0.6853,-0.708,-0.6738,-0.5896,-0.5896,-0.5896,-0.5857,-0.5246,-0.5018,-0.5018,-0.5018,-0.5018,-0.5018,-0.5018,-0.5018,-0.5018,-0.5018,-0.5018,-0.5018,-0.5018,-0.4859,-0.4701,-0.4701,-0.4543,-0.4268,-0.3638,-0.348,-0.3324,-0.2699,-0.2347,-0.2192,-0.2192,-0.2035,-0.1879,-0.1879,-0.1879,-0.1996,-0.2426,-0.2503,-0.2503,-0.2503,-0.2503,-0.2503,-0.2503,-0.2503,-0.2503,-0.2503,-0.3051,-0.3244,-0.2581,-0.36,-0.4151,-0.3519,-0.3992,-0.4348,-0.4348,-0.4348,-0.4348,-0.4348,-0.4348,-0.4348,-0.4348,-0.4348,-0.407,-0.348,-0.407,-0.4465,-0.4701,-0.4701,-0.4818,-0.5018,-0.5018,-0.5018,-0.8009,-0.8245,-0.8375,-0.8819,-0.9289,-0.963,-0.963,-0.9766,-0.9884,-0.9884,-0.9884,-0.9884,-0.9884,-0.9884,-0.9884,-0.9884,-0.9884,-0.9884,-0.9884,-0.9884,-0.9884,-0.9884,-0.9884,-0.9884,-0.9884,-0.9884,-0.9884,-0.9884,-0.9884,-0.9576,-0.8813,-0.8775,-0.8389,-0.7579,-0.7579,-0.754,-0.7502,-0.7502,-0.67,-0.5132,-0.5899,-0.586,-0.5054,-0.5054,-0.5054,-0.5054,-0.5018,-0.5018,-0.5018,-0.5018,-0.5018,-0.5018,-0.5018,-0.5018,-0.5018,-0.5018,-0.5018,-0.5018,-0.5018,-0.4501,-0.3871,-0.3871,-0.3285,-0.262,-0.2581,-0.2581,-0.2543,-0.2503,-0.1957,-0.1371,-0.1371,-0.0745,-0.0118,-0.0118,-0.0118,-0.0549,-0.2152,-0.2503,-0.2503,-0.2503,-0.2503,-0.2503,-0.2503,-0.2503,-0.2503,-0.2503,-0.2543,-0.2543,-0.2503,-0.2582,-0.262,-0.2581,-0.262,-0.262,-0.262,-0.262,-0.262,-0.262,-0.262,-0.262,-0.262,-0.262,-0.262,-0.2581,-0.262,-0.3051,-0.3871,-0.3871,-0.4265,-0.5018,-0.5018,-0.5018,-0.7672,-0.791,-0.8163,-0.8298,-0.8722,-0.9103,-0.9207,-0.9187,-0.9122,-0.9122,-0.8732,-0.8344,-0.8263,-0.9135,-0.9884,-0.9884,-0.9884,-0.9884,-0.9884,-0.9884,-0.9884,-0.9884,-0.9884,-0.969,-0.9198,-0.9122,-0.8927,-0.838,-0.8342,-0.8228,-0.7965,-0.7927,-0.7544,-0.67,-0.6661,-0.6433,-0.5899,-0.5899,-0.5592,-0.5018,-0.5285,-0.5285,-0.5018,-0.5018,-0.5018,-0.5018,-0.5018,-0.5018,-0.5018,-0.5018,-0.5018,-0.5018,-0.5018,-0.5018,-0.4937,-0.4423,-0.4226,-0.4148,-0.36,-0.3207,-0.2971,-0.2971,-0.2737,-0.2387,-0.1879,-0.1722,-0.1605,-0.1058,-0.0706,-0.0471,-0.0471,-0.0235,0.0,0.0,0.0,-0.0118,-0.0588,-0.0823,-0.0902,-0.0902,-0.0902,-0.0902,-0.0902,-0.0902,-0.0902,-0.0902,-0.1371,-0.1528,-0.098,-0.184,-0.2309,-0.1801,-0.2192,-0.2503,-0.2503,-0.2503,-0.2503,-0.2503,-0.2386,-0.2308,-0.2308,-0.2189,-0.1838,-0.1291,-0.1291,-0.1839,-0.2971,-0.2971,-0.3129,-0.3404,-0.3404,-0.3404,-0.7444,-0.7558,-0.7725,-0.7607,-0.785,-0.8137,-0.8167,-0.8116,-0.8095,-0.8205,-0.7785,-0.7343,-0.7216,-0.8106,-0.8877,-0.8998,-0.9008,-0.9033,-0.9102,-0.9112,-0.9112,-0.9112,-0.9112,-0.8884,-0.8351,-0.8313,-0.808,-0.754,-0.7502,0.0,-0.7037,-0.7033,-0.6632,-0.5717,-0.5679,-0.5456,-0.4896,-0.4896,-0.4896,-0.4896,-0.4896,-0.4896,-0.4896,-0.4896,-0.4896,-0.4896,-0.4939,-0.4941,-0.5018,-0.5018,-0.5018,-0.4976,-0.4701,-0.4582,-0.4501,-0.3677,-0.3361,-0.3285,-0.2698,-0.2308,-0.2113,-0.2113,-0.1918,-0.1567,-0.1019,-0.0862,-0.0745,-0.0157,0.0,0.0,0.0,0.0,0.0,0.0,0.0039,0.0118,0.0275,0.0196,0.0118,0.0196,0.0196,0.0196,0.0196,0.0196,0.0196,0.0196,-0.0275,-0.0471,0.0118,-0.0784,-0.1253,-0.0706,-0.1135,-0.1448,-0.1448,-0.1448,-0.1448,-0.1448,-0.1331,-0.1253,-0.1253,-0.1135,-0.0783,-0.0196,-0.0196,-0.0627,-0.1448,-0.1721,-0.1995,-0.2308,-0.2308,-0.2308,0.0,0.0,0.0,-0.6775,-0.6762,-0.6692,-0.6513,-0.6619,-0.6865,-0.72,-0.7134,-0.6989,-0.6931,-0.682,-0.6833,-0.7171,-0.7241,-0.7339,-0.7469,-0.7498,-0.7502,-0.7502,-0.7502,-0.7502,-0.7464,-0.7464,-0.7464,-0.7425,-0.7417,-0.7041,-0.6098,-0.6047,-0.5651,-0.4729,-0.469,-0.469,-0.469,-0.469,-0.469,-0.469,-0.469,-0.469,-0.469,-0.469,-0.469,-0.4659,-0.4744,-0.4825,-0.4935,-0.4937,-0.4937,-0.4859,-0.4068,-0.3752,-0.3675,-0.2776,-0.2464,-0.2464,-0.2426,-0.1918,-0.1254,-0.1254,-0.0706,0.0,0.0,0.0,0.0,0.0,0.0,0.0,0.0,0.0,0.0,0.0,0.0157,0.0314,0.0314,0.0314,0.0393,0.055,0.0589,0.0589,0.0589,0.0589,0.0589,0.0589,0.0589,0.0589,0.0589,0.0589,0.0589,0.0589,0.0589,0.0589,0.0589,0.0589,0.0589,0.0589,0.0589,0.0628,0.0628,0.0628,0.0628,0.0628,0.0628,0.0628,0.0628,-0.0196,-0.1017,-0.1838,-0.1838,-0.1838,-0.6726,0.0,0.0,0.0,0.0,0.0,-0.5815,-0.5757,-0.5734,-0.6003,-0.5571,-0.5096,-0.5006,-0.493,-0.4947,-0.4968,-0.6052,-0.6916,-0.7116,-0.7075,-0.7111,-0.7464,-0.7387,-0.7084,-0.6623,-0.6546,-0.6318,0.0,-0.5613,-0.5428,-0.517,-0.5114,-0.4974,-0.469,-0.469,-0.469,-0.469,-0.469,-0.469,-0.469,-0.469,-0.469,-0.469,-0.469,-0.4398,-0.3896,-0.3922,-0.3638,-0.3244,-0.3883,-0.3754,-0.3169,-0.2934,-0.2854,-0.2776,-0.1918,-0.1644,-0.1528,-0.0902,-0.0549,-0.0353,-0.0353,-0.0196,0.0,0.0,0.0,0.0,0.0,0.0,0.0,0.0,0.0118,0.0236,0.0236,0.0353,0.055,0.0707,0.0746,0.0707,0.0628,0.0589,0.0589,0.0589,0.0589,0.0589,0.0589,0.0589,0.0589,0.0589,0.0589,0.0589,0.0589,0.0589,0.0589,0.0589,0.0589,0.0589,0.0589,0.0746,0.0825,0.0825,0.1021,0.11,0.11,0.11,0.11,0.11,0.0549,0.0157,-0.0078,-0.0078,-0.0078,-0.6463,-0.5997,-0.551,-0.4834,0.0,0.0,-0.4722,-0.4632,-0.4636,-0.5064,-0.4675,-0.4214,-0.4097,-0.3988,-0.3875,-0.376,-0.4637,-0.5479,-0.5862,-0.5832,-0.5883,-0.6192,-0.6118,-0.5931,-0.5586,-0.5586,-0.5395,-0.5015,-0.4866,-0.4752,-0.4686,-0.4569,-0.4542,-0.4542,-0.4542,-0.4542,-0.4542,-0.4542,-0.4364,-0.4079,-0.4399,-0.4222,-0.3622,-0.3937,-0.3657,-0.2959,-0.304,-0.2614,-0.1974,-0.2518,-0.2674,-0.2464,-0.2113,-0.1996,-0.1879,-0.1058,-0.0745,-0.0667,-0.0157,0.0,0.0,0.0,0.0,0.0,0.0118,0.0118,0.0157,0.0236,0.0236,0.0236,0.0236,0.0353,0.0432,0.0432,0.0589,0.0746,0.0864,0.0982,0.1021,0.0904,0.0904,0.0904,0.0904,0.0904,0.0904,0.0904,0.0904,0.0904,0.0904,0.0904,0.0904,0.0904,0.0904,0.0904,0.0904,0.0904,0.0904,0.0904,0.0991,0.1072,0.1061,0.123,0.131,0.1297,0.1296,0.1296,0.1296,0.1021,0.0904,0.0904,0.0904,0.0904,-0.6271,-0.5529,-0.4693,-0.4282,-0.3859,0.0,-0.3522,-0.3519,-0.3674,-0.4233,-0.4126,-0.3892,-0.3863,-0.3639,-0.3422,-0.3238,-0.3387,-0.3702,-0.4246,-0.4331,-0.4345,-0.4384,-0.4384,-0.4462,-0.4659,-0.4659,-0.474,-0.4937,-0.4825,-0.469,-0.4482,-0.4376,-0.4314,-0.43,-0.43,-0.4267,-0.4164,-0.4164,-0.3792,-0.3082,-0.3725,-0.3355,-0.2114,-0.2748,-0.2614,-0.1915,-0.2039,-0.1667,-0.0945,-0.1046,-0.1532,-0.2152,-0.1449,-0.1176,-0.1058,-0.0275,0.0,0.0039,0.0039,0.0039,0.0079,0.0079,0.0079,0.0118,0.0275,0.0314,0.0353,0.055,0.0589,0.0589,0.0589,0.0628,0.0628,0.0628,0.0786,0.0943,0.0943,0.1139,0.1296,0.1296,0.1296,0.1296,0.1296,0.1296,0.1296,0.1296,0.1296,0.1296,0.1296,0.1296,0.1296,0.1296,0.1296,0.1296,0.1296,0.1296,0.1298,0.1302,0.1288,0.1292,0.1308,0.1293,0.1293,0.1303,0.1298,0.1296,0.1296,0.1296,0.1296,0.1296,0.1296,0.1296,-0.528,-0.4911,-0.4519,-0.3714,-0.3292,0.0,-0.2981,-0.3053,-0.3177,-0.3404,-0.3398,-0.3382,-0.3487,-0.3457,-0.3396,-0.3382,-0.3428,-0.3582,-0.3871,-0.3899,-0.4036,-0.4345,-0.427,-0.4233,-0.4423,-0.4462,-0.4462,-0.4501,-0.4553,-0.447,-0.4279,-0.4381,-0.4395,-0.4303,-0.43,-0.4028,-0.3418,-0.3418,-0.305,-0.2313,-0.2347,-0.2213,-0.1945,-0.191,-0.1509,-0.0807,-0.083,-0.0456,0.0177,0.0223,-0.0038,-0.0471,-0.0314,-0.0235,-0.0235,-0.0079,0.0118,0.0236,0.0236,0.0353,0.0471,0.0471,0.0471,0.0471,0.051,0.055,0.055,0.0589,0.0589,0.0589,0.0589,0.0707,0.0825,0.0825,0.1021,0.1218,0.1218,0.1257,0.1296,0.1296,0.1296,0.1296,0.1296,0.1296,0.1296,0.1296,0.1296,0.1296,0.1296,0.1296,0.1296,0.1296,0.1296,0.1296,0.1296,0.1296,0.1307,0.1292,0.1299,0.1311,0.1288,0.1294,0.1284,0.1294,0.131,0.1296,0.1296,0.1296,0.1296,0.1296,0.1296,0.1296,-0.5033,-0.4536,-0.4051,-0.3568,0.0,0.0,0.0,-0.3039,-0.3125,-0.335,-0.3299,-0.3232,-0.3364,-0.3318,-0.3251,-0.3245,-0.3377,-0.3503,-0.3572,-0.3734,-0.388,-0.4073,-0.3997,-0.4038,-0.4231,-0.4231,-0.4249,-0.4313,-0.4336,-0.4274,-0.4113,-0.4154,-0.3993,-0.3562,-0.3515,-0.3155,-0.2412,-0.2412,-0.2044,-0.1309,-0.161,-0.1375,-0.0706,-0.094,-0.0672,0.0,0.0,0.0173,0.0492,0.0585,0.049,0.0309,0.0313,0.0314,0.0314,0.0314,0.0353,0.0432,0.0432,0.051,0.0589,0.0589,0.0589,0.0628,0.0707,0.0825,0.0943,0.0943,0.0943,0.0943,0.0943,0.1021,0.11,0.11,0.1218,0.1296,0.1296,0.1296,0.1296,0.1296,0.1296,0.1296,0.1296,0.1296,0.1296,0.1296,0.1296,0.1296,0.1296,0.1296,0.1303,0.1318,0.1306,0.1303,0.1319,0.132,0.1286,0.1301,0.133,0.1346,0.1305,0.1319,0.1355,0.1284,0.131,0.1303,0.1303,0.1287,0.1312,0.1296,0.1296,0.1296,-0.4884,-0.428,-0.3662,0.0,0.0,-0.309,0.0,0.0,0.0,-0.3365,-0.3281,-0.3169,-0.3248,-0.3166,0.0,-0.3085,0.0,0.0,0.0,-0.3602,0.0,-0.3752,-0.3752,-0.3797,-0.3971,-0.4012,-0.4026,-0.4118,-0.398,-0.3858,-0.3741,-0.3574,-0.3196,-0.2583,-0.2518,-0.2147,-0.1408,-0.1374,-0.104,-0.0303,-0.0873,-0.0538,0.0539,0.0034,0.0101,0.0606,0.0606,0.0614,0.0627,0.068,0.0698,0.0716,0.0621,0.0589,0.0589,0.0589,0.0628,0.0668,0.0668,0.0785,0.0982,0.0982,0.1059,0.1255,0.1412,0.1608,0.1765,0.1765,0.1765,0.1765,0.1765,0.1765,0.1765,0.1765,0.1765,0.1765,0.1765,0.1765,0.1765,0.1765,0.1649,0.1492,0.1335,0.1296,0.1296,0.1296,0.1296,0.1298,0.1305,0.1305,0.1317,0.1308,0.1289,0.1285,0.1309,0.1311,0.1313,0.1319,0.1364,0.1382,0.1323,0.1381,0.1379,0.1314,0.1309,0.1305,0.1305,0.1282,0.1299,0.1314,0.1308,0.1309,0.0,0.0,0.0,0.0,-0.3434,0.0,0.0,0.0,-0.2961,-0.2822,0.0,-0.2846,-0.2856,0.0,0.0,0.0,0.0,0.0,-0.3387,-0.3458,-0.353,-0.353,-0.353,-0.3558,-0.3634,-0.3642,-0.3709,-0.382,-0.325,-0.2825,-0.278,-0.2238,-0.1898,-0.1747,-0.1734,-0.1375,-0.0638,-0.0638,-0.0269,0.0404,0.0472,0.0607,0.0776,0.0875,0.0975,0.1042,0.1042,0.1044,0.1015,0.1044,0.1072,0.1104,0.0733,0.0589,0.0589,0.0589,0.0707,0.0864,0.0864,0.1492,0.2275,0.2275,0.282,0.3441,0.348,0.348,0.3519,0.3519,0.3519,0.3519,0.3519,0.3519,0.3519,0.3519,0.3519,0.3519,0.3519,0.3519,0.3519,0.3519,0.2898,0.2119,0.1414,0.1296,0.1296,0.1296,0.1296,0.1307,0.1294,0.1297,0.1309,0.1298,0.1298,0.1297,0.13,0.1301,0.1311,0.1378,0.1386,0.1401,0.138,0.1402,0.1388,0.1385,0.1318,0.1305,0.1305,0.1302,0.1299,0.1296,0.131,0.1312,0.0,0.0,0.0,0.0,0.0,0.0,-0.2836,0.0,-0.2824,0.0,0.0,0.0,0.0,0.0,0.0,0.0,-0.3132,0.0,0.0,0.0,-0.3381,-0.3487,0.0,0.0,-0.3548,-0.3143,-0.2933,-0.2965,-0.2297,-0.1887,-0.1849,-0.1533,-0.1176,-0.0752,-0.0697,-0.0307,0.0437,0.0437,0.0572,0.0841,0.0942,0.0976,0.0976,0.1076,0.1109,0.1109,0.1109,0.1109,0.1112,0.1108,0.1375,0.175,0.1593,0.1607,0.1645,0.1121,0.1627,0.25,0.2006,0.244,0.3248,0.3248,0.3521,0.3791,0.3791,0.3791,0.3791,0.3791,0.3791,0.3791,0.3791,0.3791,0.3791,0.3791,0.3791,0.3791,0.3791,0.3791,0.3791,0.3791,0.3521,0.3132,0.282,0.1961,0.1296,0.1296,0.1312,0.1288,0.1301,0.1318,0.1298,0.1369,0.1315,0.1312,0.1371,0.1372,0.1378,0.1389,0.1406,0.1422,0.139,0.1379,0.1416,0.1416,0.136,0.1355,0.1355,0.1338,0.1339,0.1354,0.1309,0.1294,-0.43,0.0,0.0,0.0,0.0,0.0,0.0,0.0,0.0,0.0,0.0,0.0,0.0,0.0,0.0,0.0,0.0,-0.2799,0.0,-0.2621,0.0,0.0,0.0,0.0,0.0,-0.2377,-0.2094,-0.2108,-0.1397,-0.0931,-0.0944,-0.0638,-0.026,0.0255,0.0284,0.0553,0.1109,0.1109,0.1109,0.1109,0.1109,0.1109,0.1109,0.1109,0.1109,0.1109,0.1109,0.121,0.138,0.1373,0.1807,0.2486,0.25,0.2736,0.2953,0.211,0.2582,0.3631,0.3002,0.3375,0.4183,0.4416,0.4496,0.4496,0.4496,0.4496,0.4496,0.4496,0.4496,0.4496,0.4496,0.4496,0.4496,0.4496,0.4496,0.4496,0.4496,0.4516,0.4535,0.4535,0.4402,0.4262,0.4262,0.3018,0.206,0.206,0.2061,0.2015,0.1739,0.1933,0.2011,0.1836,0.1773,0.1767,0.1794,0.1577,0.1533,0.1796,0.1556,0.1659,0.2194,0.1927,0.1928,0.2194,0.2194,0.2194,0.2194,0.2205,0.2206,0.2192,0.1598,0.1321,0.0,0.0,0.0,-0.3812,0.0,0.0,0.0,0.0,-0.3108,0.0,0.0,0.0,0.0,0.0,0.0,-0.2146,0.0,0.0,0.0,0.0,0.0,0.0,0.0,0.0,0.0,-0.1263,-0.1275,0.0,-0.0533,-0.0036,-0.0038,0.0703,0.1131,0.1166,0.1101,0.1072,0.1109,0.1109,0.1109,0.1109,0.1109,0.1109,0.1109,0.1109,0.1109,0.1109,0.1109,0.1478,0.208,0.2082,0.2525,0.3248,0.325,0.377,0.4442,0.3566,0.3366,0.3517,0.3475,0.4141,0.5121,0.5944,0.6222,0.6222,0.6222,0.6222,0.6222,0.6222,0.6222,0.6222,0.6222,0.6222,0.6222,0.6222,0.6222,0.6222,0.6222,0.6327,0.6424,0.6424,0.588,0.5427,0.5427,0.4596,0.3925,0.3925,0.4006,0.376,0.2849,0.3545,0.3794,0.2946,0.2862,0.2862,0.2864,0.1971,0.1836,0.2776,0.1927,0.2239,0.4111,0.3357,0.3267,0.4198,0.42,0.42,0.42,0.4196,0.4196,0.4152,0.2277,0.1404,0.0,0.0,-0.4226,-0.3903,0.0,0.0,0.0,0.0,0.0,0.0,0.0,0.0,0.0,0.0,-0.21,-0.1383,-0.1342,0.0,0.0,0.0,0.0,0.0,0.0,0.0,0.0,0.0,0.0,-0.0449,0.0279,0.0,0.0774,0.1042,0.1196,0.1196,0.1167,0.1136,0.1106,0.1086,0.1109,0.1109,0.1109,0.1109,0.1109,0.1109,0.1109,0.1109,0.1109,0.1244,0.1478,0.1913,0.2562,0.3296,0.377,0.4441,0.4974,0.3762,0.403,0.5045,0.5135,0.548,0.5906,0.6222,0.63,0.63,0.63,0.63,0.63,0.63,0.63,0.63,0.63,0.63,0.63,0.63,0.6371,0.6439,0.6439,0.6559,0.6624,0.6624,0.6455,0.628,0.628,0.6068,0.5521,0.4322,0.4181,0.4077,0.3763,0.4164,0.4301,0.3887,0.3935,0.3979,0.3846,0.3532,0.3443,0.3801,0.3487,0.3621,0.4287,0.3978,0.3978,0.4287,0.4289,0.4289,0.4289,0.4289,0.4289,0.4287,0.3638,0.2978,-0.43,-0.43,0.0,-0.4017,-0.3898,0.0,-0.3488,0.0,-0.3218,0.0,0.0,0.0,0.0,0.0,0.0,-0.0686,-0.0664,-0.0605,0.0,0.0101,0.0,0.0,0.0,-0.0302,0.0,0.0101,0.0403,0.0403,0.082,0.1118,0.0,0.1179,0.1196,0.1196,0.1213,0.1152,0.1086,0.1091,0.1109,0.1109,0.1109,0.1109,0.1109,0.1109,0.1244,0.1444,0.1444,0.1745,0.2281,0.2714,0.3337,0.4115,0.4588,0.5095,0.5412,0.4406,0.4786,0.583,0.604,0.6176,0.63,0.63,0.63,0.63,0.63,0.63,0.63,0.63,0.63,0.63,0.63,0.63,0.63,0.63,0.6409,0.6511,0.6511,0.6716,0.6906,0.6906,0.7035,0.7112,0.7112,0.72,0.6781,0.536,0.518,0.516,0.4899,0.5313,0.5492,0.5087,0.5176,0.5001,0.4467,0.4334,0.4423,0.4781,0.4467,0.4601,0.5267,0.4956,0.4956,0.5267,0.5312,0.5312,0.5312,0.5312,0.5312,0.5267,0.4956,0.4469]},{"header":{"parameterUnit":"m.s-1","parameterCategory":1,"la1":30.6,"la2":29.2853,"lo1":-89.7004,"lo2":-87.6739,"dy":0.0162,"dx":0.0183,"nx":112,"ny":82,"refTime":"2024-06-09T00:00:00:Z","depth":0,"parameterNumber":3,"parameterNumberName":"V-component_of_WINDS"},"data":[0.0,0.0,0.0,0.0,0.0,0.0,0.0,0.0,0.0,0.0,0.0,0.0,0.0,0.0,0.0,0.0,0.0,0.0,0.0,0.0,0.0,0.0,0.0,0.0,0.0,0.0,0.0,0.0,0.0,0.0,0.0,0.0,0.0,0.0,0.0,0.0,0.0,0.0,0.0,0.0,0.0,0.0,0.0,0.0,0.0,0.0,0.0,0.0,0.0,0.0,0.0,0.0,0.0,0.0,0.0,0.0,0.0,0.0,0.0,0.0,0.0,0.0,0.0,0.0,0.0,0.0,0.0,0.0,0.0,0.0,0.0,0.0,0.0,0.0,0.0,0.0,0.0,0.0,0.0,0.0,0.0,0.0,0.0,0.0,0.0,0.0,0.0,0.0,0.0,0.0,0.3203,0.3376,0.3356,0.3241,0.3037,0.2051,0.1378,0.1168,0.0,0.0,0.0,0.0,0.0,0.0,0.0,0.0,0.0,0.0,0.0,0.0,0.0,0.0,0.0,0.0,0.0,0.0,0.0,0.0,0.0,0.0,0.0,0.0,0.0,0.0,0.0,0.0,0.0,0.0,0.0,0.0,0.0,0.0,0.0,0.0,0.0,0.0,0.0,0.0,0.0,0.0,0.0,0.0,0.0,0.0,0.0,0.0,0.0,0.0,0.0,0.0,0.0,0.0,0.0,0.0,0.0,0.0,0.0,0.0,0.0,0.0,0.0,0.0,0.0,0.0,0.0,0.0,0.0,0.0,0.0,0.0,0.0,0.0,0.0,0.0,0.0,0.0,0.0,0.0,0.0,0.0,0.0,0.0,0.0,0.0,0.0,0.0,0.0,0.0,0.0,0.0,0.0,0.0,0.0,0.0,0.0,0.0,0.0,0.0,0.0,0.0,0.0,0.0,0.2199,0.1713,0.1684,0.1586,0.1383,0.0993,0.0658,0.0474,0.0,0.0,0.0,0.0,0.0,0.0,0.0,0.0,0.0,0.0,0.0,0.0,0.0,0.0,0.0,0.0,0.0,0.0,0.0,0.0,0.0,0.0,0.0,0.0,0.0,0.0,0.0,0.0,0.0,0.0,0.0,0.0,0.0,0.0,0.0,0.0,0.0,0.0,0.0,0.0,0.0,0.0,0.0,0.0,0.0,0.0,0.0,0.0,0.0,0.0,0.0,0.0,0.0,0.0,0.0,0.0,0.0,0.0,0.0,0.0,0.0,0.0,0.0,0.0,0.0,0.0,0.0,0.0,0.0,0.0,0.0,0.0,0.0,0.0,0.0,0.0,0.0,0.0,0.0,0.0,0.0,0.0,0.0,0.0,0.0,0.0,0.0,0.0,0.0,0.0,0.0,0.0,0.0,0.0,0.0,0.0,0.0,0.0,0.0,0.0,0.0,0.0,0.0,0.1876,0.1564,0.1329,0.131,0.1198,0.0959,0.0718,0.051,0.0328,0.0096,0.0,0.0,0.0,0.0,0.0,0.0,0.0,0.0,0.0,0.0,0.0,0.0,0.0,0.0,0.0,0.0,0.0,0.0,0.0,0.0,0.0,0.0,0.0,0.0,0.0,0.0,0.0,0.0,0.0,0.0,0.0,0.0,0.0,0.0,0.0,0.0,0.0,0.0,0.0,0.0,0.0,0.0,0.0,0.0,0.0,0.0,0.0,0.0,0.0,0.0,0.0,0.0,0.0,0.0,0.0,0.0,0.0,0.0,0.0,0.0,0.0,0.0,0.0,0.0,0.0,0.0,0.0,0.0,0.0,0.0,0.0,0.0,0.0,0.0,0.0,0.0,0.0,0.0,0.0,0.0,0.0,0.0,0.0,0.0,0.0,0.0,0.0,0.0,0.0,0.0,0.0,0.0,0.0,0.0,0.0,0.0,0.0,0.0,0.0,0.0,0.0,0.0,0.1187,0.1215,0.1292,0.1296,0.1218,0.1021,0.0751,0.0546,0.0364,0.0125,0.0,0.0,0.0,0.0,0.0,0.0,0.0,0.0,0.0,0.0,0.0,0.0,0.0,0.0,0.0,0.0,0.0,0.0,0.0,0.0,0.0,0.0,0.0,0.0,0.0,0.0,0.0,0.0,0.0,0.0,0.0,0.0,0.0,0.0,0.0,0.0,0.0,0.0,0.0,0.0,0.0,0.0,0.0,0.0,0.0,0.0,0.0,0.0,0.0,0.0,0.0,0.0,0.0,0.0,0.0,0.0,0.0,0.0,0.0,0.0,0.0,0.0,0.0,0.0,0.0,0.0,0.0,0.0,0.0,0.0,0.0,0.0,0.0,0.0,0.0,0.0,0.0,0.0,0.0,0.0,0.0,0.0,0.0,0.0,0.0,0.0,0.0,0.0,0.0,0.0,0.0,0.0,0.0,0.0,0.0,0.0,0.0,0.0,0.0,0.0,0.0,0.0,0.1205,0.1229,0.129,0.1296,0.1296,0.1257,0.0863,0.0583,0.0583,0.0224,0.0,0.0,0.0,0.0,0.0,0.0,0.0,0.0,0.0,0.0,0.0,0.0,0.0,0.0,0.0,0.0,0.0,0.0,0.0,0.0,0.0,0.0,0.0,0.0,0.0,0.0,0.0,0.0,0.0,0.0,0.0,0.0,0.0,0.0,0.0,0.0,0.0,0.0,0.0,0.0,0.0,0.0,0.0,0.0,0.0,0.0,0.0,0.0,0.0,0.0,0.0,0.0,0.0,0.0,0.0,0.0,0.0,0.0,0.0,0.0,0.0,0.0,0.0,0.0,0.0,0.0,0.0,0.0,0.0,0.0,0.0,0.0,0.0,0.0,0.0,0.0,0.0,0.0,0.0,0.0,0.0,0.0,0.0,0.0,0.0,0.0,0.0,0.0,0.0,0.0,0.0,0.0,0.0,0.0,0.0,0.0,0.0,0.0,0.0,0.0,0.0,0.0,0.1191,0.122,0.1224,0.1285,0.1288,0.123,0.0967,0.0719,0.0592,0.0,0.0,0.0,0.0,0.0,0.0,0.0,0.0,0.0,0.0,0.0,0.0,0.0,0.0,0.0,0.0,0.0,0.0,0.0,0.0,0.0,0.0,0.0,0.0,0.0,0.0,0.0,0.0,0.0,0.0,0.0,0.0,0.0,0.0,0.0,0.0,0.0,0.0,0.0,0.0,0.0,0.0,0.0,0.0,0.0,0.0,0.0,0.0,0.0,0.0,0.0,0.0,0.0,0.0,0.0,0.0,0.0,0.0,0.0,0.0,0.0,0.0,0.0,0.0,0.0,0.0,0.0,0.0,0.0,0.0,0.0,0.0,0.0,0.0,0.0,0.0,0.0,0.0,0.0,0.0,0.0,0.0,0.0,0.0,0.0,0.0,0.0,0.0,0.0,0.0,0.0,0.0,0.0,0.0,0.0,0.0,0.0,0.0,0.0,0.0,0.0,0.0,0.115,0.1127,0.1164,0.1194,0.1254,0.1258,0.1199,0.0979,0.0803,0.0667,0.0,0.0,0.0,0.0,0.0,0.0,0.0,0.0,0.0,0.0,0.0,0.0,0.0,0.0,0.0,0.0,0.0,0.0,0.0,0.0,0.0,0.0,0.0,0.0,0.0,0.0,0.0,0.0,0.0,0.0,0.0,0.0,0.0,0.0,0.0,0.0,0.0,0.0,0.0,0.0,0.0,0.0,0.0,0.0,0.0,0.0,0.0,0.0,0.0,0.0,0.0,0.0,0.0,0.0,0.0,0.0,0.0,0.0,0.0,0.0,0.0,0.0,0.0,0.0,0.0,0.0,0.0,0.0,0.0,0.0,0.0,0.0,0.0,0.0,0.0,0.0,0.0,0.0,0.0,0.0,0.0,0.0,0.0,0.0,0.0,0.0,0.0,0.0,0.0,0.0,0.0,0.0,0.0,0.0,0.0,0.0,0.0,0.0,0.0,0.0,0.0,0.0,0.1089,0.1051,0.1132,0.1199,0.1203,0.1203,0.1203,0.0939,0.0799,0.0,0.0,0.0,0.0,0.0,0.0,0.0,0.0,0.0,0.0,0.0,0.0,0.0,0.0,0.0,0.0,0.0,0.0,0.0,0.0,0.0,0.0,0.0,0.0,0.0,0.0,0.0,0.0,0.0,0.0,0.0,0.0,0.0,0.0,0.0,0.0,0.0,0.0,0.0,0.0,0.0,0.0,0.0,0.0,0.0,0.0,0.0,0.0,0.0,0.0,0.0,0.0,0.0,0.0,0.0,0.0,0.0,0.0,0.0,0.0,0.0,0.0,0.0,0.0,0.0,0.0,0.0,0.0,0.0,0.0,0.0,0.0,0.0,0.0,0.0,0.0,0.0,0.0,0.0,0.0,0.0,0.0,0.0,0.0,0.0,0.0,0.0,0.0,0.0,0.0,0.0,0.0,0.0,0.0,0.0,0.0,0.0,0.0,0.0,0.0,0.0,0.0,0.0,0.1056,0.1053,0.1101,0.1131,0.1189,0.1194,0.1136,0.1064,0.0915,0.0731,0.0,0.0,0.0,0.0,0.0,0.0,0.0,0.0,0.0,0.0,0.0,0.0,0.0,0.0,0.0,0.0,0.0,0.0,0.0,0.0,0.0,0.0,0.0,0.0,0.0,0.0,0.0,0.0,0.0,0.0,0.0,0.0,0.0,0.0,0.0,0.0,0.0,0.0,0.0,0.0,0.0,0.0,0.0,0.0,0.0,0.0,0.0,0.0,0.0,0.0,0.0,0.0,0.0,0.0,0.0,0.0,0.0,0.0,0.0,0.0,0.0,0.0,0.0,0.0,0.0,0.0,0.0,0.0,0.0,0.0,0.0,0.0,0.0,0.0,0.0,0.0,0.0,0.0,0.0,0.0,0.0,0.0,0.0,0.0,0.0,0.0,0.0,0.0,0.0,0.0,0.0,0.0,0.0,0.0,0.0,0.0,0.0,0.0,0.0,0.0,0.0,0.0,0.1064,0.1046,0.107,0.1099,0.1119,0.1158,0.1104,0.1065,0.0981,0.0799,0.0,0.0,0.0,0.0,0.0,0.0,0.0,0.0,0.0,0.0,0.0,0.0,0.0,0.0,0.0,0.0,0.0,0.0,0.0,0.0,0.0,0.0,0.0,0.0,0.0,0.0,0.0,0.0,0.0,0.0,0.0,0.0,0.0,0.0,0.0,0.0,0.0,0.0,0.0,0.0,0.0,0.0,0.0,0.0,0.0,0.0,0.0,0.0,0.0,0.0,0.0,0.0,0.0,0.0,0.0,0.0,0.0,0.0,0.0,0.0,0.0,0.0,0.0,0.0,0.0,0.0,0.0,0.0,0.0,0.0,0.0,0.0,0.0,0.0,0.0,0.0,0.0,0.0,0.0,0.0,0.0,0.0,0.0,0.0,0.0,0.0,0.0,0.0,0.0,0.0,0.0,0.0,0.0,0.0,0.0,0.0,0.0,0.0,0.0,0.0,0.0,0.0,0.1065,0.1038,0.1042,0.1106,0.1109,0.1109,0.1109,0.1054,0.0975,0.0915,0.0,0.0,0.0,0.0,0.0,0.0,0.0,0.0,0.0,0.0,0.0,0.0,0.0,0.0,0.0,0.0,0.0,0.0,0.0,0.0,0.0,0.0,0.0,0.0,0.0,0.0,0.0,0.0,0.0,0.0,0.0,0.0,0.0,0.0,0.0,0.0,0.0,0.0,0.0,0.0,0.0,0.0,0.0,0.0,0.0,0.0,0.0,0.0,0.0,0.0,0.0,0.0,0.0,0.0,0.0,0.0,0.0,0.0,0.0,0.0,1.1511,0.0,0.0,0.0,0.0,0.0,0.0,0.0,0.0,0.0,0.0,0.0,0.0,0.0,0.0,0.0,0.0,0.0,0.0,0.0,0.0,0.0,0.0,0.0,0.0,0.0,0.0,0.0,0.0,0.0,0.0,0.0,0.0,0.0,0.0,0.0,0.0,0.0,0.0,0.0,0.0,0.0,0.0981,0.1062,0.1146,0.1104,0.1109,0.1109,0.1109,0.1054,0.0975,0.0915,0.0804,0.0,0.0,0.0,0.0,0.0,0.0,0.0,0.0,0.0,0.0,0.0,0.0,0.0,0.0,0.0,0.0,0.0,0.0,0.0,0.0,0.0,0.0,0.0,0.0,0.0,0.0,0.0,0.0,0.0,0.0,0.0,0.0,0.0,0.0,0.0,0.0,0.0,0.0,0.0,0.0,0.0,0.0,0.0,0.0,0.0,0.0,0.0,0.0,0.0,0.0,0.0,0.0,0.0,0.0,0.0,0.0,0.0,0.0,0.0,0.0,1.1621,0.0,0.0,0.0,0.0,0.0,0.0,0.0,0.0,0.0,0.0,0.0,0.0,0.0,0.0,0.0,0.0,0.0,0.0,0.0,0.0,0.0,0.0,0.0,0.0,0.0,0.0,0.0,0.0,0.0,0.0,0.0,0.0,0.0,0.0,0.0,0.0,0.0,0.0,0.0,0.0,0.1251,0.1303,0.1295,0.1203,0.121,0.1176,0.1109,0.1054,0.0982,0.0936,0.0879,0.0,0.0,0.0,0.0,0.0,0.0,0.0,0.0,0.0,0.0,0.0,0.0,0.0,0.0,0.0,0.0,0.0,0.0,0.0,0.0,0.0,0.0,0.0,0.0,0.0,0.0,0.0,0.0,0.0,0.0,0.0,0.0,0.0,0.0,0.0,0.0,0.0,0.0,0.0,0.0,0.0,0.0,0.0,0.0,0.0,0.0,0.0,0.0,0.0,0.0,0.0,0.0,0.0,1.3492,1.3484,1.3426,1.3375,1.3345,1.3323,1.3001,1.2482,1.188,1.1486,0.0,0.0,0.0,0.0,0.0,0.0,0.0,0.0,0.0,0.0,0.0,0.0,0.0,0.0,0.0,0.0,0.0,0.0,0.0,0.0,0.0,0.0,0.0,0.0,0.7008,0.6948,0.635,0.0,0.0,0.0,0.0,0.0,0.0,0.0,0.0,0.0,0.0,0.0,0.1587,0.1558,0.1493,0.1371,0.1344,0.1311,0.121,0.1118,0.1081,0.105,0.0987,0.0932,0.0,0.0,0.0,0.0,0.0,0.0,0.0,0.0,0.0,0.0,0.0,0.0,0.0,0.0,0.0,0.0,0.0,0.0,0.0,0.0,0.0,0.0,0.0,0.0,0.0,0.0,0.0,0.0,0.0,0.0,0.0,0.0,1.4752,1.5122,0.0,0.0,0.0,0.0,0.0,0.0,0.0,0.0,0.0,0.0,0.0,0.0,0.0,1.3996,1.3726,1.4604,1.5024,1.5075,1.5401,1.5387,1.5061,1.4776,1.4652,1.463,1.4355,0.0,1.2224,1.2275,0.0,0.0,0.0,0.0,0.0,0.0,0.0,0.0,0.0,0.0,0.0,0.0,0.0,0.0,0.0,0.0,0.0,0.0,0.0,0.0,0.0,0.0,0.7664,0.7659,0.78,0.7852,0.0,0.6898,0.6128,0.5569,0.5113,0.0,0.0,0.0,0.0,0.0,0.0,0.0,0.1523,0.1669,0.172,0.1575,0.1547,0.1547,0.1547,0.1469,0.1391,0.1266,0.1157,0.1012,0.0905,0.0845,0.0,0.0,0.0,0.0,0.0,0.0,0.0,0.0,0.0,0.0,0.0,0.0,0.0,0.0,0.0,0.0,0.0,0.0,0.0,0.0,0.0,0.0,0.0,0.0,0.0,0.0,0.0,0.0,0.0,1.6322,1.6565,1.6637,1.6249,1.5749,0.0,0.0,0.0,0.0,0.0,0.0,0.0,0.0,0.0,1.5497,1.654,1.6699,1.5868,1.6434,1.6501,1.5957,1.6104,1.6096,1.595,1.5811,1.565,1.544,1.5343,1.471,1.3716,1.2955,1.2323,1.1746,0.0,0.0,0.0,0.0,1.1642,1.1706,1.1924,1.1912,1.1772,1.1489,0.0,0.0,0.0,0.0,0.0,0.0,0.0,0.0,0.0,0.0,0.7981,0.8103,0.8198,0.8236,0.8151,0.7629,0.6931,0.0,0.5102,0.4299,0.3651,0.0,0.0,0.0,0.0,0.1783,0.1776,0.1899,0.1922,0.1777,0.1783,0.1704,0.1545,0.1519,0.1472,0.1356,0.1591,0.1699,0.1643,0.1928,0.2212,0.0,0.0,0.0,0.0,0.0,0.0,0.0,0.0,0.0,0.0,0.0,0.0,0.0,0.0,0.0,0.0,0.0,0.0,0.0,0.0,0.0,0.0,0.0,0.0,0.0,0.0,0.0,0.0,1.7966,1.7907,1.7745,1.7563,1.719,0.0,0.0,0.0,0.0,0.0,0.0,1.7211,1.7941,1.8167,1.7822,1.8858,1.8935,1.7939,1.8254,1.8045,1.736,1.736,1.736,1.7353,1.7313,1.6967,1.6361,1.6322,1.5794,1.4936,1.3738,1.3049,1.2667,1.2058,1.1811,1.1833,1.2164,1.2138,1.2031,1.2482,1.2456,1.2215,1.2006,1.1745,1.1341,1.0763,0.0,0.0,0.0,0.0,0.9595,0.9253,0.8808,0.8499,0.8466,0.8481,0.8463,0.8411,0.7977,0.7348,0.0,0.5534,0.4755,0.425,0.0,0.0,0.0,0.0,0.2163,0.2262,0.2175,0.2104,0.1981,0.1985,0.1896,0.1679,0.1632,0.1645,0.1681,0.2052,0.2322,0.2432,0.2857,0.3258,0.3603,0.0,0.0,0.0,0.0,0.0,0.0,0.0,0.0,0.0,0.0,0.0,0.0,0.0,0.0,0.0,0.0,0.0,0.0,0.0,0.0,0.0,0.0,0.0,0.0,0.0,0.0,0.0,0.0,0.0,1.806,1.8122,0.0,0.0,0.0,0.0,1.8174,1.818,1.8333,1.8665,1.9031,1.9078,1.8754,1.9402,1.9738,1.9668,1.9947,2.0045,2.0,2.0,2.0,1.9983,1.9768,1.8921,1.7691,1.7451,1.6572,1.5309,1.4677,1.4201,1.3843,1.3192,1.2936,1.2901,1.2958,1.295,1.2943,1.2972,1.2972,1.2958,1.2943,1.2716,1.2353,1.2003,1.1347,0.0,0.0,1.0568,1.0074,0.968,0.956,0.9374,0.8826,0.8685,0.8633,0.8444,0.7749,0.7129,0.0,0.6944,0.643,0.5389,0.0,0.49,0.414,0.3444,0.3041,0.3051,0.254,0.2183,0.2188,0.2188,0.2163,0.2068,0.2007,0.2097,0.2439,0.2474,0.2651,0.3035,0.3086,0.3118,0.3121,0.3363,0.0,0.0,0.0,0.0,0.0,0.0,0.0,0.0,0.0,0.0,0.0,0.0,0.0,0.0,0.0,0.0,0.0,0.0,0.0,0.0,0.0,0.0,0.0,0.0,0.0,0.0,0.0,0.0,2.1072,2.0708,0.0,1.9966,1.992,2.0028,2.0397,2.0399,2.0544,2.0782,2.1173,2.1294,2.1175,2.1676,2.1616,2.1033,2.1123,2.0827,2.0187,2.0187,2.0187,2.0187,2.0095,1.9696,1.9077,1.8995,1.8378,1.7432,1.7221,1.6141,1.456,1.4121,1.399,1.399,1.399,1.399,1.399,1.399,1.3814,1.3565,1.3148,1.2755,1.247,1.2353,1.2097,1.1909,1.2223,1.1785,1.1246,1.1307,1.0966,1.0361,0.9631,0.9463,0.9329,0.8722,0.8263,0.7929,0.7966,0.7138,0.6362,0.6045,0.5797,0.5315,0.4427,0.4122,0.3945,0.382,0.3657,0.3556,0.3556,0.3556,0.3455,0.3263,0.325,0.3218,0.322,0.3566,0.3846,0.3984,0.4346,0.4515,0.4514,0.452,0.4384,0.0,0.0,0.0,0.0,0.0,0.0,0.0,0.0,0.0,0.0,0.0,0.0,0.0,0.0,0.0,0.0,0.0,0.0,0.0,0.0,0.0,0.0,0.0,0.0,0.0,2.1606,2.1505,2.2718,2.2387,2.1916,2.1522,2.1778,2.2016,2.2231,2.2251,2.2329,2.2537,2.2781,2.2939,2.2939,2.3215,2.3038,2.2413,2.2325,2.2006,2.14,2.1266,2.123,2.132,2.123,2.0838,2.0254,2.0254,1.9642,1.8587,1.8587,1.7614,1.5972,1.5323,1.4894,1.4626,1.4626,1.4599,1.4511,1.4511,1.4291,1.3946,1.3477,1.3119,1.2848,1.2848,1.2848,1.2892,1.3111,1.2771,1.2346,1.2325,1.1892,1.1298,1.0513,1.0105,0.9771,0.9236,0.8783,0.85,0.85,0.7535,0.6742,0.6751,0.651,0.6026,0.529,0.5068,0.4871,0.4649,0.4465,0.435,0.432,0.4287,0.4191,0.3924,0.3903,0.3889,0.3894,0.4267,0.4574,0.477,0.5105,0.5297,0.5297,0.5173,0.4905,0.4497,0.0,0.0,0.0,0.0,0.0,0.0,0.0,0.0,0.0,0.0,0.0,0.0,0.0,0.0,0.0,0.0,0.0,0.0,0.0,0.0,0.0,0.0,0.0,2.241,2.2903,2.3108,2.2799,2.308,2.2903,2.2011,2.2697,2.333,2.3512,2.3501,2.36,2.3767,2.3797,2.3797,2.3797,2.3797,2.3797,2.3797,2.3634,2.3634,2.3797,2.3353,2.3276,2.3503,2.3232,2.2457,2.1281,2.1281,2.0301,1.8728,1.8728,1.8577,1.8218,1.6827,1.5768,1.4988,1.4995,1.4837,1.4611,1.4565,1.4352,1.4079,1.4027,1.377,1.3506,1.3499,1.3492,1.3492,1.3492,1.3492,1.3309,1.2526,1.2342,1.212,1.1335,1.0556,0.9954,0.9922,0.9273,0.8737,0.8703,0.8207,0.7757,0.7557,0.7345,0.7101,0.6773,0.6272,0.0,0.5477,0.4942,0.4514,0.4386,0.4386,0.4257,0.3986,0.3964,0.413,0.4508,0.4546,0.4767,0.5297,0.5329,0.5329,0.5301,0.5173,0.4909,0.4517,0.0,0.0,0.0,0.0,0.0,0.0,0.0,0.0,0.0,0.0,0.0,0.0,0.0,0.0,0.0,0.0,0.0,0.0,0.0,0.0,0.0,2.3145,2.4867,2.4727,2.4381,2.4661,2.6049,2.5296,2.4643,2.4719,2.4367,2.4092,2.4002,2.4023,2.3935,2.3787,2.3797,2.3797,2.3797,2.3797,2.3797,2.3797,2.3754,2.3754,2.3797,2.3667,2.3667,2.3711,2.3624,2.3424,2.3079,2.3079,2.2461,2.1414,2.1414,2.0638,1.9325,1.8179,1.7658,1.7578,1.7426,1.7328,1.7131,1.6245,1.5905,1.563,1.4395,1.3923,1.3806,1.3565,1.3492,1.3492,1.3492,1.3492,1.3455,1.3236,1.3156,1.2973,1.2157,1.1781,1.1335,1.0143,0.9728,0.9387,0.8813,0.8321,0.7999,0.7929,0.763,0.733,0.7101,0.6937,0.0,0.6511,0.6342,0.6178,0.6046,0.6042,0.5843,0.5396,0.5423,0.5428,0.5313,0.5403,0.5517,0.5658,0.5658,0.5626,0.5513,0.5253,0.5057,0.0,0.0,0.0,0.0,0.0,0.0,0.0,0.0,0.0,0.0,0.0,0.0,0.0,0.0,0.0,0.0,0.0,0.0,0.0,0.0,0.0,0.0,2.4957,2.6739,2.7056,2.6366,2.6237,2.745,2.6325,2.5524,2.5797,2.502,2.4454,2.4325,2.4335,2.4239,2.41,2.41,2.41,2.41,2.41,2.41,2.41,2.4024,2.4024,2.41,2.3884,2.3841,2.398,2.3841,2.3797,2.3797,2.3797,2.3406,2.2794,2.2562,2.1859,0.0,0.0,0.0,0.0,0.0,1.8412,1.8337,1.7604,1.7088,1.6504,1.5528,1.4851,1.4387,1.4052,1.3948,1.3925,1.3682,1.3645,1.3608,1.3528,1.3492,1.3382,1.29,1.2562,1.204,1.1111,1.0625,1.0175,0.9349,0.9088,0.0,0.8569,0.7967,0.7423,0.7232,0.7265,0.7232,0.6946,0.6979,0.6975,0.6811,0.6778,0.6625,0.6269,0.6233,0.0,0.0,0.0,0.5795,0.5795,0.6009,0.0,0.0,0.0,0.0,0.0,0.0,0.0,0.0,0.4998,0.4942,0.0,0.0,0.0,0.0,0.0,0.0,0.0,0.0,0.0,0.0,0.0,0.0,0.0,0.0,0.0,0.0,2.6854,2.8178,2.9147,2.8472,2.7883,2.7857,2.6812,2.611,2.611,2.5221,2.4658,2.4658,2.454,2.4497,2.4497,0.0,0.0,0.0,0.0,2.4497,2.4497,2.4335,2.4335,2.4497,2.4057,2.4013,2.4249,2.398,2.3884,2.3884,2.3884,2.3642,2.3241,2.2755,2.2392,2.2024,2.0654,1.965,1.8921,1.896,1.896,1.8921,1.8793,0.0,0.0,1.7089,1.6249,1.525,1.4976,1.4748,1.45,1.4099,1.3899,1.379,1.3601,1.3564,1.3564,1.3564,1.301,1.2452,1.2342,1.1744,1.0999,1.018,1.0197,1.0136,0.9408,0.842,0.7652,0.7493,0.7619,0.7591,0.7237,0.7363,0.7396,0.7204,0.0,0.0,0.6822,0.6739,0.6543,0.6229,0.6119,0.6037,0.6037,0.6485,0.6723,0.6723,0.7224,0.7492,0.7492,0.7492,0.7182,0.6549,0.5477,0.5099,0.0,0.0,0.0,0.0,0.0,0.0,0.0,0.0,0.0,0.0,0.0,0.0,0.0,0.0,0.0,2.6828,2.8298,2.945,2.9669,2.9781,2.9732,2.941,2.856,2.7971,2.7971,2.6483,2.5537,2.5537,2.4903,2.4497,2.4497,2.4497,2.4497,2.4497,2.4497,2.4497,2.4497,2.4454,2.4454,2.4497,0.0,0.0,2.4454,2.4368,2.4368,2.4368,2.4368,2.4164,2.3711,2.3248,2.2618,2.1855,2.1561,2.1213,2.0982,2.1126,2.1088,2.0857,2.0119,1.975,1.9385,1.824,1.7286,1.6544,1.6553,1.5622,0.0,1.4881,1.4489,1.4029,1.3985,1.3992,1.3992,1.3992,1.3739,1.3346,1.2673,1.2298,1.1818,1.1037,1.0773,1.0658,1.0515,0.9704,0.9102,0.9069,0.9102,0.9069,0.9005,0.9037,0.9,0.886,0.8828,0.8478,0.7565,0.8061,0.8001,0.7035,0.7313,0.7503,0.7503,0.7477,0.7482,0.7482,0.7498,0.7492,0.7492,0.7492,0.7568,0.7678,0.6595,0.5891,0.0,0.0,0.0,0.0,0.0,0.0,0.0,0.0,0.0,0.0,0.0,2.5884,2.6321,0.0,2.8164,2.8634,2.958,3.0258,3.0258,3.034,3.0292,2.9972,2.9197,2.8633,2.8502,2.6853,2.5777,2.5777,2.4978,2.4497,2.4497,2.4497,2.4497,2.4497,2.4497,2.4497,2.4497,2.4497,2.4497,2.4497,2.4497,2.4497,2.4497,2.4497,2.4497,2.4497,2.4497,2.4373,2.4157,2.3474,2.2646,2.1807,2.1807,2.1731,2.1655,2.1769,2.1731,2.1578,2.1165,2.0721,2.0217,1.9522,1.8758,1.803,1.7647,1.7,1.6223,1.556,1.5081,1.4689,1.4238,1.4093,1.4093,1.4093,1.4029,1.3855,1.3441,1.3258,1.2922,1.204,1.1949,1.1886,1.1388,1.1124,1.0725,0.9872,0.9602,0.9486,0.9486,0.9486,0.9486,0.9416,0.941,0.9171,0.8633,0.873,0.851,0.7847,0.7858,0.7898,0.7898,0.8117,0.8249,0.8249,0.8448,0.8554,0.8554,0.8724,0.8711,0.849,0.8121,0.7427,0.0,0.0,0.0,0.0,0.0,0.0,0.0,2.5774,2.6612,2.748,2.7938,2.8284,2.876,2.9207,2.964,3.0179,3.055,3.0773,3.0773,3.0609,3.0444,3.0228,2.9548,2.9028,2.8819,2.7342,2.6276,2.6069,2.5263,2.47,2.4497,2.4497,2.4497,2.4497,2.4497,2.4497,2.4497,2.4497,2.4497,2.4497,2.4497,2.4497,2.4497,2.4497,2.4497,2.4497,2.4497,2.4394,2.4177,2.3484,2.2646,2.1807,2.1807,2.1807,2.1807,2.1807,2.1807,2.1807,2.1807,2.1328,2.0741,2.0741,2.0168,1.9329,1.8704,1.8285,1.7697,1.636,1.5877,1.5569,1.4661,1.4446,1.4374,1.4238,1.4165,1.4165,1.4165,1.4129,1.3876,1.3039,1.3208,1.3203,1.2372,1.2506,1.2178,1.0631,1.0153,0.9963,0.9907,0.9901,0.9901,0.9901,0.9901,0.9901,0.9901,0.9345,0.8941,0.8842,0.8503,0.83,0.8243,0.8692,0.8955,0.8955,0.9437,0.9709,0.9709,1.0038,0.9917,0.942,0.9633,0.8992,2.2601,2.2445,2.333,2.5025,2.5475,2.6383,0.0,2.982,2.9581,3.144,3.0899,3.0256,3.0785,3.0419,3.0192,3.079,3.0947,3.0986,3.0986,3.0949,3.0874,3.066,3.0381,3.0139,2.996,2.9028,2.8051,2.7028,2.6163,2.5306,2.454,2.4497,2.4497,2.4497,2.4497,2.4497,2.4497,2.4497,2.4497,2.4497,2.4497,2.4497,2.4497,2.4497,2.4497,2.4497,2.4497,2.4042,2.3329,2.3225,2.2646,2.1807,2.1807,2.1807,2.1807,2.1807,2.1807,2.1807,2.1807,2.1731,2.1645,2.1645,2.0837,1.9855,2.006,1.8913,1.7512,1.7684,1.7242,1.6585,1.5824,1.5621,1.5444,1.4705,1.4461,1.4353,1.4353,1.4245,1.4057,1.3949,1.3954,1.3968,1.3852,1.3631,1.3096,1.196,1.1739,1.1618,1.1401,1.1373,1.1373,1.1373,1.1373,1.1373,1.1373,1.0493,1.0052,1.0351,1.0028,0.9726,0.9413,0.9484,0.951,0.951,0.9873,1.0046,1.0046,1.0375,1.0653,1.0849,1.0729,0.9842,2.4558,2.4274,2.4513,2.6106,2.7034,2.8102,3.0154,3.0788,3.1263,3.2326,3.207,3.1633,3.1706,3.1133,3.0712,3.0947,3.0986,3.0986,3.0986,3.0986,3.0986,3.0874,3.0798,3.0634,3.0305,2.9496,2.8767,2.8319,2.7452,2.6789,2.6431,2.6431,2.6431,2.6431,2.6431,2.6431,2.6431,2.6431,2.6359,2.6257,2.6257,2.5966,2.5485,2.5485,2.5051,2.4304,2.3909,2.3536,2.3163,2.2904,2.2563,2.218,2.1911,2.1807,2.1807,2.1807,2.1807,2.1807,2.1807,2.1807,2.1807,2.1807,2.1261,2.0579,2.0458,1.9641,1.87,1.8164,1.7799,1.7276,1.6105,1.6105,1.6245,1.548,1.5578,1.5754,1.5303,1.5161,1.4911,1.4389,1.4281,1.4245,1.4129,1.379,1.3347,1.2736,1.2455,1.2247,1.1917,1.1903,1.184,1.1716,1.1654,1.1591,1.1591,1.1054,1.0672,1.0609,1.028,0.9958,0.9629,0.9588,0.9702,0.9892,1.0031,1.0192,1.0382,1.074,1.0968,1.1107,1.1207,1.0856,2.6026,2.5962,2.5993,2.7281,2.8601,2.978,3.0627,3.1584,3.24,3.2864,3.2759,3.2539,3.2324,3.164,3.1061,3.106,3.1061,3.0986,3.0986,3.0986,3.0986,3.0986,3.0986,3.0874,3.0596,2.9922,2.9406,2.9121,2.8505,2.8044,2.7792,2.7792,2.7792,2.7792,2.7792,2.7792,2.7792,2.7792,2.7723,2.7585,2.7585,2.7261,2.6618,2.6483,2.5869,2.4876,2.4049,2.3722,2.376,2.3193,2.2903,2.2745,2.266,2.2344,2.1987,2.2203,2.2052,2.1807,2.1807,2.1807,2.1807,2.1807,2.1404,2.0829,2.0488,2.0027,1.9431,1.8542,1.8307,1.8003,1.6733,1.6793,1.7001,1.628,1.6524,1.6759,1.621,1.6105,1.5833,1.4955,1.4784,1.4669,1.431,1.4065,1.3826,1.3548,1.3363,1.2981,1.2197,1.2096,1.2027,1.1903,1.1809,1.1716,1.1654,1.1608,1.1331,1.077,1.0831,1.0681,1.0166,1.0302,1.0516,1.0771,1.0836,1.1012,1.1259,1.1605,1.1766,1.1781,1.2028,1.205,2.6224,2.6773,2.7461,2.8797,3.0038,3.1283,3.2604,3.2922,3.3135,3.3728,3.3302,3.2774,3.2801,3.1958,3.1289,3.1278,3.1123,3.0986,3.0986,3.0986,3.0986,3.0986,3.0986,3.0986,3.0986,3.0761,3.0216,2.916,2.9081,2.8703,2.7844,2.7792,2.7792,2.7792,2.7792,2.7792,2.7792,2.7792,2.7792,2.7792,2.7792,2.7804,2.774,2.7167,2.6854,2.6729,2.5413,2.5031,2.5275,2.4491,2.3873,2.3537,2.4313,2.3708,2.2467,2.3169,2.2734,2.1807,2.1807,2.1807,2.1807,2.1807,2.1186,2.0405,2.0395,1.9799,1.9119,1.9075,1.9075,1.8898,1.8138,1.7935,1.7799,1.7035,1.6862,1.6897,1.6862,1.6862,1.6664,1.5903,1.5762,1.5515,1.4713,1.4829,1.4934,1.4585,1.4762,1.425,1.2344,1.2096,1.2096,1.2089,1.2089,1.1996,1.1809,1.2366,1.227,1.1167,1.2243,1.2512,1.1571,1.2097,1.2429,1.2438,1.2743,1.2911,1.292,1.3275,1.3433,1.3433,1.3442,1.345,2.7535,2.8292,2.9076,3.0356,3.0979,3.1508,3.2412,3.2964,3.3303,3.3417,3.3201,3.2974,3.2815,3.2092,3.1492,3.1512,3.1449,3.141,3.141,3.141,3.1373,3.1198,3.1198,3.1161,3.1024,3.0949,3.0748,3.0394,3.0343,3.0216,2.9935,2.9935,2.9935,2.9935,2.9935,2.9935,2.9935,2.9935,2.9858,2.9716,2.8739,2.8246,2.821,2.6745,2.6089,2.6054,2.5166,2.5026,2.5339,2.478,2.4624,2.474,2.4729,2.4385,2.3963,2.4205,2.3734,2.2883,2.2354,2.2214,2.2214,2.2214,2.1555,2.0761,2.0634,1.9962,1.9208,1.9142,1.9108,1.8931,1.8172,1.8341,1.8553,1.7799,1.8003,1.824,1.7721,1.7619,1.7413,1.6655,1.6524,1.6446,1.6167,1.5783,1.5265,1.4635,1.4602,1.4445,1.3791,1.3593,1.3494,1.3494,1.3403,1.3342,1.3282,1.3463,1.3331,1.2743,1.3093,1.3099,1.2546,1.2713,1.2947,1.3157,1.3261,1.3368,1.3466,1.3695,1.3756,1.3636,1.3636,1.3805,2.8101,2.9102,3.0204,3.0917,3.1477,3.1929,3.2317,3.2736,3.2954,3.2624,3.2529,3.2377,3.1974,3.1435,3.1096,3.1309,3.1303,3.132,3.1579,3.1609,3.1559,3.1434,3.1397,3.1323,3.1136,3.1099,3.1099,3.1024,3.0986,3.0986,3.0986,3.0986,3.0986,3.0986,3.0986,3.0986,3.0986,3.0986,3.0949,3.0798,2.9616,2.9075,2.9037,2.7382,2.6659,2.6599,2.5693,2.5621,2.6126,2.5525,2.5492,2.5757,2.5737,2.5392,2.4945,2.5216,2.4826,2.4011,2.3106,2.2617,2.2408,2.2498,2.1988,2.1282,2.0984,2.0393,1.9682,1.9374,1.9274,1.9164,1.8687,1.8931,1.9164,1.8687,1.8921,1.9164,1.8687,1.8519,1.824,1.7516,1.731,1.7207,1.6941,1.6401,1.5836,1.5252,1.5186,1.501,1.4558,1.4401,1.4302,1.4302,1.4213,1.4154,1.4085,1.4293,1.4223,1.3718,1.4123,1.4146,1.37,1.3895,1.4138,1.4354,1.4363,1.4398,1.4501,1.4638,1.4599,1.4501,1.4501,1.4731,2.8107,2.9387,3.0922,3.0778,3.1719,3.2609,3.2422,3.2364,3.2179,3.1501,3.1362,3.1133,3.0415,3.018,3.025,3.0839,3.0786,3.0889,3.1546,3.1646,3.1646,3.1609,3.1609,3.1522,3.131,3.131,3.1235,3.1061,0.0,3.0986,3.0986,3.0986,3.0986,3.0986,3.0986,3.0986,3.0986,3.0986,3.0986,3.0973,3.0372,3.0061,3.0009,2.8869,2.8368,2.8273,2.7032,2.6837,2.7456,2.6735,2.6449,2.653,2.7222,2.662,2.5488,2.6208,2.6,2.5194,2.4036,2.318,2.2579,2.2748,2.2449,2.1991,2.152,2.1026,2.0505,1.9857,1.9638,1.9605,1.9638,1.9638,1.9605,1.9605,1.9605,1.9605,1.9605,1.944,1.9108,1.8418,1.8172,1.7857,1.712,1.6802,1.6613,1.6453,1.6423,1.5961,1.4736,1.4588,1.4588,1.4588,1.4588,1.4519,1.4332,1.4903,1.4932,1.4174,1.5274,1.5633,1.5002,1.5594,1.5914,1.5914,1.5914,1.5914,1.5914,1.5914,1.5914,1.5914,1.5914,1.6185,3.0261,3.1679,3.3094,3.2465,3.2952,3.3294,3.2198,3.1874,3.1608,3.0954,3.0711,3.0606,3.0407,3.0734,3.1087,3.1197,3.1523,3.1841,3.2024,3.2036,3.2,3.1853,3.1817,3.1743,3.1559,3.1522,3.1485,3.1447,3.1174,3.0986,3.0986,3.0986,3.0986,3.0986,3.0986,3.0986,3.0986,3.0986,3.0986,3.0973,2.9967,2.9497,2.9457,2.8281,2.7745,2.7699,2.7387,2.7323,2.749,2.7289,2.7222,2.7255,2.7423,2.7255,2.6973,2.7154,2.6769,2.607,2.5767,2.517,2.4494,2.4108,2.3647,2.315,2.2456,2.1578,2.0848,2.1028,2.0366,1.9736,2.0226,1.9977,1.9605,1.9605,1.9605,1.9605,1.9605,1.955,1.9473,1.9264,1.9098,1.8795,1.8336,1.7775,1.7308,1.6894,1.6591,1.6288,1.5961,1.5933,1.5933,1.5933,1.5933,1.5894,1.5836,1.599,1.6019,1.5807,1.6077,1.6202,1.6009,1.6163,1.6269,1.6269,1.6269,1.6202,1.6066,1.6202,1.6202,1.6066,1.6066,1.6483,3.1202,3.2389,3.3543,3.2718,3.3036,3.3165,3.1711,3.154,3.1332,3.0043,2.9927,2.9965,2.9657,3.035,3.0949,3.0866,3.1634,3.2219,3.222,3.2208,3.2146,3.2036,3.2036,3.1963,3.1743,3.172,3.172,3.1609,3.1373,3.1261,3.1261,3.1261,3.1261,3.1261,3.1261,3.1261,3.1261,3.1261,3.1261,3.1248,3.0075,2.9522,2.9482,2.8309,2.7769,2.7769,0.0,2.7769,2.7769,2.7656,2.7623,2.7623,2.7523,2.749,2.749,2.749,2.7255,2.6833,2.6624,2.6266,2.5759,2.4832,2.4181,2.3631,2.3018,2.2373,2.1865,2.1834,2.127,2.0794,2.1164,2.0974,2.0709,2.0709,2.0709,2.0709,2.0709,2.0645,2.0581,2.0484,2.0387,2.0102,1.9395,1.8951,1.8474,1.7766,1.7426,1.7262,1.7318,1.6779,1.6413,1.6413,1.6413,1.6413,1.6413,1.6413,1.6413,1.6413,1.6609,1.674,1.674,1.7022,1.7162,1.7162,1.7162,1.7095,1.6972,1.7095,1.7095,1.6972,1.6972,1.7507,3.1665,3.244,3.3235,3.2379,3.2652,3.2704,3.1092,3.1097,3.0869,2.8997,2.8995,2.9186,2.869,2.9527,3.0295,3.03,3.1366,3.2184,3.2188,3.2213,3.2182,3.2205,3.2218,3.2146,3.1963,3.1927,3.1853,3.1683,3.1683,3.1646,3.1609,3.1609,3.1609,3.1609,3.1609,3.1609,3.1609,3.1609,3.1569,3.1476,3.0357,2.9749,2.9629,2.8572,2.8112,2.8112,2.8112,2.8112,2.8079,2.7901,2.7855,2.7822,2.7669,2.7603,2.7603,2.7603,2.7603,2.7511,2.6948,2.6718,2.6432,2.5179,2.4394,2.389,2.3384,2.3177,2.2997,2.2512,2.2237,2.2132,2.2194,2.2175,2.2101,2.2101,2.2101,2.2101,2.2101,2.2021,2.1877,2.171,2.1647,2.1329,2.0311,2.0076,1.9683,1.8732,1.8452,1.8379,1.8498,1.7429,1.6648,1.6648,1.6676,1.6676,1.6648,1.6648,1.6648,1.6648,1.7056,1.7313,1.7313,1.782,1.8093,1.8093,1.8093,1.8093,1.8093,1.8093,1.8127,1.8223,1.8223,1.8747,3.3029,3.3514,3.3957,3.3251,3.3188,3.2735,3.0763,2.9847,2.914,2.8223,2.8045,2.8148,2.8543,2.9224,2.9874,3.0253,3.1009,3.1715,3.2129,3.2193,3.2194,3.2187,3.2218,3.2182,3.2146,3.2146,3.2146,3.2109,3.2109,3.1963,3.1609,3.1609,3.1609,3.1609,3.1609,3.1609,3.1609,3.1609,3.1356,3.0836,3.0144,2.9536,2.9044,2.8399,2.8112,2.8112,2.8112,0.0,2.8112,2.8046,2.8046,2.8046,2.8013,2.8013,2.8013,2.8013,2.8013,2.7901,2.7317,2.6786,2.6206,2.5258,2.4888,2.4693,2.4092,2.3531,2.3177,2.3632,2.295,2.2237,2.2774,2.2512,2.2101,2.2101,2.2101,2.2101,2.2101,2.2082,2.2039,2.2009,2.1928,2.1644,2.0943,2.0382,1.9789,1.9162,1.8729,1.8459,1.8498,1.819,1.7972,1.7972,1.8066,1.8093,1.7972,1.7972,1.7972,1.7972,1.7945,1.7945,1.7945,1.8038,1.8093,1.8093,1.8093,1.8093,1.8093,1.8093,1.8338,1.8769,1.8769,1.9293,3.3555,3.3636,3.3704,3.3388,3.304,3.2218,3.0117,2.9312,2.8707,2.7684,2.7657,2.8005,2.8646,2.9572,3.0165,3.0066,3.0832,3.1664,3.2319,3.2302,3.2496,3.3199,3.3276,3.315,3.2761,3.2739,3.2739,3.2739,3.2739,3.2503,3.1927,3.189,3.189,3.189,3.189,3.1742,3.1433,3.1433,3.1137,3.0532,2.9914,2.9484,2.9201,2.861,2.8373,2.8373,2.8373,2.8541,2.8803,2.8365,2.8411,2.8688,2.8262,2.8112,2.8112,2.8112,2.7893,2.7578,2.7309,2.658,2.5748,2.534,2.502,2.4731,2.4453,2.4073,2.3783,2.4102,2.3691,2.3203,2.3543,2.3382,2.3143,2.3143,2.3143,2.3143,2.3143,2.3143,2.3143,2.3143,2.2844,2.2397,2.1834,2.1188,2.0586,2.0065,1.9727,1.9566,1.9643,1.9527,1.9188,1.8486,1.8471,1.8459,1.8405,1.8405,1.8405,1.8405,1.8647,1.8792,1.8792,1.903,1.9188,1.9188,1.9121,1.9095,1.9095,1.9004,1.9281,1.9839,1.9839,2.0378,3.347,3.3391,3.3309,3.3309,3.2677,3.1523,2.954,2.8877,2.8325,2.7093,2.7202,2.7727,2.8543,2.9491,3.0105,2.9831,3.0654,3.1645,3.248,3.2579,3.3004,3.422,3.4346,3.4143,3.3596,3.3547,3.3526,3.3492,3.3457,3.3206,3.2682,3.2516,3.248,3.2646,3.2357,3.2056,3.1715,3.1592,3.122,3.0614,3.0119,2.9849,2.9711,2.9228,2.9022,2.9022,2.9022,2.9279,2.9673,2.903,2.9075,2.9484,2.8849,2.8605,2.8605,2.8605,2.8307,2.7867,2.7587,2.6872,2.6029,2.5786,2.5189,2.4591,2.4591,2.4492,2.435,2.435,2.429,2.42,2.42,2.42,2.42,2.4157,2.4128,2.4128,2.4112,2.4083,2.4083,2.4083,2.36,2.3041,2.2493,2.189,2.1315,2.0791,2.0612,2.0587,2.0687,2.0612,2.0131,1.9083,1.8977,1.8951,1.8924,1.8924,1.8924,1.8924,1.9319,1.9553,1.9553,1.9991,2.0207,2.0207,2.0105,2.0042,2.0042,2.0066,2.0381,2.0975,2.1102,2.1655,3.2759,3.2984,3.3309,3.3309,3.2297,3.0898,2.9446,2.8151,2.7067,2.6261,2.613,2.6546,2.7774,2.8074,2.8537,2.9621,3.0388,3.1281,3.2447,3.3096,3.3733,3.4501,3.4562,3.4581,3.4666,3.4651,3.4599,3.448,3.4312,3.4177,3.4109,3.3457,3.3437,3.4075,3.2885,3.2492,3.3105,3.2497,3.1893,3.1305,3.1248,3.0947,3.043,3.0342,3.0343,3.0343,3.0343,3.0359,0.0,3.0329,3.0329,3.0374,3.0313,3.0283,3.0283,3.0283,3.024,3.0009,2.8872,2.8382,2.8109,2.6951,2.5673,2.4591,2.4591,2.4591,2.4563,2.4563,2.4563,2.4563,2.4563,2.4563,2.4505,2.4334,2.4263,2.4247,2.4141,2.4083,2.4083,2.4083,2.36,2.3041,2.2493,2.189,2.1315,2.0791,2.0687,2.0687,2.0699,2.0687,2.0624,2.0524,2.0498,2.0448,2.0334,2.0334,2.0334,2.0334,2.0207,2.0131,2.0131,2.0182,2.0207,2.0207,2.0182,2.0182,2.0182,2.0706,2.1244,2.1807,2.2357,2.2933,3.2999,3.355,3.4025,3.4025,3.3008,3.1778,3.0815,2.8957,2.749,2.7639,2.7137,2.7062,2.8383,2.8619,2.8785,2.9305,2.9532,3.012,3.1446,3.2124,3.3071,3.4592,3.5124,3.5394,3.5469,3.5467,3.5449,3.5385,3.5721,3.5928,3.5928,3.4614,3.382,3.3713,3.3154,3.2633,3.2159,3.1898,3.1464,3.0871,3.0871,3.0726,3.0494,3.0494,3.0494,3.0494,3.0494,3.0733,0.0,3.0673,3.0733,3.1058,3.0673,3.0494,3.0494,3.0494,3.0263,2.9886,2.9292,2.8624,2.7964,2.7362,2.6573,2.5864,2.5864,2.5824,2.5756,2.5756,2.566,2.555,2.555,2.5328,2.5049,2.4992,2.4723,2.4463,2.4419,2.439,2.439,2.439,2.4183,2.3716,2.2803,2.2428,2.1951,2.1027,2.0873,2.0886,2.0825,2.1071,2.1204,2.1131,2.0873,2.0687,2.0612,2.0612,2.0612,2.0612,2.0549,2.0498,2.0498,2.0498,2.0498,2.0498,2.0423,2.0511,2.0795,2.0642,2.1185,2.2375,2.2308,2.293,3.2416,3.3168,3.3842,3.3937,3.3129,3.2122,3.143,2.9535,2.8049,2.8572,2.7759,2.737,2.8755,2.8912,2.8861,2.9067,2.9202,2.9769,3.1109,3.1987,3.3185,3.5044,3.5701,3.6099,3.6337,3.6337,3.629,3.629,3.6723,3.7015,3.7015,3.5589,3.4572,3.4065,3.3473,3.284,3.2153,3.1946,3.159,3.1102,3.1102,3.1102,3.1072,3.1072,3.1072,3.1072,3.1072,3.1349,0.0,3.1262,3.1349,3.1709,3.1262,3.1072,3.1072,3.1072,3.0687,3.0091,2.9796,2.9029,2.8162,2.7855,2.7504,2.7185,2.7185,2.6916,2.6549,2.6549,2.6455,2.6347,2.6347,2.6067,2.5769,2.5728,2.5453,2.516,2.509,2.5062,2.5062,2.5062,2.4928,2.4464,2.3466,2.313,2.2655,2.1588,2.1434,2.1434,2.1388,2.1664,2.1827,2.1732,2.1434,2.1191,2.1118,2.1118,2.1118,2.1118,2.1142,2.1166,2.1166,2.1166,2.1166,2.1166,2.1044,2.1129,2.1465,2.1377,2.1926,2.3095,2.3057,2.371,3.0609,3.1413,3.2302,3.2641,3.217,3.1406,3.0684,2.9397,2.8391,2.8405,2.744,2.7053,2.854,2.843,2.8331,2.8988,2.9706,3.0605,3.183,3.3184,3.4607,3.6032,3.6205,3.6531,3.7401,3.73,3.7194,3.7194,3.7075,0.0,3.7015,3.6299,3.5864,3.5864,3.3872,3.3156,3.387,3.3228,3.2788,3.2578,3.2578,3.2523,3.2398,3.2398,3.2398,3.2398,3.2398,3.2398,0.0,3.2398,3.2398,3.2398,3.2398,3.2398,3.2398,3.2398,3.1967,3.1289,3.0617,2.9956,2.9279,2.8602,2.8387,2.8372,2.8372,2.7595,2.6704,2.6704,2.6704,2.6678,2.6678,2.6678,2.6651,2.6522,2.6484,2.6416,2.6213,2.6187,2.6187,2.6187,2.5752,2.5188,2.4508,2.3879,2.325,2.2589,2.2489,2.2489,2.2489,2.2489,2.2489,2.2489,2.2489,2.2374,2.2105,2.2081,2.2081,2.2081,2.2198,2.2267,2.2267,2.2267,2.2267,2.2267,2.2151,2.2081,2.2081,2.3368,2.3971,2.4013,2.5208,2.5783,3.0188,3.1072,3.1876,3.1992,3.1978,3.1872,3.1667,3.0196,2.9161,3.0171,2.8979,2.8211,2.97,2.9838,2.9961,3.0686,3.0716,3.1101,3.2472,3.3181,3.4081,3.5496,3.6506,3.7214,3.7478,3.7435,3.7405,3.7405,3.7361,3.7126,3.6609,3.5946,3.5438,3.5221,3.412,3.3454,3.324,3.3006,3.287,3.2816,3.2816,3.2773,3.2746,3.2746,3.2746,3.2746,3.2746,3.2746,3.2746,3.2746,3.2746,3.2746,3.2746,3.2746,3.2746,3.2746,3.2606,3.2326,3.1601,3.0928,3.0245,2.9586,2.9209,2.8975,2.8621,2.822,2.786,2.786,2.786,2.786,2.786,2.757,2.7236,2.7185,2.6901,2.6613,2.6573,2.6546,2.6546,2.6546,2.6685,2.6526,2.5531,2.5502,2.5123,2.3664,2.3459,2.3253,2.2706,2.292,2.3084,2.2995,2.3312,2.3224,2.2443,2.2374,2.2374,2.2374,2.242,2.2443,2.2443,2.2443,2.2443,2.2443,2.2856,2.3249,2.3612,2.3626,2.3836,2.4165,2.5697,2.6431,2.935,3.0193,3.0884,3.0992,3.115,3.1255,3.1237,3.0076,2.9386,3.0843,2.9792,2.9049,3.052,3.0662,3.0672,3.112,3.1134,3.1456,3.244,3.3379,3.4436,3.5628,3.6785,3.7399,3.7101,3.7322,3.751,3.751,3.751,3.718,3.644,3.5758,3.5168,3.4689,3.4003,3.3454,3.3058,3.3058,3.3032,3.2978,3.2978,3.2951,3.2897,3.2897,3.2897,3.2897,3.3107,3.3054,0.0,3.3107,3.3156,3.3156,3.3156,3.3156,3.315,3.3049,3.2734,3.2305,3.1725,3.1109,3.0482,3.0036,2.9767,2.955,2.9257,2.8803,2.8411,2.8411,2.8411,2.8411,2.8411,2.8122,2.7845,2.7845,2.758,2.7352,2.7352,2.7352,2.7352,2.7352,2.762,2.7534,2.6564,2.6678,2.6337,2.4686,2.4424,2.4164,2.3408,2.3573,2.3724,2.3623,2.3909,2.3846,2.3231,2.3098,2.3068,2.3068,2.3113,2.3135,2.3135,2.3135,2.3275,2.351,2.3883,2.4359,2.4925,2.4846,2.5111,2.566,2.6692,2.7178,0.0,2.89,2.9436,2.9667,2.9801,2.9803,2.9756,2.9247,0.0,3.0558,2.992,2.9586,3.1083,3.0988,3.072,3.0775,3.132,3.1841,3.2127,3.3997,3.5652,3.6511,3.7229,3.7388,3.6663,3.7232,3.7642,3.7612,3.7612,3.7279,3.6489,3.5839,3.5153,3.4376,3.3715,3.3372,3.3309,3.3309,3.3229,3.3096,3.315,3.3112,3.2978,3.3032,3.3032,0.0,3.3501,3.3439,0.0,3.3501,3.37,3.37,3.37,3.37,3.3655,3.3355,3.2562,3.1614,3.132,3.0762,3.0199,3.0154,3.0138,3.0133,3.0138,2.94,2.8517,2.8517,2.8517,2.8517,2.8517,2.8517,2.8517,2.8517,2.8493,2.8493,2.8501,2.8493,2.8468,2.8468,2.8468,2.8268,2.7659,2.7504,2.7057,2.5765,2.5475,2.5191,2.456,2.4436,2.4405,2.4405,2.4405,2.4405,2.4405,2.4156,2.4024,2.4024,2.4145,2.4223,2.4223,2.4254,2.4554,2.5181,2.5185,2.5469,2.6092,2.6761,2.7376,2.7944,2.7989,2.8005,2.7837,0.0,2.8139,2.82,2.8671,2.9127,0.0,2.8958,2.9049,2.9944,2.9881,3.011,3.1634,3.182,3.2145,3.3298,3.3276,3.3533,3.4717,3.6467,3.788,3.8622,3.8879,3.8885,3.8581,3.8777,3.8903,3.8799,3.8799,3.8226,3.6931,3.6701,3.6029,3.4726,3.453,3.4093,3.3309,3.3309,3.3266,3.3256,3.3684,3.3848,3.3822,3.4193,3.435,3.4374,3.448,3.4456,3.4374,3.4464,3.4512,3.4512,3.4512,3.4512,3.443,3.3818,3.3409,3.3093,3.2395,3.1737,3.1125,3.087,3.0543,3.0314,3.0563,3.0213,2.9701,2.9701,2.9701,2.9701,2.9701,2.9701,2.9701,2.9701,2.9429,2.9264,2.9613,2.9406,2.915,2.915,2.915,2.9102,2.8967,2.8592,2.8248,2.8089,2.7211,2.6509,2.6249,2.5706,2.5387,2.5449,2.5449,2.5449,2.5449,2.4704,2.4219,2.4219,2.4276,2.4276,2.4276,2.4768,2.5121,2.5275,2.6297,2.6911,2.708,2.7644,2.7749,2.7389,2.7826,2.8186,2.7672,2.8245,2.8807,2.8807,2.9123,2.9457,2.9457,2.8846,2.85,2.9288,2.9416,2.9839,3.1359,3.1917,3.2509,3.3658,3.4194,3.5039,3.6631,3.7448,3.8271,3.9323,3.9465,3.9465,0.0,3.9385,3.9208,3.8771,3.8676,3.802,3.6572,3.6506,3.5968,3.4842,3.4793,3.4545,3.3993,3.3993,3.3993,3.3993,3.4292,3.4415,3.444,3.469,3.4793,3.4793,3.5068,3.5045,3.4833,3.5068,3.5184,3.5184,3.5184,3.4944,3.4565,3.4061,3.3508,3.2932,3.2374,3.1935,3.1604,3.1431,3.1198,3.1024,3.1201,3.1067,3.0754,3.0243,3.0095,3.0095,3.0095,3.0095,3.0095,3.0095,2.9919,2.9789,3.0048,2.9903,2.9723,2.9723,2.9723,2.9723,2.9723,2.9473,2.9211,2.902,2.8098,2.728,2.6885,2.6202,2.5762,2.5801,2.5801,2.5932,2.6295,2.5815,2.535,2.497,2.5199,2.5352,2.5352,2.6072,2.6593,2.6888,2.7962,2.8491,2.8491,2.8801,2.8762,2.84,2.8685,2.8958,2.7797,2.9141,3.0369,3.0018,3.0088,3.0246,3.0141,2.9053,2.8263,2.8947,2.9176,2.9688,3.1182,3.1987,3.2668,3.3468,3.4687,3.6183,3.8042,3.7885,3.8147,3.9615,3.9809,0.0,3.9623,3.9564,3.921,3.8363,3.8187,3.7569,3.626,3.6193,3.5842,3.5108,3.5075,3.5075,3.5075,3.4904,3.4793,3.4793,3.4864,3.4911,3.4911,3.5005,3.5028,3.5052,0.0,0.0,3.5052,3.5408,3.5552,3.5535,3.5416,3.4953,3.4334,3.4023,3.322,3.2258,3.191,3.18,3.18,3.18,3.18,3.18,3.18,3.18,3.1598,3.0633,3.0348,3.0348,3.0348,3.0348,3.0348,3.0348,3.0285,3.0264,3.0327,3.0285,3.0243,3.0243,3.0243,3.0243,3.0243,3.018,2.9983,2.9558,2.8633,2.7816,2.7337,2.6528,2.605,2.6184,2.6201,2.6498,2.7226,2.729,2.6988,2.6319,2.6621,2.686,2.6974,2.7651,2.8302,2.8993,2.9551,2.9859,2.9859,2.9859,2.9837,2.9815,2.9815,2.9859,2.8511,3.0352,3.1563,2.9579,3.0071,3.0861,3.0246,2.9913,2.9772,2.9879,3.0404,3.1317,3.2862,3.3213,3.3756,3.5176,3.5596,3.654,3.8786,3.9037,3.9508,4.0926,0.0,4.0948,4.0095,4.0111,3.9782,3.8874,3.876,3.8397,3.7556,3.7504,3.7158,3.6437,3.6419,3.6419,3.6419,3.5345,3.4793,3.4809,3.5276,3.5481,3.5481,3.5881,3.6071,3.6071,0.0,3.6135,3.602,3.5486,3.5249,3.5198,3.4561,3.4235,3.4066,3.335,3.2969,3.2704,3.204,3.18,3.18,3.18,3.18,3.18,3.18,3.18,3.1746,3.1579,3.1542,3.1542,3.1542,3.1542,3.1542,3.1542,3.124,3.1064,3.1449,3.122,3.0948,3.0948,3.0948,3.0948,3.0948,3.0584,3.0472,3.1125,2.9602,2.8563,2.8968,2.7777,2.7179,2.7928,2.7997,2.8288,2.9042,2.9058,2.8971,2.8834,2.8229,2.8115,2.8706,2.8837,2.921,2.9889,3.0004,3.0048,3.0048,3.0048,3.0005,2.9876,2.9876,3.0064,2.8157,2.9667,3.0984,3.0317,3.1616,3.3003,3.2651,3.1949,3.1335,3.1335,3.1616,3.2177,3.3301,3.3863,3.4653,3.6197,3.6443,3.697,3.8444,3.9041,3.9526,0.0,0.0,4.0648,3.9748,3.966,3.9307,3.8475,3.8359,3.7986,3.7259,3.7224,3.705,3.6719,3.6702,3.6702,3.6702,3.611,3.5832,3.5832,3.6067,3.6191,3.6195,3.6419,3.6298,3.5861,0.0,3.5636,3.5255,3.4909,3.477,3.4735,3.4389,3.401,3.3526,3.2875,3.2632,3.258,3.2213,3.2073,3.2073,3.2073,3.2073,3.2091,3.2283,3.2352,3.2352,3.2352,3.2073,3.18,3.18,3.1929,3.202,3.1838,3.1766,3.1749,3.1783,3.1634,3.1485,3.1485,3.1485,3.1485,3.1485,3.1276,3.1257,3.1653,3.0545,2.979,3.0074,2.9093,2.8625,2.9201,2.9106,2.9384,3.0349,3.0385,3.0249,2.9968,2.957,2.9664,3.0367,3.0401,3.0532,3.0848,3.0865,3.0865,3.0865,3.0865,3.0825,3.0747,3.0747,3.0845,2.7929,2.9018,3.0282,3.1019,3.2546,3.4003,3.4565,3.3512,3.2493,3.2862,3.2932,3.3161,3.3897,3.4705,3.5637,3.6814,3.7007,3.7271,3.8006,3.8617,3.9094,3.9266,3.9831,3.9901,3.9111,3.8923,3.8566,3.7834,3.7661,3.7376,3.68,3.6766,3.6766,3.6766,3.6766,3.6766,3.6766,3.6766,3.6763,3.6702,3.6702,3.6597,3.6423,3.6423,3.5988,3.5238,3.5238,3.4925,3.4385,3.4289,3.4239,3.4222,3.4122,3.3704,3.309,3.268,3.2551,3.2535,3.2486,3.2453,3.2453,3.2453,3.2453,3.2519,3.2779,3.2858,3.2858,3.2858,3.2468,3.2073,3.2038,3.2231,3.2352,3.2109,3.2231,3.2352,3.2109,3.2056,3.2056,3.2091,3.2091,3.2073,3.2056,3.1899,3.1846,3.2003,3.1255,3.0716,3.0907,3.0228,2.9892,3.0341,3.0167,3.0433,3.1486,3.1573,3.1407,3.0993,3.0957,3.1216,3.1785,3.1802,3.1802,3.1802,3.1727,3.1688,3.1688,3.1595,3.1595,3.167,3.1576,3.1614,2.8614,2.9439,3.0282,3.1019,3.1317,3.2019,3.4196,3.3512,3.2809,3.4231,3.453,3.4758,3.5494,3.6285,3.6867,3.6989,3.7007,3.7271,3.8006,0.0,3.8462,3.9196,3.9336,3.9076,3.8269,3.8178,3.7862,3.7128,3.7058,3.704,3.6987,3.6987,3.6987,3.6987,3.6987,3.6987,3.6987,3.6987,3.6869,3.6702,3.6702,3.6301,3.5588,3.5588,3.5168,3.4471,3.4471,3.4455,3.437,3.3917,3.3758,3.3722,3.3271,3.3057,3.3019,3.2981,3.2963,3.2963,3.2945,3.2963,3.2963,3.2963,3.2963,3.2945,3.2993,3.2993,3.2993,3.2993,3.2945,3.2885,3.2763,3.2765,3.2747,3.2731,3.2747,3.2779,3.2809,3.2825,3.284,3.2898,3.2898,3.2901,3.284,3.2186,3.1941,3.2624,3.1451,3.079,3.1533,3.0924,3.0725,3.1492,3.1566,3.1854,3.262,3.2674,3.2676,3.2626,3.2643,3.2661,3.2699,3.2699,3.2699,3.2699,3.2403,3.2249,3.2249,3.1929,3.1911,3.2144,3.1784,3.1895,2.807,2.8737,2.965,3.0878,3.0861,3.1247,3.4056,3.46,3.4828,3.5918,3.6129,3.6057,3.5827,3.6461,3.6849,3.6338,3.6673,3.7095,3.7374,3.7812,3.8041,3.7883,3.8269,3.8251,3.7479,3.7409,3.7306,3.7025,3.7007,3.7007,3.7007,3.7007,3.7007,3.7007,3.7007,3.7106,3.7301,3.6613,3.6346,3.6517,3.625,3.5974,3.5679,3.5379,3.4836,3.4164,3.4371,3.4187,3.3705,3.3512,3.345,3.3429,3.3262,3.3181,3.3211,3.3375,3.3433,3.3419,3.3339,3.331,3.331,3.331,3.331,3.3354,3.357,3.3625,3.3625,3.3625,3.3625,3.351,3.3057,3.3087,3.3178,3.2963,3.3087,3.3178,3.2993,3.2963,3.2978,3.3009,3.2991,3.2991,3.2978,3.2711,3.2606,3.288,3.2432,3.2163,3.2465,3.2247,3.225,3.2752,3.2835,3.2929,3.3204,3.324,3.331,3.3528,3.309,3.2795,3.2795,3.2795,3.2795,3.2795,3.2684,3.2619,3.2619,3.2486,3.2469,3.2569,3.2436,3.2468,2.807,2.8473,2.9211,3.0527,3.065,3.1194,3.4038,3.5092,3.5759,3.6796,3.6814,3.6531,3.6233,3.6426,3.6513,3.6233,3.6636,3.7029,3.7147,3.7508,3.7609,3.7217,3.7606,3.7711,3.7219,3.728,3.7355,3.7355,3.7012,3.6919,3.7148,3.667,3.6529,3.6776,3.6623,3.6665,3.6897,3.6132,3.5883,3.6143,3.5634,3.5331,3.5223,3.5009,3.4497,3.3779,3.4014,3.3813,3.3306,3.3408,3.3508,3.3588,3.3588,3.3588,3.3602,3.3788,3.3873,3.3842,3.3752,3.372,3.372,3.372,3.372,3.3747,3.3992,3.4061,3.4061,3.4061,3.4061,3.3967,3.3492,3.3524,3.3597,3.3364,3.3482,3.3597,3.3393,3.335,3.335,3.336,3.3393,3.336,3.335,3.315,3.3045,3.3285,3.3107,3.2944,3.2944,3.3161,3.3411,3.3625,3.3671,3.3671,3.3671,3.3671,3.3752,3.3985,3.3486,3.3196,3.3196,3.3196,3.3196,3.3196,3.3072,3.3029,3.3029,3.2903,3.2919,3.3029,3.2903,3.2965,2.8895,2.8895,2.9105,2.9895,3.0684,3.1861,3.4179,3.4724,3.5163,3.6708,3.6392,3.6075,3.6867,3.6357,3.6075,3.6867,3.7009,3.7127,3.7469,3.7225,3.7127,3.7469,3.7505,3.7505,3.7505,3.7861,3.8101,3.8101,3.7055,3.672,3.7452,3.5971,3.5472,3.6257,3.5848,3.5596,3.5612,3.5578,3.5578,3.5593,3.4847,3.433,3.4026,3.4346,3.4066,3.3306,3.3306,3.3306,3.3335,3.3666,3.3959,3.4197,3.4197,3.4197,3.4197,3.4197,3.4197,3.4197,3.4197,3.4197,3.4197,3.4197,3.4197,3.4197,3.4197,3.4209,3.4209,3.4209,3.4209,3.4209,3.4209,3.4111,3.4011,3.4011,3.4011,3.4023,3.4086,3.4099,3.4124,3.4185,3.4197,3.4185,3.4111,3.3432,3.3148,3.3881,3.3315,3.2816,3.2816,3.3499,3.3998,3.3998,3.3998,3.3998,3.3998,3.3998,3.3998,3.3998,3.3998,3.3998,3.3998,3.3998,3.3998,3.3998,3.3684,3.35,3.35,3.3174,3.3174,3.35,3.316,3.3382,2.8052,2.9024,3.0089,3.032,3.2453,3.4826,3.6038,3.631,3.686,3.8712,3.8726,3.8323,3.8034,3.7747,3.7459,3.7115,3.7549,3.7963,3.8046,3.7946,3.7877,3.798,3.7947,3.7913,3.7913,3.8034,3.8101,3.8101,3.7206,3.6779,3.6996,3.6025,3.5575,3.5792,3.5674,3.574,3.6021,3.5227,3.4951,3.5155,3.4383,3.412,3.4344,3.4113,3.3872,3.3666,3.385,3.3923,3.3954,3.403,3.4124,3.4197,3.4197,3.4197,3.4197,3.4197,3.4197,3.4197,3.4197,3.4197,3.4197,3.4197,3.4197,3.4197,3.4197,3.4328,3.4484,3.4484,3.4586,3.4682,3.4682,3.4662,3.4599,3.4454,3.4409,3.4439,3.445,3.4305,3.4173,3.4197,3.4197,3.4197,3.4173,3.3969,3.3882,3.4111,3.3944,3.3765,3.3765,3.3988,3.4136,3.4136,3.4136,3.4136,3.4136,3.4136,3.4136,3.4136,3.4136,3.4099,3.3998,3.3998,3.3998,3.3998,3.3902,3.385,3.385,3.3752,3.3752,3.385,3.3752,3.3805,2.8863,2.9801,3.0909,3.1869,3.377,3.5824,3.7553,3.8219,3.8814,4.0022,3.9635,3.8921,3.8449,3.8068,3.776,3.7612,3.7979,3.8357,3.8483,3.8357,3.8293,3.8421,3.8407,3.8248,3.7922,3.8028,3.7976,3.7649,3.6723,3.6286,3.658,3.553,3.5074,3.5399,3.5181,3.516,3.5449,3.4729,3.4472,3.4679,3.4199,3.4107,3.4371,3.4089,3.3959,3.3972,3.4136,3.4197,3.4197,3.4197,3.4197,3.4197,3.4197,3.4197,3.4209,3.4316,3.4293,3.4221,3.4316,3.4351,3.4351,3.4351,3.442,3.448,3.448,3.4596,3.472,3.472,3.4811,3.4908,3.4908,3.4964,3.4973,3.4771,3.472,3.472,3.472,3.4596,3.448,3.448,3.448,3.448,3.448,3.448,3.448,3.448,3.418,3.4086,3.4442,3.418,3.4086,3.4442,3.448,3.448,3.448,3.448,3.448,3.448,3.448,3.4446,3.4367,3.4179,3.4086,3.4086,3.4086,3.4086,3.4086,3.4086,3.4086,3.4086,3.4086,3.4086,3.0532,3.088,3.152,3.3854,3.4695,3.5747,3.883,4.0138,4.072,4.0746,3.9552,3.8502,3.8528,3.7866,3.7571,3.8308,3.8348,3.8438,3.8814,3.8533,3.8386,3.8722,3.8736,3.8422,3.7609,3.7803,3.7679,3.6963,3.5862,3.5539,3.6219,3.479,3.4292,3.5006,3.4507,3.4245,3.4305,3.4245,3.4221,3.4221,3.4221,3.4221,3.4221,3.4209,3.4209,3.4209,3.4209,3.4209,3.4209,3.4209,3.4209,3.4233,3.4233,3.4245,3.4305,3.4539,3.4465,3.4305,3.455,3.4634,3.4634,3.4634,3.4751,3.4908,3.4908,3.4908,3.4926,3.4936,3.4936,3.4954,3.4945,3.5089,3.5174,3.5001,3.4945,3.4936,3.4936,3.4898,3.4908,3.4908,3.4908,3.4908,3.4908,3.4908,3.4908,3.4908,3.4235,3.3988,3.4794,3.4197,3.4017,3.4823,3.4917,3.4898,3.4898,3.4898,3.4898,3.4898,3.4898,3.4898,3.4898,3.4491,3.425,3.425,3.425,3.425,3.4262,3.4262,3.4262,3.4262,3.4262,3.4262,2.9877,3.0759,3.1722,3.2901,3.5323,3.797,4.0024,4.0648,4.0845,4.1117,4.0197,3.9535,4.0144,3.9597,3.9124,3.9298,3.8743,3.8551,3.932,3.8743,3.8249,3.8314,3.8281,3.7925,3.7124,3.7131,3.7094,3.6907,3.6093,3.5665,3.582,3.4852,3.4367,3.4554,3.4421,3.4351,3.4374,3.4351,3.4351,0.0,3.4351,3.4351,3.4351,3.4245,3.4233,3.4281,3.4221,3.4233,3.4269,3.4221,3.4316,3.4517,3.4517,3.4607,3.4762,3.4812,3.4792,3.4762,3.4831,3.484,3.484,3.484,3.4851,3.4908,3.4908,3.4999,3.5136,3.5141,3.5254,3.5374,3.5376,3.541,3.5424,3.5376,3.525,3.5132,3.5132,3.5019,3.4908,3.4908,3.4908,3.4908,3.4908,3.4908,3.4908,3.4908,3.4737,3.468,3.487,3.4737,3.4679,3.4888,3.4944,3.4981,3.4981,3.4981,3.4981,3.4981,3.4981,3.4981,3.4981,3.4832,3.4752,3.4752,3.4752,3.4753,3.4755,3.4755,3.4774,3.4832,3.4832,3.4794,3.0019,3.1024,3.2184,3.3829,3.5979,3.7908,3.8826,3.8732,3.8596,3.9171,3.9133,3.8976,3.9014,3.8688,3.8406,3.8406,3.8019,3.7868,3.8331,3.7976,3.7671,3.7671,3.7634,3.7311,3.6487,3.6412,3.6244,3.5832,3.5413,3.5169,3.5169,3.4716,3.4461,3.4495,3.442,3.4427,3.445,3.4427,3.4386,3.4386,3.4386,3.4454,3.4534,3.448,3.4469,3.4502,3.4559,3.4593,3.4632,3.4601,3.4663,3.4783,3.4783,3.487,3.4954,3.5062,3.5035,3.4954,3.5062,3.5096,3.5096,3.5096,3.5155,3.5246,3.5246,3.5315,3.5395,3.5393,3.5463,3.5547,3.5547,3.556,3.556,3.556,3.5448,3.5338,3.5338,3.5293,3.5246,3.5246,3.5246,3.5246,3.5246,3.5246,3.5246,3.5246,3.5246,3.5246,3.5246,3.5243,3.5239,3.5239,3.5274,3.5289,3.5289,3.5289,3.5289,3.5289,3.5289,3.5289,3.5289,3.5251,3.5147,3.4944,3.4954,3.4954,3.4953,3.4953,3.4971,3.4997,3.4997,3.498,3.006,3.1138,3.2598,3.4982,3.6238,3.6885,3.6885,3.6385,3.6047,3.6566,3.7324,3.7718,3.7204,3.711,3.711,3.711,3.6979,3.6941,3.7091,3.6979,3.6885,3.6885,3.6885,3.6566,3.5747,3.5672,3.5371,3.4639,3.4612,3.4612,3.4612,3.4539,3.4539,3.4602,3.4495,3.4461,3.4517,3.4506,3.4465,3.442,3.4465,3.4588,3.4774,3.4794,3.4803,3.4755,3.4925,3.4997,3.5006,3.4997,3.5015,3.5041,3.5041,3.5058,3.5127,3.5281,3.5251,3.5127,3.5289,3.5352,3.5352,3.5352,3.5463,3.5598,3.5598,3.5604,3.5604,3.5598,3.5616,3.5614,3.5589,3.5606,3.5623,3.5623,3.5587,3.5538,3.5528,3.556,3.5598,3.5598,3.5598,3.5598,3.5598,3.5598,3.5598,3.5598,3.5598,3.5598,3.5598,3.5604,3.5604,3.5604,3.561,3.5616,3.5616,3.5616,3.5616,3.5616,3.5616,3.5616,3.5616,3.5616,3.5469,3.5136,3.5119,3.5092,3.51,3.51,3.5108,3.5117,3.5117,3.5108,2.868,3.0367,3.2516,3.4309,3.5428,3.6066,3.6066,3.5972,3.5728,3.5071,3.5615,3.6404,3.6998,3.711,3.711,3.711,3.6528,3.6291,3.6998,3.6498,3.6066,3.6066,3.6066,3.5728,3.4864,3.4771,3.4733,3.4612,3.4612,3.4612,3.4612,3.4583,3.4602,3.4602,3.4572,3.4591,3.4591,3.4742,3.4761,3.4591,3.4742,3.4917,3.5056,3.5235,3.5185,3.4958,3.4997,3.4996,3.5011,3.5006,3.5102,3.5258,3.5258,3.5367,3.5528,3.5541,3.5541,3.5528,3.5541,3.5566,3.5566,3.5566,3.5585,3.5598,3.5598,3.5596,3.5595,3.5604,3.5632,3.5674,3.5611,3.5638,3.5694,3.5694,3.5725,3.5729,3.5606,3.5591,3.5598,3.5598,3.5598,3.5598,3.5598,3.5598,3.5598,3.5598,3.5598,3.5598,3.5598,3.5602,3.5601,3.5601,3.5643,3.5693,3.5693,3.5693,3.5693,3.5693,3.5693,3.5693,3.5693,3.5693,3.5662,3.5608,3.5554,3.5515,3.5527,3.5527,3.554,3.5608,3.5608,3.5571,2.8866,3.0584,3.2386,3.3625,3.4545,3.5165,3.5165,3.5165,3.5052,3.4677,3.4902,3.5277,3.5627,3.5702,3.5702,3.5702,3.539,3.5296,3.5664,3.539,3.5165,3.5165,3.5165,3.5015,3.465,3.4612,3.4612,3.4612,3.4612,3.4612,3.4612,3.4612,3.4647,3.4771,3.4771,3.4812,3.4879,3.4971,3.4971,3.4889,3.4971,3.5108,3.5273,3.5364,3.5331,3.5231,3.5343,3.5397,3.5391,3.5397,3.5443,3.5522,3.5522,3.5578,3.567,3.567,3.567,3.567,3.567,3.567,3.567,3.567,3.567,3.5662,3.5664,3.565,3.565,3.5696,3.5722,3.5755,3.5725,3.573,3.5752,3.5752,3.5777,3.5785,3.5729,3.5709,3.5709,3.5709,3.5709,3.5709,3.5709,3.5709,3.5709,3.5709,3.5684,3.5665,3.5704,3.5679,3.5651,3.5655,3.5678,3.5704,3.5704,3.5704,3.5704,3.5704,3.5704,3.5704,3.5704,3.5704,3.5697,3.5694,3.5676,3.5656,3.5668,3.5668,3.5673,3.5704,3.5704,3.5679,2.8857,3.0246,3.1429,3.2489,3.355,3.4301,3.4301,3.4451,3.4612,3.4612,3.4612,3.4612,3.4612,3.4612,3.4612,3.4612,3.4612,3.4612,3.4612,3.4612,3.4612,3.4612,3.4612,3.4612,3.4612,3.4612,3.4612,3.4612,3.4612,3.4615,3.4668,3.4678,3.4752,3.4954,3.4944,3.4988,3.5106,3.5106,3.5154,3.5258,3.5193,3.528,3.547,3.547,3.547,3.5477,3.5631,3.5704,3.5704,3.5704,3.5704,3.5704,3.5704,3.5704,3.5704,3.5704,3.5704,3.5704,3.5704,3.5706,3.5707,3.5707,3.5708,3.5722,3.5733,3.5729,3.5744,3.5797,3.5802,3.5831,3.5831,3.5841,3.5849,3.5849,3.5849,3.5843,3.5816,3.5791,3.5791,3.5791,3.5791,3.5791,3.5791,3.5791,3.5791,3.5791,3.5768,3.5732,3.5786,3.5757,3.5736,3.5725,3.5735,3.5732,3.5732,3.5732,3.5732,3.5732,3.5732,3.5732,3.5732,3.5732,3.5726,3.5729,3.5726,3.5718,3.5707,3.5707,3.5692,3.5704,3.5704,3.5704,2.7815,2.8519,2.897,3.0631,3.2263,3.3446,3.3446,3.4057,3.4612,3.4612,3.4612,3.4612,3.4612,3.4612,3.4612,3.4612,3.4612,3.4612,3.4612,3.4612,3.4612,3.4612,3.4612,3.4612,3.4612,3.4612,3.4612,3.4612,3.4612,3.4678,3.486,3.487,3.4944,3.5089,3.5089,3.5098,3.5106,3.5106,3.5288,3.5668,3.549,3.5496,3.5679,3.5679,3.5679,3.5679,3.5704,3.5704,3.5704,3.5704,3.5704,3.5704,3.5704,3.5704,3.5704,3.5704,3.5704,3.5704,3.5704,3.5694,3.5709,3.5709,3.5748,3.5783,3.5786,3.5786,3.5808,3.5791,3.5845,3.5892,3.5892,3.5949,3.5996,3.5996,3.5996,3.5953,3.5834,3.5791,3.5791,3.5791,3.5791,3.5791,3.5791,3.5791,3.5791,3.5791,3.5808,3.5808,3.5791,3.5805,3.5783,3.5786,3.5783,3.5783,3.5783,3.5783,3.5783,3.5783,3.5783,3.5783,3.5783,3.5783,3.5783,3.5786,3.5783,3.5768,3.5709,3.5709,3.5703,3.5704,3.5704,3.5704,2.6754,2.8046,2.9436,3.0047,3.145,3.2824,3.3342,3.4137,3.4801,3.4801,3.486,3.4755,3.4252,3.4393,3.4612,3.4612,3.4612,3.4612,3.4612,3.4612,3.4612,3.4612,3.4612,3.4647,3.4781,3.4801,3.4831,3.4906,3.4916,3.4943,3.5024,3.5032,3.5117,3.5288,3.5295,3.5357,3.549,3.549,3.5559,3.5704,3.5626,3.5626,3.5704,3.5704,3.5704,3.5704,3.5704,3.5704,3.5704,3.5704,3.5704,3.5704,3.5704,3.5704,3.5695,3.5704,3.5708,3.5717,3.5757,3.5755,3.5756,3.5756,3.5774,3.5819,3.5849,3.5857,3.5862,3.5922,3.595,3.5954,3.5954,3.5976,3.5996,3.5996,3.5996,3.5996,3.5933,3.5928,3.5926,3.5926,3.5926,3.5926,3.5926,3.5926,3.5926,3.5926,3.5892,3.5885,3.5924,3.5851,3.5824,3.5853,3.5831,3.5791,3.5791,3.5791,3.5791,3.5791,3.5799,3.5805,3.5805,3.5792,3.5812,3.5856,3.5856,3.5832,3.5756,3.5756,3.5762,3.5756,3.5756,3.5756,2.6067,2.7253,2.8705,2.9282,3.049,3.1747,3.2606,3.3483,3.4211,3.4507,3.4404,3.4181,3.3949,3.3928,3.4017,3.4329,3.4366,3.4461,3.4725,3.4763,3.4763,3.4763,3.4763,3.4822,3.4954,3.4963,3.4997,3.5098,3.5106,0.0,3.4783,3.4764,3.4724,3.4629,3.4635,3.4691,3.4833,3.4833,3.4833,3.4833,3.4833,3.4833,3.4833,3.4833,3.4833,3.4833,3.5143,3.5438,3.5704,3.5704,3.5704,3.569,3.5707,3.5703,3.5694,3.5729,3.5721,3.5748,3.5777,3.5805,3.5836,3.5836,3.5847,3.5884,3.5923,3.5927,3.5949,3.5996,3.5996,3.5996,3.5996,3.5996,3.5996,3.5996,3.5996,3.5996,3.5995,3.5995,3.5996,3.5995,3.5995,3.5995,3.5995,3.5995,3.5995,3.5995,3.5956,3.5954,3.5996,3.5929,3.5876,3.593,3.588,3.5869,3.5869,3.5869,3.5869,3.5869,3.5874,3.5876,3.5876,3.5861,3.589,3.5937,3.5937,3.5912,3.5869,3.5838,3.5823,3.5805,3.5805,3.5805,0.0,0.0,0.0,2.8221,2.9288,3.0185,3.1143,3.1998,3.2825,3.3692,3.3207,3.2879,3.3689,3.3153,3.2851,3.3738,3.3883,3.4162,3.4953,3.5087,3.5106,3.5106,3.5106,3.5106,3.5114,3.5114,3.5114,3.5122,3.5084,3.4803,3.4147,3.4077,3.3769,3.3121,3.3107,3.3107,3.3107,3.3107,3.3107,3.3107,3.3107,3.3107,3.3107,3.3107,3.3107,3.3151,3.4026,3.4883,3.5676,3.5695,3.5695,3.5706,3.5706,3.5702,3.571,3.5771,3.5794,3.5794,3.5816,3.5847,3.5896,3.5896,3.595,3.5996,3.5996,3.5996,3.5996,3.5996,3.5996,3.5996,3.5996,3.5996,3.5996,3.5996,3.5996,3.5995,3.5995,3.5995,3.5994,3.5992,3.5991,3.5991,3.5991,3.5991,3.5991,3.5991,3.5991,3.5991,3.5991,3.5991,3.5991,3.5991,3.5991,3.5991,3.5991,3.5991,3.5991,3.5991,3.5991,3.5991,3.5991,3.5991,3.5991,3.5991,3.5991,3.5991,3.5991,3.5937,3.5864,3.5812,3.5812,3.5812,2.5434,0.0,0.0,0.0,0.0,0.0,3.0267,3.1251,3.2109,3.2993,3.3069,3.2869,3.2527,3.2262,3.2378,3.3244,3.3679,3.3991,3.4209,3.4776,3.5147,3.5114,3.513,3.5212,3.5302,3.5316,3.5378,0.0,3.4943,3.4517,3.4339,3.3716,3.3283,3.3107,3.3107,3.3107,3.3107,3.3107,3.3107,3.3107,3.3107,3.3107,3.3107,3.3107,3.3127,3.3229,3.4091,3.4614,3.4888,3.5452,3.5721,3.5778,3.5778,3.5765,3.5771,3.5847,3.5861,3.5885,3.5926,3.5953,3.5975,3.5975,3.5976,3.5996,3.5996,3.5996,3.5996,3.5996,3.5996,3.5996,3.5996,3.5996,3.5995,3.5995,3.5994,3.5992,3.6009,3.6008,3.6009,3.5991,3.5991,3.5991,3.5991,3.5991,3.5991,3.5991,3.5991,3.5991,3.5991,3.5991,3.5991,3.5991,3.5991,3.5991,3.5991,3.5991,3.5991,3.5991,3.6008,3.6006,3.6006,3.6001,3.5999,3.5999,3.5999,3.5999,3.5999,3.5972,3.5957,3.5937,3.5937,3.5937,2.5684,2.6237,2.7082,2.7072,0.0,0.0,2.9606,3.0312,3.1023,3.2202,3.2241,3.2009,3.1926,3.1624,3.156,3.2065,3.2996,3.3876,3.4565,3.5085,3.5393,3.5341,3.5373,3.5445,3.552,3.552,3.557,3.5684,3.4897,3.4084,3.3344,3.2512,3.2063,3.2063,3.2063,3.2063,3.2063,3.2063,3.2068,3.2066,3.2063,3.2067,3.2101,3.2064,3.2097,3.2208,3.3083,3.3688,3.4103,3.4909,3.5466,3.5794,3.5836,3.5843,3.5849,3.5922,3.5949,3.5951,3.5996,3.5996,3.5996,3.5996,3.5996,3.5996,3.5996,3.5996,3.5996,3.5995,3.5995,3.5995,3.5995,3.5994,3.5993,3.5993,3.5991,3.6008,3.6005,3.6002,3.6001,3.6004,3.6004,3.6004,3.6004,3.6004,3.6004,3.6004,3.6004,3.6004,3.6004,3.6004,3.6004,3.6004,3.6004,3.6004,3.6004,3.6004,3.6004,3.6004,3.6334,3.6371,3.6019,3.6346,3.6363,3.6012,3.5992,3.5992,3.5992,3.6001,3.6004,3.6004,3.6004,3.6004,2.6374,2.6579,2.6958,2.7619,2.7898,0.0,2.8947,2.9183,2.9656,3.11,3.0819,3.0593,3.1463,3.1037,3.063,3.0807,3.2225,3.3802,3.5214,3.5597,3.5713,3.5708,3.5708,3.5699,3.5693,3.5693,3.5702,3.5695,3.4883,3.3639,3.1894,3.1139,3.0694,3.0598,3.0598,3.0602,3.0597,3.0597,3.0606,3.0607,3.0614,3.0637,3.0709,3.0639,3.065,3.0761,3.1634,3.2477,3.3326,3.4242,3.5084,3.5834,3.5889,3.5918,3.5922,3.5975,3.5996,3.5996,3.5996,3.5996,3.5996,3.5996,3.5996,3.5996,3.5995,3.5995,3.5994,3.5992,3.5991,3.5991,3.5991,3.5991,3.5991,3.5991,3.6007,3.6003,3.6003,3.5998,3.5992,3.5992,3.5992,3.5992,3.5992,3.5992,3.5992,3.5992,3.5992,3.5992,3.5992,3.5992,3.5992,3.5992,3.5992,3.5992,3.5992,3.5992,3.6031,3.6148,3.6872,3.7009,3.6324,3.7028,3.7028,3.6168,3.6051,3.5992,3.5992,3.5992,3.5992,3.5992,3.5992,3.5992,2.7645,2.803,2.8333,2.7287,2.7558,0.0,2.7495,2.788,2.8436,2.8764,2.8706,2.8845,2.9738,2.9761,3.0102,3.1518,3.2613,3.3382,3.3645,3.49,3.5769,3.5713,3.5742,3.5766,3.5704,3.5699,3.5699,3.5694,3.488,3.3669,3.1961,3.1671,3.1275,3.0617,3.0598,3.0595,3.0591,3.0591,3.063,3.0675,3.0672,3.0682,3.07,3.0683,3.0725,3.0829,3.1708,3.2184,3.246,3.4042,3.5195,3.5954,3.5975,3.5976,3.5976,3.5996,3.5996,3.5995,3.5995,3.5994,3.5993,3.5993,3.5993,3.5993,3.5992,3.5992,3.5992,3.5991,3.5991,3.5991,3.5991,3.6009,3.6006,3.6006,3.6001,3.5995,3.5995,3.5994,3.5992,3.5992,3.5992,3.5992,3.5992,3.5992,3.5992,3.5992,3.5992,3.5992,3.5992,3.5992,3.5992,3.5992,3.5992,3.5992,3.5992,3.5992,3.6305,3.7009,3.7204,3.7536,3.8064,3.8259,3.7947,3.7067,3.6363,3.5992,3.5992,3.5992,3.5992,3.5992,3.5992,3.5992,2.8544,2.8845,2.9055,2.8291,0.0,0.0,0.0,2.7469,2.7695,2.8574,2.8403,2.8371,2.9241,2.9403,2.9686,3.0551,3.1794,3.2645,3.2617,3.4447,3.5786,3.5745,3.5773,3.5788,3.5747,3.5747,3.5567,3.5127,3.4691,3.3892,3.2613,3.2095,3.1663,3.1263,3.0855,3.0658,3.0647,3.0647,3.0674,3.0753,3.0719,3.0731,3.0793,3.0767,3.0793,3.0879,3.1309,3.1738,3.2203,3.351,3.4567,3.5389,3.5838,3.5995,3.5995,3.5995,3.5994,3.5993,3.5993,3.5992,3.5991,3.5991,3.5991,3.5991,3.6009,3.6006,3.6003,3.6003,3.6003,3.6003,3.6003,3.6001,3.5999,3.5999,3.5995,3.5992,3.5992,3.5992,3.5992,3.5992,3.5992,3.5992,3.5992,3.5992,3.5992,3.5992,3.5992,3.5992,3.5992,3.5992,3.6168,3.6597,3.6265,3.6187,3.6617,3.6656,3.6833,3.7262,3.8082,3.8551,3.8591,3.8982,3.8804,3.7966,3.7516,3.7301,3.7301,3.6852,3.6422,3.5992,3.5992,3.5992,2.9382,2.9516,2.9559,0.0,0.0,2.821,0.0,0.0,0.0,2.8434,2.8248,2.8083,2.8782,2.8909,0.0,2.935,0.0,0.0,0.0,3.3911,0.0,3.5329,3.5329,3.5383,3.5541,3.5556,3.5338,3.4796,3.4596,3.4197,3.3483,3.2637,3.2087,3.1927,3.1129,3.0706,3.071,3.0711,3.0744,3.0819,3.0769,3.0796,3.0894,3.082,3.084,3.0873,3.0873,3.1244,3.1927,3.2786,3.3665,3.4543,3.558,3.5991,3.5991,3.5991,3.5991,3.6009,3.6009,3.5987,3.5983,3.5983,3.5961,3.5935,3.5949,3.5941,3.5933,3.5933,3.5933,3.5933,3.5933,3.5933,3.5933,3.5933,3.5933,3.5933,3.5933,3.5933,3.5933,3.5933,3.5958,3.5985,3.5991,3.5992,3.5992,3.5992,3.5992,3.6051,3.6226,3.6246,3.6578,3.7458,3.6911,3.6794,3.7497,3.7555,3.7614,3.777,3.9058,3.9585,3.9099,3.9546,3.9488,3.8845,3.8689,3.8591,3.8591,3.7888,3.7184,3.65,3.6324,3.6344,0.0,0.0,0.0,0.0,2.8741,0.0,0.0,0.0,2.7595,2.6294,0.0,2.7077,2.7174,0.0,0.0,0.0,0.0,0.0,3.1891,3.2905,3.3584,3.3584,3.3584,3.3856,3.4575,3.4653,3.4921,3.5596,3.4947,3.4455,3.436,3.3578,3.2797,3.2003,3.1143,3.0731,3.0794,3.0794,3.0819,3.0896,3.0875,3.0892,3.0908,3.0827,3.0805,3.0803,3.0803,3.0861,3.1018,3.1897,3.2756,3.3712,3.5363,3.5991,3.5991,3.5991,3.6009,3.6005,3.6005,3.5965,3.5904,3.5904,3.5827,3.5733,3.5729,3.5729,3.5725,3.5725,3.5725,3.5725,3.5725,3.5725,3.5725,3.5725,3.5725,3.5725,3.5725,3.5725,3.5725,3.5725,3.582,3.5934,3.5988,3.5992,3.5992,3.5992,3.5992,3.6285,3.7048,3.7145,3.7497,3.8357,3.8357,3.8337,3.8435,3.8454,3.8767,3.9468,3.9683,4.0112,4.0797,4.0151,3.9761,3.9663,3.8962,3.8591,3.8591,3.8494,3.8396,3.8298,3.7516,3.7575,0.0,0.0,0.0,0.0,0.0,0.0,2.6705,0.0,2.6589,0.0,0.0,0.0,0.0,0.0,0.0,0.0,2.9797,0.0,0.0,0.0,3.2166,3.3177,0.0,0.0,3.3759,3.3799,3.3955,3.4325,3.4474,3.4558,3.456,3.4243,3.3671,3.2843,3.1965,3.1287,3.0798,3.0798,3.0815,3.0848,3.0845,3.0844,3.0844,3.0801,3.08,3.08,3.08,3.08,3.0878,3.1738,3.2295,3.2707,3.3947,3.5041,3.588,3.5412,3.549,3.5752,3.5334,3.5443,3.5771,3.5771,3.5745,3.5698,3.5698,3.5698,3.5698,3.5698,3.5698,3.5698,3.5698,3.5698,3.5698,3.5698,3.5698,3.5698,3.5698,3.5698,3.5698,3.5698,3.5745,3.5801,3.5827,3.5923,3.5992,3.5992,3.6422,3.6891,3.7243,3.7731,3.8376,3.9214,3.8884,3.8786,3.9253,3.9292,3.9449,3.978,4.0268,4.0717,4.109,4.0758,4.0542,4.0542,4.0211,4.0055,4.0055,3.9548,3.9567,4.0016,3.8689,3.8259,3.0598,0.0,0.0,0.0,0.0,0.0,0.0,0.0,0.0,0.0,0.0,0.0,0.0,0.0,0.0,0.0,0.0,3.0458,0.0,3.0728,0.0,0.0,0.0,0.0,0.0,3.2961,3.3059,3.3273,3.3682,3.4128,3.4596,3.4408,3.4003,3.3417,3.2557,3.1675,3.08,3.08,3.08,3.08,3.08,3.08,3.08,3.08,3.08,3.08,3.08,3.0796,3.0828,3.1454,3.1824,3.2033,3.2678,3.3815,3.5071,3.4506,3.4748,3.5282,3.4753,3.5053,3.5674,3.5645,3.5655,3.5655,3.5655,3.5655,3.5655,3.5655,3.5655,3.5655,3.5655,3.5655,3.5655,3.5655,3.5655,3.5655,3.5655,3.581,3.5965,3.5965,3.6178,3.6352,3.6352,3.632,3.627,3.627,3.7013,3.7661,3.7929,3.8487,3.9187,4.0036,3.9609,3.9492,4.0077,4.0145,4.0146,4.0136,4.0732,4.108,4.1015,4.1048,4.1068,4.1015,4.1015,4.1015,4.1015,4.0389,4.0408,4.0976,3.9577,3.906,0.0,0.0,0.0,2.8476,0.0,0.0,0.0,0.0,2.7815,0.0,0.0,0.0,0.0,0.0,0.0,2.9316,0.0,0.0,0.0,0.0,0.0,0.0,0.0,0.0,0.0,3.2143,3.2455,0.0,3.2593,3.293,3.4609,3.3899,3.3438,3.3398,3.2559,3.1681,3.08,3.08,3.08,3.08,3.08,3.08,3.08,3.08,3.08,3.08,3.08,3.0765,3.0711,3.073,3.1207,3.1905,3.1925,3.2458,3.318,3.3227,3.3798,3.4548,3.4513,3.499,3.559,3.5522,3.5514,3.5514,3.5514,3.5514,3.5514,3.5514,3.5514,3.5514,3.5514,3.5514,3.5514,3.5514,3.5514,3.5514,3.5514,3.611,3.6668,3.6668,3.7392,3.8013,3.8013,3.7434,3.696,3.696,3.7717,3.8606,3.9507,3.9529,3.9859,4.0851,4.0935,4.0935,4.0955,4.1027,4.1033,4.098,4.1048,4.1013,4.0829,4.0937,4.0944,4.08,4.082,4.082,4.082,4.0781,4.0781,4.0785,4.0092,4.021,0.0,0.0,3.0312,2.9154,0.0,0.0,0.0,0.0,0.0,0.0,0.0,0.0,0.0,0.0,2.9124,2.946,2.9989,0.0,0.0,0.0,0.0,0.0,0.0,0.0,0.0,0.0,0.0,3.1637,3.1932,0.0,3.378,3.4105,3.4256,3.4256,3.3417,3.2539,3.166,3.1094,3.08,3.08,3.08,3.08,3.08,3.08,3.08,3.08,3.08,3.0795,3.0765,3.0722,3.0831,3.1036,3.0982,3.111,3.1405,3.2085,3.282,3.3509,3.4108,3.4845,3.5528,3.5514,3.55,3.55,3.55,3.55,3.55,3.55,3.55,3.55,3.55,3.55,3.55,3.55,3.5904,3.6288,3.6288,3.6962,3.7565,3.7565,3.7812,3.804,3.804,3.8311,3.8374,3.7938,3.8563,3.9203,3.9528,4.0038,4.0495,4.0831,4.0866,4.0861,4.0874,4.0883,4.089,4.0878,4.0887,4.0875,4.0791,4.0842,4.0842,4.0791,4.081,4.081,4.081,4.081,4.081,4.0791,4.056,4.0672,3.0598,3.0598,0.0,2.9513,2.8879,0.0,2.7416,0.0,2.7704,0.0,0.0,0.0,0.0,0.0,0.0,2.9953,3.0422,3.0795,0.0,3.0801,0.0,0.0,0.0,3.0799,0.0,3.0801,3.0798,3.0798,3.1317,3.2012,0.0,3.3768,3.4237,3.4237,3.3689,3.2988,3.211,3.1231,3.08,3.08,3.08,3.08,3.08,3.08,3.0795,3.0767,3.0767,3.0732,3.0697,3.0642,3.0777,3.0997,3.0931,3.1069,3.1293,3.1352,3.2027,3.3064,3.4257,3.5026,3.55,3.55,3.55,3.55,3.55,3.55,3.55,3.55,3.55,3.55,3.55,3.55,3.55,3.55,3.6115,3.6692,3.6692,3.7608,3.8427,3.8427,3.8662,3.8846,3.8846,3.9327,3.9461,3.8752,3.9348,3.9863,3.9896,4.0355,4.0686,4.0699,4.0688,4.0729,4.0791,4.0806,4.0796,4.0775,4.0791,4.0776,4.0696,4.0735,4.0735,4.0696,4.069,4.069,4.069,4.069,4.069,4.0696,4.0735,4.0811]}]]